[[{"header":{"parameterUnit":"m.s-1","parameterCategory":1,"la1":31.0,"la2":29.5877,"lo1":-88.7671,"lo2":-86.6584,"dy":0.0162,"dx":0.0185,"nx":115,"ny":88,"refTime":"2024-05-30T12:00:00:Z","depth":0,"parameterNumber":2,"parameterNumberName":"U-component_of_WINDS"},"data":[0.0,0.0,0.0,0.0,0.0,0.0,0.0,0.0,0.0,0.0,0.0,0.0,0.0,0.0,0.0,0.0,0.0,0.0,0.0,0.0,0.0,0.0,0.0,0.0,0.0,0.0,0.0,0.0,0.0,0.0,0.0,0.0,0.0,0.0,0.0,0.0,0.0,0.0,0.0,0.0,0.0,0.0,0.0,0.0,0.0,0.0,0.0,0.0,0.0,0.0,0.0,0.0,0.0,0.0,0.0,0.0,0.0,0.0,0.0,0.0,0.0,0.0,0.0,0.0,0.0,0.0,0.0,0.0,0.0,0.0,0.0,0.0,0.0,0.0,0.0,0.0,0.0,0.0,0.0,0.0,0.0,0.0,0.0,0.0,0.0,0.0,0.0,0.0,0.0,0.0,0.0,0.0,0.0,0.0,0.0,0.0,0.0,0.0,0.0,0.0,0.0,0.0,0.0,0.0,0.0,0.0,0.0,0.0,0.0,0.0,0.0,0.0,0.0,0.0,0.0,0.0,0.0,0.0,0.0,0.0,0.0,0.0,0.0,0.0,0.0,0.0,0.0,0.0,0.0,0.0,0.0,0.0,0.0,0.0,0.0,0.0,0.0,0.0,0.0,0.0,0.0,0.0,0.0,0.0,0.0,0.0,0.0,0.0,0.0,0.0,0.0,0.0,0.0,0.0,0.0,0.0,0.0,0.0,0.0,0.0,0.0,0.0,0.0,0.0,0.0,0.0,0.0,0.0,0.0,0.0,0.0,0.0,0.0,0.0,0.0,0.0,0.0,0.0,0.0,0.0,0.0,0.0,0.0,0.0,0.0,0.0,0.0,0.0,0.0,0.0,0.0,0.0,0.0,0.0,0.0,0.0,0.0,0.0,0.0,0.0,0.0,0.0,0.0,0.0,0.0,0.0,0.0,0.0,0.0,0.0,0.0,0.0,0.0,0.0,0.0,0.0,0.0,0.0,0.0,0.0,0.0,0.0,0.0,0.0,0.0,0.0,0.0,0.0,0.0,0.0,0.0,0.0,0.0,0.0,0.0,0.0,0.0,0.0,0.0,0.0,0.0,0.0,0.0,0.0,0.0,0.0,0.0,0.0,0.0,0.0,0.0,0.0,0.0,0.0,0.0,0.0,0.0,0.0,0.0,0.0,0.0,0.0,0.0,0.0,0.0,0.0,0.0,0.0,0.0,0.0,0.0,0.0,0.0,0.0,0.0,0.0,0.0,0.0,0.0,0.0,0.0,0.0,0.0,0.0,0.0,0.0,0.0,0.0,0.0,0.0,0.0,0.0,0.0,0.0,0.0,0.0,0.0,0.0,0.0,0.0,0.0,0.0,0.0,0.0,0.0,0.0,0.0,0.0,0.0,0.0,0.0,0.0,0.0,0.0,0.0,0.0,0.0,0.0,0.0,0.0,0.0,0.0,0.0,0.0,0.0,0.0,0.0,0.0,0.0,0.0,0.0,0.0,0.0,0.0,0.0,0.0,0.0,0.0,0.0,0.0,0.0,0.0,0.0,0.0,0.0,0.0,0.0,0.0,0.0,0.0,0.0,0.0,0.0,0.0,0.0,0.0,0.0,0.0,0.0,0.0,0.0,0.0,0.0,0.0,0.0,0.0,0.0,0.0,0.0,0.0,0.0,0.0,0.0,0.0,0.0,0.0,0.0,0.0,0.0,0.0,0.0,0.0,0.0,0.0,0.0,0.0,0.0,0.0,0.0,0.0,0.0,0.0,0.0,0.0,0.0,0.0,0.0,0.0,0.0,0.0,0.0,0.0,0.0,0.0,0.0,0.0,0.0,0.0,0.0,0.0,0.0,0.0,0.0,0.0,0.0,0.0,0.0,0.0,0.0,0.0,0.0,0.0,0.0,0.0,0.0,0.0,0.0,0.0,0.0,0.0,0.0,0.0,0.0,0.0,0.0,0.0,0.0,0.0,0.0,0.0,0.0,0.0,0.0,0.0,0.0,0.0,0.0,0.0,0.0,0.0,0.0,0.0,0.0,0.0,0.0,0.0,0.0,0.0,0.0,0.0,0.0,0.0,0.0,0.0,0.0,0.0,0.0,0.0,0.0,0.0,0.0,0.0,0.0,0.0,0.0,0.0,0.0,0.0,0.0,0.0,0.0,0.0,0.0,0.0,0.0,0.0,0.0,0.0,0.0,0.0,0.0,0.0,0.0,0.0,0.0,0.0,0.0,0.0,0.0,0.0,0.0,0.0,0.0,0.0,0.0,0.0,0.0,0.0,0.0,0.0,0.0,0.0,0.0,0.0,0.0,0.0,0.0,0.0,0.0,0.0,0.0,0.0,0.0,0.0,0.0,0.0,0.0,0.0,0.0,0.0,0.0,0.0,0.0,0.0,0.0,0.0,0.0,0.0,0.0,0.0,0.0,0.0,0.0,0.0,0.0,0.0,0.0,0.0,0.0,0.0,0.0,0.0,0.0,0.0,0.0,0.0,0.0,0.0,0.0,0.0,0.0,0.0,0.0,0.0,0.0,0.0,0.0,0.0,0.0,0.0,0.0,0.0,0.0,0.0,0.0,0.0,0.0,0.0,0.0,0.0,0.0,0.0,0.0,0.0,0.0,0.0,0.0,0.0,0.0,0.0,0.0,0.0,0.0,0.0,0.0,0.0,0.0,0.0,0.0,0.0,0.0,0.0,0.0,0.0,0.0,0.0,0.0,0.0,0.0,0.0,0.0,0.0,0.0,0.0,0.0,0.0,0.0,0.0,0.0,0.0,0.0,0.0,0.0,0.0,0.0,0.0,0.0,0.0,0.0,0.0,0.0,0.0,0.0,0.0,0.0,0.0,0.0,0.0,0.0,0.0,0.0,0.0,0.0,0.0,0.0,0.0,0.0,0.0,0.0,0.0,0.0,0.0,0.0,0.0,0.0,0.0,0.0,0.0,0.0,0.0,0.0,0.0,0.0,0.0,0.0,0.0,0.0,0.0,0.0,0.0,0.0,0.0,0.0,0.0,0.0,0.0,0.0,0.0,0.0,0.0,0.0,0.0,0.0,0.0,0.0,0.0,0.0,0.0,0.0,0.0,0.0,0.0,0.0,0.0,0.0,0.0,0.0,0.0,0.0,0.0,0.0,0.0,0.0,0.0,0.0,0.0,0.0,0.0,0.0,0.0,0.0,0.0,0.0,0.0,0.0,0.0,0.0,0.0,0.0,0.0,0.0,0.0,0.0,0.0,0.0,0.0,0.0,0.0,0.0,0.0,0.0,0.0,0.0,0.0,0.0,0.0,0.0,0.0,0.0,0.0,0.0,0.0,0.0,0.0,0.0,0.0,0.0,0.0,0.0,0.0,0.0,0.0,0.0,0.0,0.0,0.0,0.0,0.0,0.0,0.0,0.0,0.0,0.0,0.0,0.0,0.0,0.0,0.0,0.0,0.0,0.0,0.0,0.0,0.0,0.0,0.0,0.0,0.0,0.0,0.0,0.0,0.0,0.0,0.0,0.0,0.0,0.0,0.0,0.0,0.0,0.0,0.0,0.0,0.0,0.0,0.0,0.0,0.0,0.0,0.0,0.0,0.0,0.0,0.0,0.0,0.0,0.0,0.0,0.0,0.0,0.0,0.0,0.0,0.0,0.0,0.0,0.0,0.0,0.0,0.0,0.0,0.0,0.0,0.0,0.0,0.0,0.0,0.0,0.0,0.0,0.0,0.0,0.0,0.0,0.0,0.0,0.0,0.0,0.0,0.0,0.0,0.0,0.0,0.0,0.0,0.0,0.0,0.0,0.0,0.0,0.0,0.0,0.0,0.0,0.0,0.0,0.0,0.0,0.0,0.0,0.0,0.0,0.0,0.0,0.0,0.0,0.0,0.0,0.0,0.0,0.0,0.0,0.0,0.0,0.0,0.0,0.0,0.0,0.0,0.0,0.0,0.0,0.0,0.0,0.0,0.0,0.0,0.0,0.0,0.0,0.0,0.0,0.0,0.0,0.0,0.0,0.0,0.0,0.0,0.0,0.0,0.0,0.0,0.0,0.0,0.0,0.0,0.0,0.0,0.0,0.0,0.0,0.0,0.0,0.0,0.0,0.0,0.0,0.0,0.0,0.0,0.0,0.0,0.0,0.0,0.0,0.0,0.0,0.0,0.0,0.0,0.0,0.0,0.0,0.0,0.0,0.0,0.0,0.0,0.0,0.0,0.0,0.0,0.0,0.0,0.0,0.0,0.0,0.0,0.0,0.0,0.0,0.0,0.0,0.0,0.0,0.0,0.0,0.0,0.0,0.0,0.0,0.0,0.0,0.0,0.0,-0.2521,0.0,0.0,0.0,0.0,0.0,0.0,0.0,0.0,0.0,0.0,0.0,0.0,0.0,0.0,0.0,0.0,0.0,0.0,0.0,0.0,0.0,0.0,0.0,0.0,0.0,0.0,0.0,0.0,0.0,0.0,0.0,0.0,0.0,0.0,0.0,0.0,0.0,0.0,0.0,0.0,0.0,0.0,0.0,0.0,0.0,0.0,0.0,0.0,0.0,0.0,0.0,0.0,0.0,0.0,0.0,0.0,0.0,0.0,0.0,0.0,0.0,0.0,0.0,0.0,0.0,0.0,0.0,0.0,0.0,0.0,0.0,0.0,0.0,0.0,0.0,0.0,0.0,0.0,0.0,0.0,0.0,0.0,0.0,0.0,0.0,0.0,0.0,0.0,0.0,0.0,0.0,0.0,0.0,0.0,0.0,0.0,0.0,0.0,0.0,0.0,0.0,0.0,0.0,0.0,0.0,0.0,0.0,0.0,0.0,0.0,-0.0224,-0.1076,-0.1286,-0.179,-0.2649,0.0,0.0,0.0,0.0,0.0,0.0,0.0,0.0,0.0,0.0,0.0,0.0,0.0,0.0,0.0,0.0,0.0,0.0,0.0,0.0,0.0,0.0,0.0,0.0,0.0,0.0,0.0,0.0,0.0,0.0,0.0,0.0,0.0,0.0,0.0,0.0,0.0,0.0,0.0,0.0,0.0,0.0,0.0,0.0,0.0,0.0,0.0,0.0,0.0,0.0,0.0,0.0,0.0,0.0,0.0,0.0,0.0,0.0,0.0,0.0,0.0,0.0,0.0,0.0,0.0,0.0,0.0,0.0,0.0,0.0,0.0,0.0,0.0,0.0,0.0,0.0,0.0,0.0,0.0,0.0,0.0,0.0,0.0,0.0,0.0,0.0,0.0,0.0,0.0,0.0,0.0,0.0,0.0,0.0,0.0,0.0,0.0,0.0,0.0,0.0,0.0,0.0,0.0,0.0,0.0,0.0,0.0,0.0,0.0,0.0,0.0,0.0,-0.1442,-0.1966,-0.2679,0.0,0.0,0.0,0.0,0.0,0.0,0.0,0.0,0.0,0.0,0.0,0.0,0.0,0.0,0.0,0.0,0.0,0.0,0.0,0.0,0.0,0.0,0.0,0.0,0.0,0.0,0.0,0.0,0.0,0.0,0.0,0.0,0.0,0.0,0.0,0.0,0.0,0.0,0.0,0.0,0.0,0.0,0.0,0.0,0.0,0.0,0.0,0.0,0.0,0.0,0.0,0.0,0.0,0.0,0.0,0.0,0.0,0.0,0.0,0.0,0.0,0.0,0.0,0.0,0.0,0.0,0.0,0.0,0.0,0.0,0.0,0.0,0.0,0.0,0.0,0.0,0.0,0.0,0.0,0.0,0.0,0.0,0.0,0.0,0.0,0.0,0.0,0.0,0.0,0.0,0.0,0.0,0.0,0.0,0.0,0.0,0.0,0.0,0.0,0.0,0.0,0.0,0.0,0.0,0.0,0.0,0.0,0.0,0.0,0.0,0.0171,-0.1051,-0.1096,0.0,-0.2682,0.0,0.0,0.0,0.0,0.0,0.0,0.0,0.0,0.0,0.0,0.0,0.0,0.0,0.0,0.0,0.0,0.0,0.0,0.0,0.0,0.0,0.0,0.0,0.0,0.0,0.0,0.0,0.0,0.0,0.0,0.0,0.0,0.0,0.0,0.0,0.0,0.0,0.0,0.0,0.0,0.0,0.0,0.0,0.0,0.0,0.0,0.0,0.0,0.0,0.0,0.0,0.0,0.0,0.0,0.0,0.0,0.0,0.0,0.0,0.0,0.0,0.0,0.0,0.0,0.0,0.0,0.0,0.0,0.0,0.0,0.0,0.0,0.0,0.0,0.0,0.0,0.0,0.0,0.0,0.0,0.0,0.0,0.0,0.0,0.0,0.0,0.0,0.0,0.0,0.0,0.0,0.0,0.0,0.0,0.0,0.0,0.0,0.0,0.0,0.0,0.0,0.0,0.0,0.0,0.0,0.0,0.0,0.0,0.0,0.0,-0.0171,-0.1027,-0.1703,-0.2309,0.0,0.0,0.0,0.0,0.0,0.0,0.0,0.0,0.0,0.0,0.0,0.0,0.0,0.0,0.0,0.0,0.0,0.0,0.0,0.0,0.0,0.0,0.0,0.0,0.0,0.0,0.0,0.0,0.0,0.0,0.0,0.0,0.0,0.0,0.0,0.0,0.0,0.0,0.0,0.0,0.0,0.0,0.0,0.0,0.0,0.0,0.0,0.0,0.0,0.0,0.0,0.0,0.0,0.0,0.0,0.0,0.0,0.0,0.0,0.0,0.0,0.0,0.0,0.0,0.0,0.0,0.0,0.0,0.0,0.0,0.0,0.0,0.0,0.0,0.0,0.0,0.0,0.0,0.0,0.0,0.0,0.0,0.0,0.0,0.0,0.0,0.0,0.0,0.0,0.0,0.0,0.0,0.0,0.0,0.0,0.0,0.0,0.0,0.0,0.0,0.0,0.0,0.0,0.0,0.0,0.0,0.0,0.0,0.0,0.0,0.0382,0.0,-0.0994,-0.219,-0.2823,-0.2776,0.0,0.0,0.0,0.0,0.0,0.0,0.0,0.0,0.0,0.0,0.0,0.0,0.0,0.0,0.0,0.0,0.0,0.0,0.0,0.0,0.0,0.0,0.0,0.0,0.0,0.0,0.0,0.0,0.0,0.0,0.0,0.0,0.0,0.0,0.0,0.0,0.0,0.0,0.0,0.0,0.0,0.0,0.0,0.0,0.0,0.0,0.0,0.0,0.0,0.0,0.0,0.0,0.0,0.0,0.0,0.0,0.0,0.0,0.0,0.0,0.0,0.0,0.0,0.0,0.0,0.0,0.0,0.0,0.0,0.0,0.0,0.0,0.0,0.0,0.0,0.0,0.0,0.0,0.0,0.0,0.0,0.0,0.0,0.0,0.0,0.0,0.0,0.0,0.0,0.0,0.0,0.0,0.0,0.0,0.0,0.0,0.0,0.0,0.0,0.0,0.0,0.0,0.0,0.0,0.0,0.0,0.0,0.0,0.0,0.0884,0.026,-0.0966,-0.2288,-0.2898,0.0,0.0,0.0,0.0,0.0,0.0,0.0,0.0,0.0,0.0,0.0,0.0,0.0,0.0,0.0,0.0,0.0,0.0,0.0,0.0,0.0,0.0,0.0,0.0,0.0,0.0,0.0,0.0,0.0,0.0,0.0,0.0,0.0,0.0,0.0,0.0,0.0,0.0,0.0,0.0,0.0,0.0,0.0,0.0,0.0,0.0,0.0,0.0,0.0,0.0,0.0,0.0,0.0,0.0,0.0,0.0,0.0,0.0,0.0,0.0,0.0,0.0,0.0,0.0,0.0,0.0,0.0,0.0,0.0,0.0,0.0,0.0,0.0,0.0,0.0,0.0,0.0,0.0,0.0,0.0,0.0,0.0,0.0,0.0,0.0,0.0,0.0,0.0,0.0,0.0,0.0,0.0,0.0,0.0,0.0,0.0,0.0,0.0,0.0,0.0,0.0,0.0,0.0,0.0,0.0,0.0,0.0,0.0,0.0,0.0796,0.0333,-0.0075,-0.0379,-0.1601,-0.2233,0.0,0.0,0.0,0.0,0.0,0.0,0.0,0.0,0.0,0.0,0.0,0.0,0.0,0.0,0.0,0.0,0.0,0.0,0.0,0.0,0.0,0.0,0.0,0.0,0.0,0.0,0.0,0.0,0.0,0.0,0.0,0.0,0.0,0.0,0.0,0.0,0.0,0.0,0.0,0.0,0.0,0.0,0.0,0.0,0.0,0.0,0.0,0.0,0.0,0.0,0.0,0.0,0.0,0.0,0.0,0.0,0.0,0.0,0.0,0.0,0.0,0.0,0.0,0.0,0.0,0.0,0.0,0.0,0.0,0.0,0.0,0.0,0.0,0.0,0.0,0.0,0.0,0.0,0.0,0.0,0.0,0.0,0.0,0.0,0.0,0.0,0.0,0.0,0.0,0.0,0.0,0.0,0.0,0.0,0.0,0.0,0.0,0.0,0.0,0.0,0.0,0.0,0.0,0.0,0.0,0.0,0.0,0.0,0.0,0.0683,0.0,-0.02,0.0,-0.1037,-0.1529,0.0,0.0,0.0,0.0,0.0,0.0,0.0,0.0,0.0,0.0,0.0,0.0,0.0,0.0,0.0,0.0,0.0,0.0,0.0,0.0,0.0,0.0,0.0,0.0,0.0,0.0,0.0,0.0,0.0,0.0,0.0,0.0,0.0,0.0,0.0,0.0,0.0,0.0,0.0,0.0,0.0,0.0,0.0,0.0,0.0,0.0,0.0,0.0,0.0,0.0,0.0,0.0,0.0,0.0,0.0,0.0,0.0,0.0,0.0,0.0,0.0,0.0,0.0,0.0,0.0,0.0,0.0,0.0,0.0,0.0,0.0,0.0,0.0,0.0,0.0,0.0,0.0,0.0,0.0,0.0,0.0,0.0,0.0,0.0,0.0,0.0,0.0,0.0,0.0,0.0,0.0,0.0,0.0,0.0,0.0,0.0,0.0,0.0,0.0,0.0,0.0,0.0,0.0,0.0,0.0,0.0,0.0,0.0,0.0469,0.0676,0.0172,-0.0048,0.0093,-0.0631,-0.0957,0.0,0.0,0.0,0.0,0.0,0.0,0.0,0.0,0.0,0.0,0.0,0.0,0.0,0.0,0.0,0.0,0.0,0.0,0.0,0.0,0.0,0.0,0.0,0.0,0.0,0.0,0.0,0.0,0.0,0.0,0.0,0.0,0.0,0.0,0.0,0.0,0.0,0.0,0.0,0.0,0.0,0.0,0.0,0.0,0.0,0.0,0.0,0.0,0.0,0.0,0.0,0.0,0.0,0.0,0.0,0.0,0.0,0.0,0.0,0.0,0.0,0.0,0.0,0.0,0.0,0.0,0.0,0.0,0.0,0.0,0.0,0.0,0.0,0.0,0.0,0.0,0.0,0.0,0.0,0.0,0.0,0.0,0.0,0.0,0.0,0.0,0.0,0.0,0.0,0.0,0.0,0.0,0.0,0.0,0.0,0.0,0.0,0.0,0.0,0.0,0.0,0.0,0.0,0.0,0.0,0.0,0.0,0.0,0.0,0.0457,-0.0046,-0.0016,0.0524,-0.0401,-0.0831,0.0,0.0,0.0,0.0,0.0,0.0,0.0,0.0,0.0,0.0,0.0,0.0,0.0,0.0,0.0,0.0,0.0,0.0,0.0,0.0,0.0,0.0,0.0,0.0,0.0,0.0,0.0,0.0,0.0,0.0,0.0,0.0,0.0,0.0,0.0,0.0,0.0,0.0,0.0,0.0,0.0,0.0,0.0,0.0,0.0,0.0,0.0,0.0,0.0,0.0,0.0,0.0,0.0,0.0,0.0,0.0,0.0,0.0,0.0,0.0,0.0,0.0,0.0,0.0,0.0,0.0,0.0,0.0,0.0,0.0,0.0,0.0,0.0,0.0,0.0,0.0,0.0,0.0,0.0,0.0,0.0,0.0,0.0,0.0,0.0,0.0,0.0,0.0,0.0,0.0,0.0,0.0,0.0,0.0,0.0,0.0,0.0,0.0,0.0,0.0,0.0,0.0,0.0,0.0,0.0,0.0,0.0,0.0,0.0,-0.0524,-0.0784,-0.064,0.0,-0.067,-0.0988,-0.0845,0.0,0.0,0.0,0.0,0.0,0.0,0.0,0.0,0.0,0.0,0.0,0.0,0.0,0.0,0.0,0.0,0.0,0.0,0.0,0.0,0.0,0.0,0.0,0.0,0.0,0.0,0.0,0.0,0.0,0.0,0.0,0.0,0.0,0.0,0.0,0.0,0.0,0.0,0.0,0.0,0.0,0.0,0.0,0.0,0.0,0.0,0.0,0.0,0.0,0.0,0.0,0.0,0.0,0.0,0.0,0.0,0.0,0.0,0.0,0.0,0.0,0.0,0.0,0.0,0.0,0.0,0.0,0.0,0.0,0.0,0.0,0.0,0.0,0.0,0.0,0.0,0.0,0.0,0.0,0.0,0.0,0.0,0.0,0.0,0.0,0.0,0.0,0.0,0.0,0.0,0.0,0.0,0.0,0.0,0.0,0.0,0.0,0.0,0.0,0.0,0.0,0.0,0.0,0.0,0.0,0.0,0.0,0.0,-0.1955,-0.199,-0.1791,-0.1328,-0.1351,-0.1314,0.0,0.0,0.0,0.0,0.0,0.0,0.0,0.0,0.0,0.0,0.0,0.0,0.0,0.0,0.0,0.0,0.0,0.0,0.0,0.0,0.0,0.0,0.0,0.0,0.0,0.0,0.0,0.0,0.0,0.0,0.0,0.0,0.0,0.0,0.0,0.0,0.0,0.0,0.0,0.0,0.0,0.0,0.0,0.0,0.0,0.0,0.0,0.0,0.0,0.0,0.0,0.0,0.0,0.0,0.0,0.0,0.0,0.0,0.0,0.0,0.0,0.0,0.0,0.0,0.0,0.0,0.0,0.0,0.0,0.0,0.0,0.0,0.0,0.0,0.0,0.0,0.0,0.0,0.0,0.0,0.0,0.0,0.0,0.0,0.0,0.0,0.0,0.0,0.0,0.0,0.0,0.0,0.0,0.0,0.0,0.0,0.0,0.0,0.0,0.0,0.0,0.0,0.0,0.0,0.0,0.0,0.0,0.0,0.0,-0.247,-0.3222,-0.301,-0.1661,-0.1875,-0.1994,0.0,0.0,0.0,0.0,0.0,0.0,0.0,0.0,0.0,0.0,0.0,0.0,0.0,0.0,0.0,0.0,0.0,0.0,0.0,0.0,0.0,0.0,0.0,0.0,0.0,0.0,0.0,0.0,0.0,0.0,0.0,0.0,0.0,0.0,0.0,0.0,0.0,0.0,0.0,0.0,0.0,0.0,0.0,0.0,0.0,0.0,0.0,0.0,0.0,0.0,0.0,0.0,0.0,0.0,0.0,0.0,0.0,0.0,0.0,0.0,0.0,0.0,0.0,0.0,0.0,0.0,0.0,0.0,0.0,0.0,0.0,0.0,0.0,0.0,0.0,0.0,0.0,0.0,0.0,0.0,0.0,0.0,0.0,0.0,0.0,0.0,0.0,0.0,0.0,0.0,0.0,0.0,0.0,0.0,0.0,0.0,0.0,0.0,0.0,0.0,0.0,0.0,0.0,0.0,0.0,0.0,0.0,0.0,-0.3345,-0.3207,-0.3918,-0.3815,-0.2805,-0.2911,-0.2888,0.0,0.0,0.0,0.0,0.0,0.0,0.0,0.0,0.0,0.0,0.0,0.0,0.0,0.0,0.0,0.0,0.0,0.0,0.0,0.0,0.0,0.0,0.0,0.0,0.0,0.0,0.0,0.0,0.0,0.0,0.0,0.0,0.0,0.0,0.0,0.0,0.0,0.0,0.0,0.0,0.0,0.0,0.0,0.0,0.0,0.0,0.0,0.0,0.0,0.0,0.0,0.0,0.0,0.0,0.0,0.0,0.0,0.0,0.0,0.0,0.0,0.0,0.0,0.0,0.0,0.0,0.0,0.0,0.0,0.0,0.0,0.0,0.0,0.0,0.0,0.0,0.0,0.0,0.0,0.0,0.0,0.0,0.0,0.0,0.0,0.0,0.0,0.0,0.0,0.0,0.0,0.0,0.0,0.0,0.0,0.0,0.0,0.0,0.0,0.0,0.0,0.0,0.0,0.0,0.0,0.0,0.0,0.0,-0.3875,-0.4025,-0.42,-0.4312,-0.4306,-0.4044,-0.3777,0.0,0.0,0.0,0.0,0.0,0.0,0.0,0.0,0.0,0.0,0.0,0.0,0.0,0.0,0.0,0.0,0.0,0.0,0.0,0.0,0.0,0.0,0.0,0.0,0.0,0.0,0.0,0.0,0.0,0.0,0.0,0.0,0.0,0.0,0.0,0.0,0.0,0.0,0.0,0.0,0.0,0.0,0.0,0.0,0.0,0.0,0.0,0.0,0.0,0.0,0.0,0.0,0.0,0.0,0.0,0.0,0.0,0.0,0.0,0.0,0.0,0.0,0.0,0.0,0.0,0.0,0.0,0.0,0.0,0.0,0.0,0.0,0.0,0.0,0.0,0.0,0.0,0.0,0.0,0.0,0.0,0.0,0.0,0.0,0.0,0.0,0.0,0.0,0.0,0.0,0.0,0.0,0.0,0.0,0.0,0.0,0.0,0.0,0.0,0.0,0.0,0.0,0.0,0.0,0.0,0.0,0.0,0.0,-0.4011,-0.4166,-0.4293,-0.4383,-0.4381,-0.4077,-0.3803,0.0,0.0,0.0,0.0,0.0,0.0,0.0,0.0,0.0,0.0,0.0,0.0,0.0,0.0,0.0,0.0,0.0,0.0,0.0,0.0,0.0,0.0,0.0,0.0,0.0,0.0,0.0,0.0,0.0,0.0,0.0,0.0,0.0,0.0,0.0,0.0,0.0,0.0,0.0,0.0,0.0,0.0,0.0,0.0,0.0,0.0,0.0,0.0,0.6958,0.0,0.0,0.0,0.0,0.0,0.0,0.0,0.0,0.0,0.0,0.0,0.0,0.0,0.0,0.0,0.0,0.0,0.0,0.0,0.0,0.0,0.0,0.0,0.0,0.0,0.0,0.0,0.0,0.0,0.0,0.0,0.0,0.0,0.0,0.0,0.0,0.0,0.0,0.0,0.0,0.0,0.0,0.0,0.0,0.0,0.0,0.0,0.0,0.0,0.0,0.0,0.0,0.0,0.0,0.0,0.0,0.0,0.0,0.0,-0.4182,-0.4291,-0.4365,-0.4432,-0.4462,-0.4215,-0.3942,0.0,0.0,0.0,0.0,0.0,0.0,0.0,0.0,0.0,0.0,0.0,0.0,0.0,0.0,0.0,0.0,0.0,0.0,0.0,0.0,0.0,0.0,0.0,0.0,0.0,0.0,0.0,0.0,0.0,0.0,0.0,0.0,0.0,0.0,0.0,0.0,0.0,0.0,0.0,0.0,0.0,0.0,0.0,0.0,0.0,0.0,0.0,0.0,0.0,0.0,0.0,0.0,0.0,0.0,0.0,0.0,0.0,0.0,0.0,0.0,0.0,0.0,0.0,0.0,0.0,0.0,0.0,0.0,0.0,0.0,0.0,0.0,0.0,0.0,0.0,0.0,0.0,0.0,0.0,0.0,0.0,0.0,0.0,0.0,0.0,0.0,0.0,0.0,0.0,0.0,0.0,0.0,0.0,0.0,0.0,0.0,0.0,0.0,0.0,0.0,0.0,0.0,0.0,0.0,0.0,0.0,0.0,-0.4163,-0.4355,-0.4442,-0.4434,-0.4493,-0.4589,-0.4349,-0.4099,-0.3794,0.0,0.0,0.0,0.0,0.0,0.0,0.0,0.0,0.0,0.0,0.0,0.0,0.0,0.0,0.0,0.0,0.0,0.0,0.0,0.0,0.0,0.0,0.0,0.0,0.0,0.0,0.0,0.0,0.0,0.0,0.0,0.0,0.0,0.0,0.0,0.0,0.0,0.0,0.3805,0.4727,0.0,0.0,0.0,0.0,0.0,0.0,0.0,0.0,0.6436,0.0,0.0,0.0,0.0,0.0,0.0,0.0,0.0,0.0,0.0,0.0,0.0,0.0,0.0,0.0,0.0,0.0,0.0,0.0,0.0,0.0,0.0,0.0,0.0,0.0,0.0,0.0,0.0,0.0,0.0,0.0,0.0,0.0,0.0,0.0,0.0,0.0,0.0,0.0,0.0,0.0,0.0,0.0,0.0,0.0,0.0,0.0,0.0,0.0,0.0,0.0,0.0,0.0,0.0,0.0,0.0,-0.4128,-0.4311,-0.445,-0.4564,-0.4572,-0.458,-0.4591,-0.4404,-0.4137,-0.3781,0.0,0.0,0.0,0.0,0.0,0.0,0.0,0.0,0.0,0.0,0.0,0.0,0.0,0.0,0.0,0.0,0.0,0.0,0.0,0.0,0.0,0.0,0.0,0.0,0.0,0.0,0.0,0.0,0.0,0.0,0.0,0.0,0.0,0.0,0.0,0.0,0.0,0.0,0.0,0.4632,0.5354,0.0,0.0,0.0,0.0,0.0,0.0,0.0,0.0,0.6245,0.0,0.0,0.0,0.0,0.0,0.0,0.0,0.0,0.0,0.0,0.0,0.0,0.0,0.0,0.0,0.0,0.0,0.0,0.0,0.0,0.0,0.0,0.0,0.0,0.0,0.0,0.0,0.0,0.0,0.0,0.0,0.0,0.0,0.0,0.0,0.0,0.0,0.0,0.0,0.0,0.0,0.0,0.0,0.0,0.0,0.0,0.0,0.0,0.0,0.0,0.0,0.0,0.0,0.0,0.0,-0.4238,-0.4467,-0.4576,-0.4612,-0.4619,-0.4619,-0.4612,-0.4306,-0.4036,0.0,0.0,0.0,0.0,0.0,0.0,0.0,0.0,0.0,0.0,0.0,0.0,0.0,0.0,0.0,0.0,0.0,0.0,0.0,0.0,0.0,0.0,0.0,0.0,0.0,0.0,0.0,0.0,0.0,0.0,0.0,0.0,0.0,0.0,0.0,0.0,0.0,0.0,0.0,0.0,0.5038,0.5713,0.5858,0.0,0.0,0.0,0.0,0.0,0.0,0.6611,0.6045,0.0,0.0,0.0,0.0,0.0,0.0,0.0,0.0,0.0,0.0,0.0,0.0,0.0,0.0,0.0,0.0,0.0,0.0,0.0,0.0,0.0,0.0,0.0,0.0,0.0,0.0,0.0,0.0,0.0,0.0,0.0,0.0,0.0,0.0,0.0,0.0,0.0,0.0,0.0,0.0,0.0,0.0,0.0,0.0,0.0,0.0,0.0,0.0,0.0,0.0,0.0,0.0,0.0,0.0,0.0,-0.425,-0.4537,-0.4648,-0.4614,-0.4619,-0.4619,-0.4589,-0.4218,-0.3886,0.0,0.0,0.0,0.0,0.0,0.0,0.0,0.0,0.0,0.0,0.0,0.0,0.0,0.0,0.0,0.0,0.0,0.0,0.0,0.0,0.0,0.0,0.0,0.0,0.0,0.0,0.0,0.0,0.0,0.0,0.0,0.0,0.0,0.0,0.0,0.0,0.0,0.0,0.0,0.0,0.0,0.6188,0.663,0.688,0.0,0.0,0.0,0.0,0.637,0.617,0.0,0.0,0.0,0.0,0.0,0.0,0.0,0.0,0.0,0.0,0.0,0.0,0.0,0.0,0.0,0.0,0.0,0.0,0.0,0.0,0.0,0.0,0.0,0.0,0.0,0.0,0.0,0.0,0.0,0.0,0.0,0.0,0.0,0.0,0.0,0.0,0.0,0.0,0.0,0.0,0.0,0.0,0.0,0.0,0.0,0.0,0.0,0.0,0.0,0.0,0.0,0.0,0.0,0.0,0.0,0.0,-0.4036,-0.4409,-0.4605,-0.461,-0.4619,-0.4619,-0.4616,-0.4326,-0.3739,0.0,0.0,0.0,0.0,0.0,0.0,0.0,0.0,0.0,0.0,0.0,0.0,0.0,0.0,0.0,0.0,0.0,0.0,0.0,0.0,0.0,0.0,0.0,0.0,0.0,0.0,0.0,0.0,0.0,0.0,0.0,0.0,0.0,0.0,0.0,0.0,0.0,0.0,0.0,0.0,0.0,0.6751,0.6712,0.6716,0.6878,0.0,0.0,0.6753,0.6377,0.6658,0.0,0.0,0.0,0.0,0.0,0.0,0.0,0.0,0.0,0.0,0.0,0.0,0.0,0.0,0.0,0.0,0.0,0.0,0.0,0.0,0.0,0.0,0.0,0.0,0.0,0.0,0.0,0.0,0.0,0.0,0.0,0.0,0.0,0.0,0.0,0.0,0.0,0.0,0.0,0.0,0.0,0.0,0.0,0.0,0.0,0.0,0.0,0.0,0.0,0.0,0.0,0.0,0.0,0.0,0.0,-0.3726,-0.4003,-0.4395,-0.461,-0.4616,-0.4619,-0.4619,-0.4619,-0.4212,-0.3632,0.0,0.0,0.0,0.0,0.0,0.0,0.0,0.0,0.0,0.0,0.0,0.0,0.0,0.0,0.0,0.0,0.0,0.0,0.0,0.0,0.0,0.0,0.0,0.0,0.0,0.0,0.0,0.0,0.0,0.0,0.0,0.0,0.0,0.0,0.0,0.0,0.0,0.0,0.0,0.0,0.0,0.0,0.7076,0.6939,0.0,0.0,0.0,0.6955,0.6777,0.0,0.0,0.0,0.0,0.0,0.0,0.0,0.0,0.0,0.0,0.0,0.0,0.0,0.0,0.0,0.0,0.0,0.0,0.0,0.0,0.0,0.0,0.0,0.0,0.0,0.0,0.0,0.0,0.0,0.0,0.0,0.0,0.0,0.0,0.0,0.0,0.0,0.0,0.0,0.0,0.0,0.0,0.0,0.0,0.0,0.0,0.0,0.0,0.0,0.0,0.0,0.0,0.0,0.0,0.0,0.0,0.0,-0.3981,-0.4375,-0.4607,-0.463,-0.4607,-0.4619,-0.4612,-0.4201,0.0,0.0,0.0,0.0,0.0,0.0,0.0,0.0,0.0,0.0,0.0,0.0,0.0,0.0,0.0,0.0,0.0,0.0,0.0,0.0,0.0,0.0,0.0,0.0,0.0,0.0,0.0,0.0946,0.0,0.0,0.0,0.0,0.0,0.0,0.0,0.0,0.0,0.0,0.0,0.0,0.0,0.0,0.7048,0.7406,0.7336,0.7306,0.0,0.0,0.7188,0.661,0.6199,0.5731,0.0,0.0,0.0,0.0,0.0,0.0,0.0,0.0,0.0,0.0,0.0,0.0,0.0,0.0,0.0,0.0,0.0,0.0,0.0,0.0,0.0,0.0,0.0,0.0,0.0,0.0,0.0,0.0,0.0,0.0,0.0,0.0,0.0,0.0,0.0,0.0,0.0,0.0,0.0,0.0,0.0,0.0,0.0,0.0,0.0,0.0,0.0,0.0,0.0,0.0,0.0,0.0,0.0,0.0,0.0,-0.3916,-0.4363,-0.4638,-0.4694,-0.464,-0.4619,-0.4591,-0.4344,-0.3716,0.0,0.0,0.0,0.0,0.0,0.0,0.0,0.0,0.0,0.0,0.0,0.0,0.0,0.0,0.0,0.0,0.0,0.0,0.0,0.0,0.0,0.0,0.0,0.0,0.0,0.0,0.0,0.0,0.0,0.0,0.0,0.0,0.0,0.0,0.0,0.0,0.0,0.0,0.0,0.0,0.0,0.7546,0.758,0.7951,0.8133,0.0,0.0,0.7463,0.5297,0.5924,0.6006,0.4152,0.0,0.0,0.0,0.0,0.0,0.0,0.0,0.0,0.0,0.0,0.0,0.0,0.0,0.0,0.0,0.0,0.0,0.0,0.0,0.0,0.0,0.0,0.0,0.0,0.0,0.0,0.0,0.0,0.0,0.0,0.0,0.0,0.0,0.0,0.0,0.0,0.0,0.0,0.0,0.0,0.0,0.0,0.0,0.0,0.0,0.0,0.0,0.0,0.0,0.0,0.0,0.0,0.0,-0.363,-0.392,-0.4342,-0.4642,-0.47,-0.4644,-0.4619,-0.4619,-0.4334,-0.3729,0.0,0.0,0.0,0.0,0.0,0.0,0.0,0.0,0.0,0.0,0.0,0.0,0.0,0.0,0.0,0.0,0.0,0.0,0.0,0.0,0.0,0.0,0.0,0.0,0.0,0.0,0.0,0.0,0.1192,0.1209,0.1198,0.0,0.0,0.0,0.0,0.0,0.0,0.0,0.0,0.0,0.0,0.6449,0.7341,0.7639,0.0,0.0,0.8438,0.8674,0.7776,0.7345,0.688,0.6142,0.6067,0.0,0.0,0.0,0.0,0.0,0.0,0.0,0.0,0.0,0.0,0.0,0.0,0.0,0.0,0.0,0.0,0.0,0.0,0.0,0.0,0.0,0.0,0.0,0.0,0.0,0.0,0.0,0.0,0.0,0.0,0.0,0.0,0.0,0.0,0.0,0.0,0.0,0.0,0.0,0.0,0.0,0.0,0.0,0.0,0.0,0.0,0.0,0.0,0.0,0.0,0.0,0.0,-0.3644,-0.3938,-0.4379,-0.4628,-0.4743,-0.4659,-0.4624,-0.4593,-0.4363,-0.3758,0.0,0.0,0.0,0.0,0.0,0.0,0.0,0.0,0.0,0.0,0.0,0.0,0.0,0.0,0.0,0.0,0.0,0.0,0.0,0.0,0.0,0.0,0.0,0.0,0.0,0.0,0.0,0.0,0.1431,0.1479,0.1484,0.0,0.0,0.0,0.0,0.0,0.0,0.0,0.0,0.0,0.0,0.5864,0.7317,0.7557,0.775,0.8195,0.8964,0.9391,0.8972,0.8156,0.7516,0.7372,0.0,0.0,0.0,0.0,0.0,0.0,0.0,0.0,0.0,0.0,0.0,0.0,0.0,0.0,0.0,0.0,0.0,0.0,0.0,0.0,0.0,0.0,0.0,0.0,0.0,0.0,0.0,0.0,0.0,0.0,-0.3414,0.0,0.0,0.0,0.0,0.0,0.0,0.0,0.0,0.0,0.0,0.0,0.0,0.0,0.0,0.0,0.0,0.0,0.0,0.0,0.0,0.0,0.0,-0.3658,-0.3988,-0.4412,-0.4657,-0.4797,-0.4724,-0.4661,-0.4599,-0.4479,-0.3829,-0.266,0.0,0.0,0.0,0.0,0.0,0.0,0.0,0.0,0.0,0.0,0.0,0.0,0.0,0.0,0.0,0.0,0.0,0.0,0.0,0.0,0.0,0.0,0.0,0.0,0.0,0.0,0.1325,0.1483,0.1616,0.0,0.0,0.0,0.0,0.0,0.0,0.0,0.0,0.0,0.0,0.5375,0.6118,0.7547,0.788,0.8311,0.9491,0.9719,0.9305,0.7992,0.7887,0.7764,0.0,0.0,0.0,0.0,0.0,0.0,0.0,0.0,0.0,0.0,0.0,0.0,0.0,0.0,0.0,0.0,0.0,0.0,0.0,0.0,0.0,0.0,0.0,0.0,0.0,0.0,0.0,-0.4123,-0.4007,0.0,0.0,0.0,0.0,0.0,0.0,0.0,0.0,0.0,0.0,0.0,-0.4458,-0.4327,0.0,0.0,0.0,0.0,0.0,0.0,0.0,0.0,0.0,0.0,0.0,0.0,-0.3713,-0.3994,-0.4414,-0.4681,-0.4801,-0.4728,-0.4667,-0.4599,-0.446,-0.4101,-0.3499,0.0,0.0,0.0,0.0,0.0,0.0,0.0,0.0,0.0,0.0,0.0,0.0,0.0,0.0,0.0,0.0,0.0,0.0,0.0,0.0,0.0,0.0,0.0,0.0,0.0,0.1615,0.0,0.0,0.0,0.0,0.0,0.0,0.0,0.0,0.0,0.0,0.0,0.5194,0.6853,0.5378,0.4912,0.7051,0.6732,0.6728,0.0,0.0,0.0,0.0,0.0,0.0,0.0,0.0,0.0,0.0,0.0,0.0,0.0,0.0,0.9961,0.8829,0.8533,0.8598,0.8983,0.0,0.0,0.0,0.0,0.0,0.0,0.0,0.0,0.0,0.0,0.0,0.0,0.0,0.0,-0.4656,0.0,-0.4459,0.0,0.0,0.0,0.0,0.0,0.0,0.0,0.0,-0.5435,-0.5455,-0.5172,-0.5297,-0.511,0.0,-0.4359,-0.356,0.0,0.0,0.0,0.0,0.0,0.0,0.0,0.0,-0.3808,-0.4081,-0.4457,-0.4689,-0.4799,-0.4757,-0.471,-0.462,-0.4173,-0.3813,-0.3583,-0.2205,-0.1273,0.0,0.0,0.0,0.0,0.0,0.0,0.0,0.0,0.0,0.0,0.0,0.0,0.0,0.0,0.0,0.0,0.0,0.0,0.0,0.0,0.0,0.0,0.0,0.1795,0.0,0.0,0.0,0.0,0.0,0.0,0.0,0.0,0.0,0.3469,0.3901,0.4775,0.629,0.4763,0.4236,0.6241,0.0,0.0,0.0,0.0,0.0,0.0,0.0,0.7618,0.689,0.7863,0.8487,0.7764,0.889,0.9939,1.0158,0.0,0.0,0.9801,0.9598,0.97,1.0237,1.0842,1.1221,1.0999,1.1448,1.1727,0.0,0.0,0.0,0.0,0.0,0.0,0.0,0.0,-0.5247,-0.5207,0.0,-0.4852,0.0,0.0,0.0,0.0,0.0,-0.6311,0.0,0.0,-0.7571,-0.7227,-0.613,-0.6197,-0.5745,-0.482,-0.4766,-0.46,-0.433,-0.3833,0.0,0.0,0.0,0.0,0.0,0.0,-0.3948,-0.4218,-0.4526,-0.4724,-0.478,-0.4782,-0.4765,-0.4675,-0.3633,-0.3099,-0.3021,-0.21,-0.1198,-0.0443,-0.0411,0.0,0.0,0.0,0.0,0.0,0.0,0.0,0.0,0.0,0.0,0.0,0.0,0.0,0.0,0.0,0.0,0.0,0.0,0.0,0.0,0.1801,0.0,0.0,0.0,0.0,0.0,0.0,0.0,0.0,0.0,0.0,0.3067,0.3924,0.4309,0.3727,0.0,0.0,0.0,0.0,0.5818,0.6897,0.7086,0.7038,0.6986,0.718,0.7232,0.6983,0.0,0.0,0.697,0.7729,0.8602,0.9113,0.9599,1.0185,1.1347,1.1179,1.1093,1.1557,1.1576,1.1554,1.1714,1.2115,1.239,-0.8455,0.0,0.0,0.0,0.0,-0.5868,-0.5716,-0.5537,-0.6061,-0.6259,-0.6239,-0.6605,0.0,0.0,0.0,0.0,0.0,0.0,-0.7119,-0.7317,-0.7581,-0.7572,-0.7352,-0.7413,-0.7249,-0.6976,-0.6816,-0.6355,-0.5669,-0.5509,-0.4723,-0.3415,0.0,0.0,0.0,0.0,-0.4178,-0.4357,-0.4566,-0.4724,-0.4782,-0.4782,-0.4763,-0.4638,-0.4217,-0.398,-0.3917,-0.3012,-0.2419,-0.2203,-0.0946,0.0,0.0,0.0,0.0,0.0,0.0,0.0,0.0,0.0,0.0,0.0,0.0,0.0,0.0,0.0,0.0,0.0,0.0,0.0,0.0597,0.083,0.0911,0.0,0.0,0.0,0.0,0.0,0.0,0.0,0.0,0.0,0.3472,0.3669,0.4068,0.0,0.0,0.4055,0.5234,0.4761,0.4722,0.5907,0.5403,0.0,0.6009,0.5991,0.5623,0.4874,0.5979,0.7352,0.8572,0.9114,0.9423,0.9597,0.9718,0.9989,1.0573,1.1474,1.1977,1.2082,1.2378,1.2643,1.2598,1.2958,1.325,-1.167,-1.018,-0.9188,-0.8171,-0.7263,-0.7214,-0.7112,-0.7009,-0.7445,-0.761,-0.7547,-0.7822,-0.7708,-0.7324,-0.7282,0.0,0.0,0.0,-0.8262,-0.8596,-0.866,-0.864,-0.8509,-0.8492,-0.8298,-0.7931,-0.7776,-0.7423,-0.6852,-0.6802,-0.5981,-0.4513,0.0,0.0,-0.3781,-0.4106,-0.4346,-0.4466,-0.4667,-0.4759,-0.4782,-0.4782,-0.4742,-0.463,-0.4538,-0.4447,-0.4334,-0.3776,-0.3306,-0.2978,-0.1907,-0.1019,0.0,0.0,0.0,0.0,0.0,0.0,0.0,0.0,0.0,0.0,0.0,-0.0269,0.0,0.0,0.0,0.0,0.0017,0.0089,-0.0019,0.0273,0.0,0.0,0.0,0.0,0.0,0.0,0.0,0.3173,0.3341,0.3511,0.3718,0.3694,0.3957,0.475,0.4203,0.402,0.4721,0.0,0.419,0.5195,0.4729,0.4609,0.5624,0.5685,0.5352,0.4771,0.5873,0.7046,0.7911,0.8394,0.8778,0.9119,0.9207,0.9484,1.0334,1.1302,1.186,1.1686,1.2021,1.2293,1.217,1.2483,1.2791,-1.4393,-1.296,-1.0641,-0.9325,-0.8814,-0.8795,-0.8902,-0.9071,-0.9127,-0.9071,-0.8858,-0.8791,-0.8571,-0.8299,-0.8411,0.0,-0.8915,-0.9529,-1.0037,-1.0454,-1.0462,-1.0116,-0.9531,-0.9524,-0.9075,-0.8263,-0.8162,-0.8072,-0.8005,-0.7811,-0.7199,-0.6145,-0.5175,-0.4537,-0.427,-0.4356,-0.449,-0.463,-0.4763,-0.4819,-0.4819,-0.4813,-0.4767,-0.47,-0.464,-0.4524,-0.4405,-0.4336,-0.3899,-0.3067,-0.2997,-0.2242,-0.0628,0.0,0.0,0.0,0.0,0.0,0.0,0.0,0.0,0.0,0.0,0.0,0.0,0.0,0.0,0.0,0.0114,0.0,-0.0442,-0.0088,0.0,0.0,0.0,0.1058,0.1709,0.2254,0.2818,0.338,0.0,0.0,0.3885,0.3955,0.4047,0.4167,0.4127,0.4034,0.392,0.4062,0.4234,0.4766,0.4891,0.5109,0.5716,0.5876,0.5965,0.6012,0.6609,0.6818,0.6474,0.6737,0.738,0.8217,0.8297,0.8729,1.0313,1.058,1.0747,1.0578,1.093,1.1158,1.1193,1.1352,1.1775,-1.474,-1.3514,-1.2927,-1.1477,-0.9638,-0.9606,-0.9283,-0.8807,-0.9431,-0.9667,-0.9738,-1.1201,-1.2097,-1.2525,-1.2359,-1.1916,-1.1339,-1.1613,-1.1414,-1.087,-1.0948,-1.094,-1.0773,-1.065,-1.0507,-1.0296,-1.0131,-0.9694,-0.9057,-0.8985,-0.8454,-0.7469,-0.7194,-0.6213,-0.457,-0.4627,-0.4783,-0.4903,-0.4944,-0.4966,-0.4939,-0.4846,-0.4736,-0.4608,-0.4607,-0.4519,-0.4336,-0.4271,-0.4134,-0.3971,-0.3257,-0.2701,-0.2379,-0.1547,0.0,0.0,0.0,0.0,0.0,0.0,0.0,0.0,0.0,-0.103,-0.0718,0.0,-0.1377,0.0,-0.1105,-0.109,-0.115,-0.1101,0.0,0.0,0.0444,0.124,0.2145,0.2929,0.3503,0.3677,0.3786,0.4126,0.4784,0.489,0.5097,0.565,0.5077,0.4442,0.4005,0.4802,0.5267,0.4969,0.5341,0.5739,0.5894,0.5908,0.6186,0.6723,0.6985,0.7193,0.7596,0.7799,0.7991,0.8178,0.821,0.8399,0.8801,0.8836,0.8874,0.8948,1.0181,1.1404,1.1411,1.1494,1.1902,-1.5264,-1.4719,-1.4605,-1.3794,-1.2572,-1.1875,-1.1326,-1.0944,-1.1967,-1.2382,-1.2372,-1.3371,-1.4061,-1.4413,-1.4298,-1.3625,-1.2645,-1.2677,-1.2124,-1.1114,-1.1179,-1.1191,-1.1187,-1.1049,-1.0996,-1.0992,-1.0781,-1.0441,-1.0001,-1.0001,-0.9486,-0.858,-0.858,-0.7738,-0.6149,-0.6124,-0.6138,-0.61,-0.574,-0.5562,-0.556,-0.5124,-0.481,-0.464,-0.4617,-0.4509,-0.4306,-0.424,-0.4175,-0.4157,-0.3617,-0.3179,-0.2838,-0.2073,-0.1472,0.0,0.0,0.0,0.0,0.0,0.0,0.0,0.0,0.0,0.0,0.0,-0.1636,-0.156,-0.1572,-0.156,-0.1531,-0.1596,-0.1417,-0.0909,0.0217,0.1171,0.1777,0.2997,0.3861,0.3921,0.3957,0.4178,0.4629,0.4962,0.5297,0.5728,0.5767,0.5575,0.5053,0.5534,0.5889,0.5788,0.613,0.6542,0.6801,0.6867,0.7029,0.7474,0.7596,0.7743,0.8127,0.8202,0.8202,0.8202,0.8202,0.8202,0.8204,0.825,0.8283,0.8461,0.932,1.0094,1.0149,1.0195,1.0559,-1.6065,-1.6166,-1.593,-1.5913,-1.5961,-1.4787,-1.4172,-1.4023,-1.513,-1.5598,-1.5583,-1.5358,-1.5338,-1.5502,-1.5445,-1.4678,-1.3359,-1.3355,-1.2596,-1.1289,-1.1285,-1.1264,-1.1256,-1.1147,-1.1065,-1.1057,-1.0878,-1.0761,-1.0757,-1.0757,-1.037,-0.9643,-0.9625,-0.9161,-0.8327,-0.8211,-0.7961,-0.7563,-0.6772,-0.6403,-0.6455,-0.5686,-0.5172,-0.4964,-0.4888,-0.4722,-0.4425,-0.4352,-0.4188,-0.3972,-0.3947,-0.3553,-0.2681,-0.233,-0.1812,0.0,-0.0666,0.0,0.0,0.0,0.0,0.0,0.0,0.0,0.0,-0.1387,-0.1463,-0.1518,-0.1657,-0.1722,-0.1719,-0.1772,-0.1765,-0.1592,-0.0178,0.0944,0.1296,0.2792,0.3884,0.4088,0.41,0.4103,0.4318,0.4769,0.5153,0.549,0.6311,0.6706,0.6427,0.6311,0.6478,0.6964,0.7024,0.7276,0.7833,0.8061,0.8078,0.8172,0.8213,0.8248,0.8258,0.8258,0.8253,0.8256,0.8267,0.8261,0.8248,0.834,0.8402,0.8443,0.8613,0.8712,0.8601,0.865,0.8864,-1.7601,-1.7126,-1.7091,-1.6821,-1.6456,-1.7208,-1.6656,-1.5243,-1.551,-1.6168,-1.7037,-1.6748,-1.7212,-1.812,-1.7936,-1.6636,-1.4586,-1.4656,-1.3534,-1.1451,-1.1602,-1.1705,-1.1663,-1.1513,-1.1399,-1.1386,-1.1212,-1.1094,-1.109,-1.109,-1.1033,-1.0858,-1.0759,-1.0587,-1.0408,0.0,0.0,0.0,-0.7492,-0.7331,-0.7354,-0.6975,-0.6676,-0.6424,-0.6276,0.0,-0.5068,-0.4931,-0.4462,-0.3664,-0.3603,0.0,0.0,0.0,0.0,0.0,0.0,0.0,0.0,0.0,0.0,0.0,-0.1445,-0.1412,-0.1392,-0.1529,-0.1652,-0.1671,-0.1726,-0.178,-0.1786,-0.1845,-0.1554,-0.0747,-0.0399,0.0438,0.2074,0.2667,0.3158,0.3999,0.4137,0.4374,0.487,0.5122,0.5575,0.6458,0.6937,0.7209,0.7521,0.7472,0.7355,0.7075,0.7451,0.7908,0.8153,0.8288,0.8359,0.8391,0.8467,0.8513,0.8513,0.8513,0.8516,0.8511,0.8519,0.8513,0.8516,0.8541,0.8546,0.8554,0.8571,0.8615,0.8562,0.8554,0.9121,-1.847,0.0,-1.8419,-1.8429,0.0,-1.9109,-1.8716,-1.766,-1.7666,-1.7958,-1.8425,-1.8256,-1.8551,-1.9132,-1.902,-1.7583,-1.5248,-1.5308,-1.4016,-1.1702,-1.1766,-1.1806,-1.1802,-1.1585,-1.15,-1.1492,-1.1309,-1.1191,-1.1191,-1.1191,-1.1191,-1.1191,-1.1135,-1.1094,-1.109,-1.0919,-1.0323,-0.9305,-0.8665,-0.8348,-0.8368,-0.7593,-0.7104,-0.6894,-0.6358,0.0,0.0,0.0,0.0,0.0,0.0,0.0,0.0,0.0,0.0,-0.2645,-0.224,-0.2003,-0.2047,-0.1976,-0.1975,-0.2028,-0.2105,-0.1989,-0.1573,-0.1667,-0.1756,-0.1814,-0.183,-0.1862,-0.1907,-0.1935,-0.1744,-0.1232,-0.0781,-0.0032,0.0988,0.1969,0.276,0.329,0.3802,0.4241,0.4562,0.5219,0.5749,0.6456,0.7173,0.7656,0.7944,0.7993,0.7851,0.7603,0.7899,0.8274,0.8391,0.8513,0.8619,0.8635,0.8682,0.8677,0.8713,0.8661,0.862,0.862,0.862,0.862,0.862,0.862,0.862,0.862,0.862,0.862,0.862,0.862,0.905,-1.9332,-2.0011,-1.9744,-2.0083,-2.078,-2.0558,-2.0213,-1.9866,0.0,0.0,0.0,-1.9395,-1.9278,-1.9068,-1.9068,-1.7672,-1.5332,-1.5273,-1.4033,-1.1837,-1.1806,-1.1806,-1.1798,-1.1622,-1.1549,-1.1541,-1.139,-1.1321,-1.1317,-1.1317,-1.1292,-1.1317,-1.126,-1.1224,-1.1187,-1.1082,-1.0968,-1.0754,-0.9814,-0.9352,-0.9379,-0.8322,-0.7649,-0.745,-0.6552,-0.5873,-0.5418,-0.4863,-0.4346,-0.3837,-0.382,-0.3709,-0.3421,-0.3124,-0.2994,-0.2964,-0.2716,-0.2598,-0.2597,-0.2684,-0.2748,-0.272,-0.282,-0.2609,-0.1931,-0.19,-0.1943,-0.1995,-0.1939,-0.1949,-0.1974,-0.2012,-0.2024,-0.1985,-0.1264,-0.07,-0.0354,0.0966,0.2093,0.2565,0.3272,0.381,0.4019,0.5002,0.5794,0.6062,0.7031,0.8029,0.813,0.8175,0.8182,0.8285,0.8391,0.8519,0.8636,0.8755,0.8864,0.8873,0.8875,0.886,0.8803,0.8721,0.8619,0.862,0.862,0.862,0.862,0.862,0.862,0.862,0.862,0.862,0.862,0.862,0.905,-2.0881,-2.101,-2.0974,-2.1003,-2.1117,-2.1089,-2.0737,-2.0191,-1.9678,-1.9424,-1.9395,-1.9395,-1.88,-1.7783,-1.7783,-1.6356,-1.4023,-1.3968,-1.3195,-1.1837,-1.1806,-1.1806,-1.1806,-1.1748,-1.1766,-1.1766,-1.1737,-1.1725,-1.1729,-1.1695,-1.1729,-1.1705,-1.1541,-1.1382,-1.1232,-1.1196,-1.1147,-1.1106,-1.0539,-1.0218,-1.0241,-0.9937,-0.9568,-0.9146,-0.8528,-0.7727,-0.6692,-0.6029,-0.5223,-0.4264,-0.4056,-0.3787,-0.3429,-0.3362,-0.3331,-0.3342,-0.3293,-0.3278,-0.3339,-0.3356,-0.3299,-0.3133,-0.3185,-0.307,-0.2676,-0.2486,-0.2417,-0.2398,-0.2152,-0.1972,-0.2008,-0.2029,-0.2014,-0.2022,-0.1915,-0.1512,-0.058,-0.0129,0.0737,0.2249,0.2686,0.3137,0.3787,0.4601,0.542,0.6006,0.6926,0.7605,0.8296,0.8426,0.8467,0.8636,0.874,0.8772,0.8835,0.8965,0.9003,0.8927,0.8992,0.8995,0.8829,0.8795,0.8704,0.8606,0.8626,0.862,0.862,0.862,0.862,0.862,0.862,0.862,0.862,0.8653,0.925,-2.1211,-2.1211,-2.1211,-2.1211,-2.1182,-2.0859,-2.0565,-2.0248,-1.9655,-1.9395,-1.9395,-1.9395,-1.9068,-1.8561,-1.8525,-1.7513,-1.5765,-1.5765,-1.4703,-1.29,-1.2844,-1.2457,-1.1867,-1.1806,-1.1893,-1.2005,-1.1863,-1.1893,-1.1975,-1.1893,-1.1806,-1.1798,-1.1721,-1.165,-1.1616,-1.1468,-1.137,-1.1362,-1.1005,-1.079,-1.0724,-1.0279,-0.9888,-0.9556,-0.866,-0.7816,-0.7041,-0.6443,-0.575,-0.4914,-0.4852,-0.4675,-0.4349,-0.4343,-0.437,-0.4395,-0.45,-0.4555,-0.4593,-0.449,-0.4372,-0.4298,-0.4015,-0.3785,-0.3605,-0.2921,-0.2497,-0.2498,-0.2191,-0.2014,-0.2028,-0.2011,-0.1999,-0.2033,-0.2099,-0.1903,-0.1353,-0.0768,-0.0095,0.0843,0.19,0.2704,0.3088,0.456,0.5671,0.6235,0.7193,0.8212,0.8763,0.8803,0.8778,0.8867,0.8921,0.8984,0.9011,0.9114,0.9155,0.9111,0.91,0.9057,0.8967,0.888,0.8792,0.8727,0.8669,0.8626,0.862,0.862,0.862,0.862,0.862,0.862,0.862,0.9017,1.0011,-2.1211,-2.1211,-2.1211,-2.1211,-2.1153,-2.0565,-2.0299,-2.0248,-1.9678,-1.9395,-1.9395,-1.9395,-1.9243,-1.8981,-1.8975,-1.8269,-1.7191,-1.7073,-1.6002,-1.4257,-1.4143,-1.3614,-1.2702,-1.2401,-1.2363,-1.2535,-1.2126,-1.2036,-1.2268,-1.21,-1.1953,-1.1893,-1.1837,-1.1876,-1.1936,-1.1703,-1.1565,-1.1553,-1.1419,-1.1244,-1.1033,-1.0468,-1.0058,-0.9711,-0.877,-0.7995,-0.7498,-0.6961,-0.6448,-0.601,-0.5951,-0.5845,-0.5682,-0.5726,-0.5744,-0.5757,-0.5883,-0.5994,-0.5946,-0.5848,-0.5706,-0.564,-0.508,-0.4702,-0.4481,-0.3428,-0.2683,-0.259,-0.2253,-0.2017,-0.2003,-0.2015,-0.2037,-0.2082,-0.2068,-0.2053,-0.1986,-0.133,-0.0719,-0.0371,0.0894,0.1942,0.2873,0.446,0.5966,0.6891,0.7999,0.8817,0.9049,0.9117,0.9092,0.9046,0.9076,0.9128,0.9144,0.9203,0.9288,0.9304,0.9198,0.9133,0.9103,0.8962,0.8831,0.8817,0.8729,0.8664,0.8631,0.862,0.862,0.862,0.862,0.862,0.8653,0.912,1.0107,-2.1211,-2.1211,-2.1211,-2.1211,-2.1117,-2.0565,-2.0299,-2.0213,-1.9655,-1.9395,-1.9395,-1.9395,-1.8765,-1.7783,-1.7777,-1.7132,-1.6013,-1.5811,-1.5717,-1.548,-1.5421,-1.5367,-1.5011,-1.4023,-1.367,-1.3729,-1.2715,-1.2328,-1.2659,-1.2629,-1.2453,-1.2182,-1.1919,-1.1819,-1.1801,-1.1798,-1.1778,-1.1782,-1.1736,-1.1553,-1.1195,-1.1126,-1.0823,-1.0234,-0.9871,-0.9368,-0.8604,-0.8057,-0.7711,-0.7677,-0.7421,-0.734,-0.7342,-0.7371,-0.7379,-0.7371,-0.7369,-0.7417,-0.7391,-0.7407,-0.721,-0.7035,-0.6402,-0.5782,-0.5244,-0.4095,-0.3269,-0.293,-0.2377,-0.2041,-0.2012,-0.2004,-0.2023,-0.2036,-0.2031,-0.2023,-0.1989,-0.1935,-0.1515,-0.0586,-0.0247,0.0647,0.2656,0.4135,0.5772,0.7921,0.8544,0.8962,0.909,0.9217,0.9269,0.9258,0.9283,0.928,0.928,0.9291,0.9304,0.9304,0.9296,0.9242,0.913,0.9079,0.9008,0.887,0.8811,0.8757,0.8669,0.862,0.8592,0.862,0.862,0.862,0.862,0.8753,0.928,-2.1211,-2.1211,-2.1211,-2.1211,-2.1117,-2.0565,-2.0299,-2.0241,-1.9649,-1.9395,-1.9395,-1.9395,-1.9127,-1.8619,-1.8619,-1.8327,-1.7854,-1.7824,-1.7431,-1.6779,-1.6721,-1.6338,-1.5515,-1.4287,-1.4028,-1.448,-1.2985,-1.2599,-1.3114,-1.2904,-1.2595,-1.2382,-1.215,-1.1999,-1.191,-1.1855,-1.1806,-1.1806,-1.1806,-1.1699,-1.1561,-1.13,-1.0868,-1.0341,-1.0044,-0.956,-0.8925,-0.8599,-0.8423,-0.8273,-0.8161,-0.8098,-0.8119,-0.8148,-0.8151,-0.8125,-0.8225,-0.8302,-0.8348,-0.7992,-0.7654,-0.7342,-0.6526,-0.5786,-0.5143,-0.4102,-0.3362,-0.2992,-0.2407,-0.2013,-0.203,-0.2011,-0.2026,-0.2038,-0.2029,-0.2018,-0.2018,-0.2024,-0.1791,-0.1419,-0.0863,-0.0093,0.1442,0.3621,0.6043,0.8237,0.8971,0.9128,0.9231,0.9275,0.9296,0.9304,0.9304,0.9304,0.9304,0.9304,0.9304,0.9304,0.9304,0.9272,0.9245,0.913,0.9054,0.8989,0.8924,0.8834,0.8754,0.8727,0.8682,0.8664,0.862,0.862,0.862,0.862,0.8851,-2.1211,-2.1211,-2.1211,-2.1211,-2.1153,-2.0615,-2.0357,-2.0241,-1.9735,-1.9482,-1.9395,-1.9395,-1.9395,-1.9395,-1.9395,-1.9395,-1.9395,-1.9395,-1.8917,-1.8081,-1.8023,-1.7525,-1.655,-1.5356,-1.5035,-1.5254,-1.3879,-1.329,-1.3718,-1.3174,-1.2794,-1.2682,-1.2457,-1.2245,-1.2084,-1.1946,-1.1863,-1.1806,-1.1806,-1.1806,-1.1756,-1.1467,-1.1069,-1.0596,-1.0288,-0.9852,-0.9327,-0.9183,-0.9062,-0.8879,-0.8846,-0.8846,-0.8846,-0.8846,-0.8849,-0.8856,-0.8944,-0.8985,-0.9001,-0.8543,-0.8086,-0.7658,-0.6804,-0.5976,-0.5177,-0.4224,-0.3454,-0.3023,-0.2376,-0.2017,-0.2002,-0.2007,-0.2018,-0.2067,-0.2018,-0.2007,-0.2005,-0.2018,-0.2008,-0.1945,-0.1389,-0.0528,0.0635,0.3396,0.6351,0.7869,0.8793,0.928,0.9296,0.9302,0.9304,0.9304,0.9304,0.9304,0.9304,0.9304,0.9304,0.9304,0.9304,0.9304,0.9304,0.9223,0.9114,0.9082,0.9,0.8903,0.8785,0.8787,0.8759,0.8664,0.862,0.862,0.862,0.862,0.862,-2.1211,-2.1211,-2.1211,-2.1211,-2.1182,-2.0838,-2.0522,-2.027,-1.9931,-1.9649,-1.9424,-1.9395,-1.9395,-1.9395,-1.9395,-1.9395,-1.9395,-1.9395,-1.9366,-1.9185,-1.9243,-1.9249,-1.9156,-1.7929,-1.7132,-1.6732,-1.5372,-1.455,-1.4142,-1.3534,-1.3179,-1.3158,-1.2814,-1.2518,-1.2263,-1.2186,-1.2066,-1.1863,-1.1806,-1.1806,-1.1806,-1.1764,-1.1559,-1.1252,-1.091,-1.0529,-1.0208,-0.9916,-0.9734,-0.9731,-0.969,-0.9697,-0.9701,-0.9697,-0.966,-0.9694,-0.9707,-0.9569,-0.9302,-0.9153,-0.8879,-0.8327,-0.7536,-0.6832,-0.5724,-0.4529,-0.3606,-0.3053,-0.2408,-0.201,-0.2012,-0.2015,-0.2015,-0.2017,-0.2014,-0.2012,-0.2011,-0.2011,-0.2008,-0.2008,-0.1858,-0.0941,0.0899,0.3889,0.5819,0.7068,0.8218,0.9155,0.9283,0.9304,0.9304,0.9304,0.9304,0.9304,0.9304,0.9304,0.9304,0.9304,0.9304,0.9304,0.9304,0.9285,0.9226,0.9144,0.9111,0.9006,0.8856,0.8778,0.8732,0.8669,0.8628,0.862,0.862,0.862,0.862,-2.1211,-2.1211,-2.1211,-2.1211,-2.1175,-2.0838,-2.0551,-2.0277,-1.996,-1.9649,-1.9424,-1.9395,-1.9395,-1.9395,-1.9395,-1.9395,-1.9395,-1.9395,-1.9395,-1.9395,-1.9395,-1.9395,-1.9272,-1.811,-1.7572,-1.7343,-1.5906,-1.4788,-1.4232,-1.3958,-1.3629,-1.3234,-1.3084,-1.284,-1.2539,-1.2328,-1.2148,-1.2031,-1.1893,-1.1806,-1.1806,-1.1806,-1.1742,-1.1617,-1.1065,-1.0637,-1.0304,-0.997,-0.9788,-0.9788,-0.9788,-0.9788,-0.9788,-0.9788,-0.9788,-0.9761,-0.9579,-0.9427,-0.9275,-0.8943,-0.8458,-0.7811,-0.7138,-0.6344,-0.5329,-0.4286,-0.3454,-0.2992,-0.2377,-0.2038,-0.2008,-0.2008,-0.2008,-0.2008,-0.2008,-0.2008,-0.2008,-0.2008,-0.2008,-0.1982,-0.1819,-0.0931,0.0922,0.3252,0.5235,0.6666,0.8197,0.9104,0.9285,0.9304,0.9304,0.9304,0.9304,0.9304,0.9304,0.9304,0.9304,0.9304,0.9304,0.9304,0.9304,0.9304,0.9256,0.9247,0.9228,0.9095,0.8938,0.8736,0.8718,0.8661,0.8623,0.8647,0.862,0.8628,0.8617,-2.1211,-2.1211,-2.1211,-2.1211,-2.1175,-2.096,-2.0644,-2.0299,-2.0046,-1.9764,-1.9453,-1.9395,-1.9395,-1.9395,-1.9395,-1.9395,-1.9395,-1.9395,-1.9395,-1.9395,-1.9395,-1.9395,-1.9272,-1.8496,-1.8017,-1.7642,-1.6118,-1.5032,-1.465,-1.4321,-1.3963,-1.3564,-1.3414,-1.32,-1.284,-1.2539,-1.2328,-1.2178,-1.1923,-1.1806,-1.1806,-1.1806,-1.1806,-1.1712,-1.1156,-1.0698,-1.0456,-1.0031,-0.9788,-0.9788,-0.9788,-0.9788,-0.9788,-0.9788,-0.9731,-0.964,-0.9427,-0.9214,-0.9004,-0.8516,-0.7936,-0.7296,-0.6622,-0.5855,-0.4964,-0.4041,-0.3393,-0.2961,-0.2408,-0.2008,-0.2008,-0.2008,-0.2008,-0.2008,-0.2008,-0.2008,-0.2008,-0.2008,-0.2012,-0.1999,-0.1893,-0.1086,0.0369,0.2485,0.4361,0.5983,0.7894,0.9224,0.9304,0.9304,0.9304,0.9304,0.9304,0.9304,0.9304,0.9304,0.9304,0.9304,0.9304,0.9304,0.9304,0.9304,0.9304,0.9304,0.9253,0.9163,0.9005,0.8788,0.8679,0.8619,0.8675,0.8716,0.8718,0.8701,0.8698,-2.1211,-2.1211,-2.1211,-2.1211,-2.1203,-2.1117,-2.0831,-2.0357,-2.0248,-1.9909,-1.9424,-1.9395,-1.9395,-1.9395,-1.9395,-1.9395,-1.9395,-1.9395,-1.9395,-1.9395,-1.9395,-1.9395,-1.9395,-1.9272,-1.8706,-1.7841,-1.636,-1.5596,-1.5448,-1.4679,-1.4202,-1.4112,-1.3778,-1.3509,-1.3204,-1.287,-1.2539,-1.2272,-1.1979,-1.1837,-1.1806,-1.1806,-1.1806,-1.1712,-1.1129,-1.0759,-1.0728,-1.0152,-0.9788,-0.9788,-0.9788,-0.9788,-0.9788,-0.9761,-0.964,-0.94,-0.9275,-0.8973,-0.8491,-0.8089,-0.76,-0.6929,-0.6285,-0.5609,-0.4935,-0.401,-0.3331,-0.2992,-0.2408,-0.2008,-0.2008,-0.2008,-0.2008,-0.2008,-0.2008,-0.2008,-0.2008,-0.2009,-0.202,-0.2026,-0.2029,-0.1779,-0.0577,0.1842,0.4052,0.5438,0.7538,0.9304,0.9304,0.9304,0.9304,0.9304,0.9304,0.9304,0.9304,0.9304,0.9304,0.9304,0.9304,0.9304,0.9304,0.9304,0.9304,0.9299,0.9258,0.9133,0.9035,0.8872,0.8769,0.8717,0.8747,0.8772,0.8785,0.8804,0.8818,-2.1211,-2.1211,-2.1211,-2.1211,-2.1175,-2.0967,-2.0637,-2.0306,-2.0075,-1.9764,-1.9453,-1.9395,-1.9395,-1.9395,-1.9395,-1.9395,-1.9395,-1.9395,-1.9395,-1.9395,-1.9395,-1.9395,-1.9395,-1.9395,-1.8858,-1.7847,-1.6767,-1.5976,-1.5542,-1.4858,-1.4386,-1.4172,-1.3873,-1.3658,-1.3534,-1.32,-1.2874,-1.2543,-1.2238,-1.1975,-1.1837,-1.1806,-1.1677,-1.1428,-1.1031,-1.0698,-1.0456,-1.0035,-0.9822,-0.9788,-0.9788,-0.9788,-0.9761,-0.9579,-0.94,-0.9278,-0.8915,-0.8488,-0.8086,-0.7722,-0.7263,-0.662,-0.5945,-0.5392,-0.4841,-0.3825,-0.3177,-0.2961,-0.2407,-0.2008,-0.2008,-0.2008,-0.2008,-0.2008,-0.2008,-0.2008,-0.2012,-0.2026,-0.2028,-0.2042,-0.1892,-0.1117,0.0448,0.2648,0.4398,0.6021,0.8011,0.9266,0.9304,0.9304,0.9304,0.9304,0.9304,0.9304,0.9304,0.9304,0.9304,0.9304,0.9304,0.9304,0.9304,0.9304,0.9304,0.9291,0.9211,0.9144,0.9046,0.8952,0.8849,0.8813,0.8841,0.8857,0.8862,0.8884,0.8948,-2.1211,-2.1211,-2.1211,-2.1211,-2.1182,-2.0967,-2.073,-2.0407,-2.0126,-1.9844,-1.9591,-1.9453,-1.9395,-1.9395,-1.9395,-1.9395,-1.9395,-1.9395,-1.9395,-1.9395,-1.9395,-1.9395,-1.9366,-1.9127,-1.8771,-1.8,-1.7003,-1.6301,-1.5922,-1.518,-1.462,-1.4351,-1.4022,-1.3808,-1.3688,-1.3354,-1.3024,-1.2689,-1.2359,-1.2066,-1.1833,-1.1677,-1.1522,-1.1273,-1.088,-1.0516,-1.0304,-0.997,-0.9788,-0.9788,-0.9788,-0.9761,-0.9609,-0.9396,-0.9217,-0.8946,-0.861,-0.8214,-0.775,-0.7388,-0.6929,-0.6283,-0.5607,-0.5087,-0.4595,-0.3639,-0.3022,-0.29,-0.2407,-0.2008,-0.2008,-0.2008,-0.2008,-0.2008,-0.2008,-0.2012,-0.2024,-0.2018,-0.2061,-0.2048,-0.1859,-0.0689,0.1018,0.292,0.4822,0.6713,0.8324,0.9304,0.9304,0.9304,0.9304,0.9304,0.9304,0.9304,0.9304,0.9304,0.9304,0.9304,0.9304,0.9304,0.9304,0.9304,0.9302,0.9299,0.9233,0.9179,0.9122,0.9044,0.8968,0.8976,0.8927,0.8979,0.8995,0.9084,0.9109,-2.1211,-2.1211,-2.1211,-2.1211,-2.1203,-2.1125,-2.0931,-2.0666,-2.0357,-2.0046,-1.9758,-1.9511,-1.9395,-1.9395,-1.9395,-1.9395,-1.9395,-1.9395,-1.9395,-1.9395,-1.9395,-1.9395,-1.9336,-1.88,-1.8473,-1.8211,-1.7097,-1.6508,-1.636,-1.5472,-1.4913,-1.4595,-1.4291,-1.4022,-1.3718,-1.3384,-1.3084,-1.2719,-1.2414,-1.2126,-1.1802,-1.1553,-1.1303,-1.1243,-1.0698,-1.0334,-1.0183,-0.994,-0.9788,-0.9788,-0.9761,-0.9609,-0.9366,-0.9275,-0.8946,-0.8491,-0.8369,-0.7972,-0.7449,-0.7051,-0.6591,-0.5916,-0.5302,-0.4779,-0.4378,-0.3607,-0.2991,-0.2961,-0.2408,-0.2008,-0.2008,-0.2008,-0.2009,-0.201,-0.2015,-0.2025,-0.2018,-0.2048,-0.1895,-0.1779,-0.1621,-0.0634,0.1635,0.3525,0.518,0.6936,0.8504,0.9121,0.9304,0.9304,0.9304,0.9304,0.9304,0.9304,0.9304,0.9304,0.9304,0.9304,0.9304,0.9304,0.9304,0.9304,0.9304,0.9299,0.9288,0.9234,0.9196,0.9122,0.9082,0.9052,0.906,0.9092,0.9128,0.9207,0.9212,-2.1211,-2.1211,-2.1211,-2.1211,-2.1182,-2.0967,-2.0809,-2.063,-2.0155,-1.9931,-1.9758,-1.9511,-1.9395,-1.9395,-1.9395,-1.9395,-1.9395,-1.9395,-1.9395,-1.9395,-1.9395,-1.9395,-1.9278,-1.8719,-1.8392,-1.8211,-1.7203,-1.6508,-1.6419,-1.5591,-1.4972,-1.459,-1.4351,-1.4047,-1.3714,-1.3599,-1.3264,-1.2779,-1.2625,-1.2303,-1.1863,-1.1712,-1.1402,-1.094,-1.0728,-1.0395,-1.0001,-0.9849,-0.9788,-0.9788,-0.9548,-0.9427,-0.9244,-0.8912,-0.858,-0.8339,-0.7908,-0.751,-0.7084,-0.6745,-0.6221,-0.5607,-0.5148,-0.4779,-0.4407,-0.3547,-0.3085,-0.2869,-0.2407,-0.2008,-0.2008,-0.2008,-0.2016,-0.2003,-0.2008,-0.2022,-0.2017,-0.182,-0.1357,-0.0272,0.0346,0.1932,0.4061,0.5475,0.6721,0.8177,0.8941,0.9304,0.9304,0.9304,0.9304,0.9304,0.9304,0.9304,0.9304,0.9304,0.9304,0.9304,0.9304,0.9304,0.9304,0.9304,0.9304,0.9302,0.9299,0.9261,0.9266,0.9256,0.9212,0.9125,0.9163,0.9231,0.9247,0.9277,0.9275,-2.1211,-2.1211,-2.1211,-2.1211,-2.1182,-2.0996,-2.0902,-2.0788,-2.027,-2.0018,-1.9931,-1.9562,-1.9424,-1.9395,-1.9395,-1.9395,-1.9395,-1.9395,-1.9395,-1.9395,-1.9395,-1.9395,-1.9276,-1.881,-1.8506,-1.8294,-1.7363,-1.6807,-1.6436,-1.5828,-1.5215,-1.4684,-1.4441,-1.4142,-1.3718,-1.3688,-1.3354,-1.281,-1.2685,-1.2393,-1.1837,-1.1496,-1.122,-1.0789,-1.0577,-1.0152,-0.9822,-0.9788,-0.9788,-0.9727,-0.9484,-0.9244,-0.9126,-0.8674,-0.8277,-0.8002,-0.76,-0.7204,-0.6775,-0.6497,-0.6035,-0.536,-0.4995,-0.4656,-0.4162,-0.3454,-0.2991,-0.2929,-0.2377,-0.2069,-0.201,-0.2017,-0.2001,-0.2016,-0.2041,-0.2063,-0.2115,-0.1803,-0.0903,0.0342,0.1462,0.2959,0.5942,0.6727,0.7731,0.8757,0.9193,0.9304,0.9304,0.9304,0.9304,0.9304,0.9304,0.9304,0.9304,0.9304,0.9304,0.9304,0.9304,0.9304,0.9304,0.9304,0.9304,0.9304,0.9304,0.9304,0.9304,0.9304,0.928,0.9261,0.9299,0.9304,0.9304,0.9304,0.9304,-2.1211,-2.1211,-2.1211,-2.1211,-2.1211,-2.1211,-2.1182,-2.1089,-2.0536,-2.027,-2.0133,-1.9655,-1.9424,-1.9395,-1.9395,-1.9395,-1.9395,-1.9395,-1.9395,-1.9395,-1.9395,-1.9395,-1.9334,-1.8942,-1.8669,-1.8362,-1.7739,-1.7094,-1.6585,-1.6226,-1.5539,-1.4814,-1.4565,-1.4262,-1.3778,-1.3658,-1.3294,-1.2779,-1.2595,-1.2333,-1.1833,-1.1375,-1.1069,-1.0759,-1.0213,-0.991,-0.9822,-0.9788,-0.9758,-0.9731,-0.943,-0.9129,-0.8854,-0.8522,-0.8091,-0.7569,-0.7357,-0.7021,-0.6495,-0.6311,-0.5884,-0.5118,-0.4872,-0.4595,-0.3979,-0.3362,-0.2991,-0.2991,-0.2408,-0.2069,-0.2011,-0.2,-0.2018,-0.2,-0.2042,-0.2038,-0.1981,-0.1751,-0.0905,0.0797,0.1709,0.3503,0.5641,0.708,0.7779,0.8977,0.9304,0.9304,0.9304,0.9304,0.9304,0.9304,0.9304,0.9304,0.9304,0.9304,0.9304,0.9304,0.9304,0.9304,0.9304,0.9304,0.9304,0.9304,0.9304,0.9304,0.9304,0.9304,0.9304,0.9304,0.9304,0.9304,0.9304,0.9304,0.9304,-2.1211,-2.1211,-2.1211,-2.1211,-2.1211,-2.1211,-2.1211,-2.1153,-2.0565,-2.0299,-2.0162,-1.9684,-1.9424,-1.9395,-1.9395,-1.9395,-1.9395,-1.9395,-1.9395,-1.9395,-1.9395,-1.9395,-1.9309,-1.8987,-1.879,-1.8492,-1.7761,-1.7165,-1.6771,-1.6252,-1.5539,-1.475,-1.457,-1.4291,-1.3763,-1.3458,-1.3114,-1.2719,-1.2444,-1.2152,-1.1893,-1.1591,-1.122,-1.0759,-1.0152,-0.9819,-0.9788,-0.9788,-0.967,-0.9427,-0.9156,-0.8885,-0.8549,-0.8214,-0.7814,-0.7419,-0.7112,-0.6806,-0.6403,-0.5912,-0.5423,-0.4995,-0.4656,-0.4349,-0.395,-0.3362,-0.3022,-0.2869,-0.2407,-0.2039,-0.2013,-0.2003,-0.1998,-0.1992,-0.186,-0.1723,-0.1636,-0.1407,0.0,0.2228,0.3511,0.5135,0.79,0.8249,0.8745,0.9227,0.9304,0.9304,0.9304,0.9304,0.9288,0.928,0.9302,0.9296,0.9272,0.928,0.9304,0.9304,0.9304,0.9304,0.9304,0.9304,0.9304,0.9304,0.9304,0.9304,0.9304,0.9304,0.9304,0.9304,0.9304,0.9304,0.9304,0.9304,0.9304,-2.1211,-2.1211,-2.1211,-2.1211,-2.1211,-2.1211,-2.1211,-2.1089,-2.0565,-2.0299,-2.0162,-1.9655,-1.9424,-1.9395,-1.9395,-1.9395,-1.9395,-1.9395,-1.9395,-1.9395,-1.9395,-1.9395,-1.9356,-1.9124,-1.8921,-1.8714,-1.8097,-1.7524,-1.7032,-1.6414,-1.5728,-1.4953,-1.467,-1.4308,-1.3841,-1.3405,-1.3029,-1.2689,-1.2354,-1.2062,-1.1833,-1.1466,-1.1008,-1.0456,-1.0001,-0.9788,-0.9788,-0.9788,-0.9548,-0.9214,-0.8976,-0.8735,-0.8366,-0.7939,-0.7508,-0.7174,-0.6837,-0.653,-0.6129,-0.5698,-0.527,-0.4902,-0.4593,-0.4256,-0.3856,-0.3362,-0.3053,-0.2869,-0.244,-0.2012,-0.2027,-0.2023,-0.202,-0.1855,-0.1683,-0.1469,-0.1142,-0.0909,0.0034,0.2292,0.3121,0.4987,0.6833,0.8017,0.8842,0.8928,0.9302,0.9304,0.9304,0.9296,0.9217,0.9211,0.9283,0.9285,0.9245,0.9256,0.9299,0.9304,0.9304,0.9304,0.9304,0.9304,0.9304,0.9304,0.9304,0.9304,0.9304,0.9304,0.9304,0.9304,0.9304,0.9304,0.9304,0.9304,0.9304,-2.1375,-2.1211,-2.1211,-2.1211,-2.1203,-2.1153,-2.1081,-2.0944,-2.0437,-2.0079,-2.0057,-1.9552,-1.9314,-1.9388,-1.9395,-1.9395,-1.9395,-1.9395,-1.9395,-1.9395,-1.9395,-1.9395,-1.9346,-1.9221,-1.909,-1.8824,-1.8319,-1.781,-1.7292,-1.6609,-1.5872,-1.5287,-1.4665,-1.4191,-1.3857,-1.3314,-1.2844,-1.2539,-1.2242,-1.2005,-1.1772,-1.125,-1.0668,-1.0122,-0.9879,-0.9788,-0.9788,-0.9761,-0.9552,-0.8979,-0.8918,-0.8705,-0.8275,-0.7786,-0.7235,-0.6931,-0.662,-0.6252,-0.5853,-0.5485,-0.5147,-0.4841,-0.4502,-0.4225,-0.3857,-0.3393,-0.3054,-0.278,-0.2446,-0.2026,-0.2017,-0.1955,-0.1852,-0.1645,-0.1535,-0.1143,-0.0673,-0.0438,0.0406,0.1601,0.2583,0.4044,0.5683,0.7031,0.7847,0.8629,0.9038,0.9299,0.9296,0.9277,0.9193,0.9179,0.9245,0.9285,0.9258,0.9256,0.9296,0.9304,0.9304,0.9304,0.9304,0.9304,0.9304,0.9304,0.9304,0.9304,0.9304,0.9304,0.9304,0.9304,0.9304,0.9304,0.9304,0.9304,0.9304,-2.2121,-2.1211,-2.1211,-2.1211,-2.1146,-2.0902,-2.0651,-2.0365,-1.9836,-1.9559,-1.9496,-1.9176,-1.9158,-1.9328,-1.9395,-1.9395,-1.9395,-1.9395,-1.9395,-1.9395,-1.9395,-1.9395,-1.9391,-1.9275,-1.9184,-1.8944,-1.8409,-1.7868,-1.7467,-1.6655,-1.5883,-1.5234,-1.4495,-1.3939,-1.349,-1.2834,-1.2444,-1.2328,-1.2066,-1.1863,-1.1742,-1.1341,-1.0789,-1.0183,-0.9913,-0.9822,-0.9788,-0.9761,-0.9521,-0.8976,-0.8918,-0.8546,-0.8086,-0.763,-0.7235,-0.69,-0.6499,-0.6035,-0.5605,-0.5177,-0.4839,-0.4502,-0.4225,-0.4011,-0.3765,-0.3363,-0.2994,-0.2758,-0.2403,-0.2014,-0.1987,-0.1874,-0.1704,-0.1488,-0.1101,-0.0673,-0.0471,-0.0168,0.0337,0.1455,0.2119,0.2761,0.4328,0.5863,0.6923,0.7945,0.8773,0.9112,0.9264,0.9237,0.9193,0.919,0.9207,0.9247,0.9275,0.9285,0.9304,0.9304,0.9304,0.9304,0.9304,0.9304,0.9304,0.9304,0.9304,0.9304,0.9304,0.9304,0.9304,0.9304,0.9304,0.9304,0.9304,0.9304,0.9304,-2.2672,-2.2072,-2.1482,-2.1015,-2.0735,-2.0565,-2.0244,-1.9793,-1.9354,-1.9131,-1.9067,-1.8964,-1.8963,-1.9152,-1.9348,-1.9395,-1.9395,-1.9395,-1.9395,-1.9395,-1.9395,-1.9395,-1.941,-1.9258,-1.9221,-1.8964,-1.8417,-1.795,-1.7723,-1.6514,-1.5833,-1.5339,-1.4506,-1.3852,-1.3438,-1.2855,-1.2371,-1.2208,-1.1949,-1.1806,-1.1742,-1.1307,-1.0698,-1.0183,-0.991,-0.9819,-0.9788,-0.9788,-0.9579,-0.9186,-0.8976,-0.8546,-0.7966,-0.7447,-0.7051,-0.6808,-0.6252,-0.5759,-0.5358,-0.4962,-0.4562,-0.4407,-0.4102,-0.3826,-0.364,-0.3272,-0.2878,-0.2495,-0.2319,-0.2033,-0.2064,-0.1766,-0.1551,-0.1299,-0.0838,-0.0471,0.0,0.0,0.0,0.0,0.0,0.0,0.3066,0.4532,0.5861,0.7123,0.8314,0.8841,0.9176,0.9163,0.9109,0.9092,0.9111,0.9239,0.9277,0.9296,0.9304,0.9304,0.9304,0.9304,0.9304,0.9304,0.9304,0.9304,0.9304,0.9304,0.9304,0.9304,0.9304,0.9304,0.9304,0.9304,0.9304,0.9304,0.9304,-2.3023,-2.2559,-2.1454,-2.0755,-2.0412,-2.0179,-1.9785,-1.9311,-1.8954,-1.8829,-1.8822,-1.8869,-1.8936,-1.9072,-1.9239,-1.9395,-1.9395,-1.9395,-1.9395,-1.9395,-1.9395,-1.9395,-1.9373,-1.9349,-1.9285,-1.9079,-1.8548,-1.8066,-1.7708,-1.6482,-1.5793,-1.5319,-1.4524,-1.3734,-1.3316,-1.276,-1.2479,-1.2156,-1.1923,-1.1802,-1.1496,-1.1065,-1.0486,-0.9883,-0.9788,-0.9788,-0.9788,-0.9788,-0.9548,-0.9247,-0.8943,-0.8549,-0.7841,-0.7232,-0.687,-0.6591,-0.5853,-0.5452,-0.5053,-0.4776,-0.4409,-0.4255,-0.4042,-0.3796,-0.3455,-0.312,-0.2637,-0.2168,-0.2029,-0.1985,-0.1927,-0.1685,-0.1364,-0.1005,-0.0639,0.0,0.0,0.0,0.0,0.0,0.0,0.0,0.0,0.3785,0.5264,0.6382,0.7551,0.8764,0.9052,0.9035,0.9003,0.8998,0.9054,0.9212,0.9272,0.9299,0.9304,0.9304,0.9304,0.9304,0.9304,0.9304,0.9304,0.9304,0.9304,0.9304,0.9304,0.9304,0.9304,0.9304,0.9304,0.9304,0.9304,0.9304,0.9304,-2.3077,-2.138,-2.0644,-2.0431,-2.0465,-1.9847,-1.9309,-1.8942,-1.8652,-1.8539,-1.8553,-1.8826,-1.9065,-1.9287,-1.9354,-1.9395,-1.9395,-1.9395,-1.9395,-1.9395,-1.9395,-1.9395,-1.9423,-1.9577,-1.9256,-1.8955,-1.8544,-1.8332,-1.7503,-1.6238,-1.5699,-1.5408,-1.4328,-1.3382,-1.3079,-1.2595,-1.213,-1.1889,-1.1802,-1.153,-1.1039,-1.0849,-1.0395,-0.997,-0.9788,-0.9788,-0.9788,-0.9788,-0.9548,-0.9098,-0.8976,-0.8427,-0.76,-0.7143,-0.6591,-0.6101,-0.5607,-0.5147,-0.4684,-0.4438,-0.4256,-0.4071,-0.3919,-0.3765,-0.3365,-0.2882,-0.2401,-0.2079,-0.2041,-0.1943,-0.1747,-0.1399,-0.1006,-0.0672,-0.0337,0.0,0.0,0.0,0.0,0.0,0.0,0.0,0.0845,0.2862,0.471,0.5734,0.6841,0.8067,0.8943,0.8943,0.8938,0.8943,0.9071,0.9237,0.9272,0.9299,0.9304,0.9304,0.9304,0.9304,0.9304,0.9304,0.9304,0.9304,0.9304,0.9304,0.9304,0.9304,0.9304,0.9304,0.9304,0.9304,0.9304,0.9304,0.9304,-2.286,-2.1573,-2.0622,-2.0072,-1.9857,-1.9334,-1.8832,-1.8424,-1.8266,-1.8209,-1.8309,-1.871,-1.9085,-1.9348,-1.9395,-1.9395,-1.9395,-1.9395,-1.9395,-1.9395,-1.9395,-1.9395,-1.9401,-1.9381,-1.9133,-1.8301,-1.7698,-1.6895,-1.6339,-1.594,-1.5521,-1.5262,-1.4114,-1.3176,-1.2838,-1.2405,-1.2074,-1.1828,-1.1587,-1.1281,-1.088,-1.0607,-1.0304,-0.9822,-0.9788,-0.9788,-0.9788,-0.9788,-0.9697,-0.9339,-0.9159,-0.8546,-0.778,-0.7141,-0.6499,-0.5425,-0.521,-0.4901,-0.447,-0.4224,-0.4041,-0.3889,-0.3734,-0.3455,-0.3001,-0.2569,-0.2247,-0.2075,-0.2072,-0.1937,-0.1627,-0.1307,-0.0907,-0.0539,-0.0168,0.0,0.0,0.0,0.0,0.0,0.0,0.0,0.0673,0.2061,0.3952,0.5346,0.6498,0.7724,0.8538,0.8913,0.8924,0.8919,0.9079,0.9288,0.9294,0.9304,0.9304,0.9304,0.9304,0.9304,0.9304,0.9304,0.9304,0.9304,0.9304,0.9304,0.9304,0.9304,0.9304,0.9304,0.9304,0.9304,0.9304,0.9304,0.9304,-2.2219,-2.161,-2.0458,-1.9767,-1.9381,-1.8975,-1.8547,-1.8131,-1.8131,-1.8143,-1.8283,-1.8736,-1.9172,-1.9348,-1.9395,-1.9395,-1.9395,-1.9395,-1.9395,-1.9395,-1.9395,-1.9395,-1.9284,-1.9128,-1.8399,-1.7343,-1.6775,-1.6054,-1.5348,-1.4883,-1.4849,-1.4927,-1.3679,-1.294,-1.2573,-1.2333,-1.2066,-1.1802,-1.1488,-1.1152,-1.0819,-1.0486,-1.0156,-0.9913,-0.9788,-0.9788,-0.9788,-0.9788,-0.9788,-0.9518,-0.9247,-0.8574,-0.7536,-0.6896,-0.5945,-0.4933,-0.4472,-0.4318,-0.407,-0.3918,-0.3857,-0.3707,-0.3441,-0.3016,-0.2648,-0.2258,-0.2096,-0.2093,-0.2089,-0.1887,-0.1542,-0.1211,-0.0841,-0.0471,0.0,0.0,0.0,0.0,0.0,0.0,0.0,0.0,0.121,0.1781,0.314,0.4827,0.6168,0.7435,0.8171,0.8793,0.8892,0.893,0.9103,0.9294,0.9304,0.9304,0.9304,0.9304,0.9304,0.9304,0.9304,0.9304,0.9304,0.9304,0.9304,0.9304,0.9304,0.9304,0.9304,0.9304,0.9304,0.9304,0.9304,0.9304,0.9304,-2.1009,-2.0879,-1.9814,-1.9547,-1.9672,-1.8814,-1.8424,-1.8328,-1.8442,-1.8478,-1.8577,-1.9067,-1.9341,-1.9388,-1.9395,-1.9395,-1.9395,-1.9395,-1.9395,-1.9395,-1.9395,-1.9395,-1.9154,-1.8578,-1.7793,-1.7102,-1.6064,-1.5226,-1.4698,-1.3846,-1.3778,-1.36,-1.3028,-1.2591,-1.2324,-1.2178,-1.2036,-1.1742,-1.1432,-1.1122,-1.0789,-1.0456,-1.0122,-0.9879,-0.9788,-0.9788,-0.9788,-0.9788,-0.97,-0.9491,-0.9305,-0.8604,-0.7475,-0.6742,-0.5698,-0.4593,-0.3887,-0.3702,-0.3454,-0.3577,-0.3702,-0.3407,-0.3023,-0.2637,-0.2418,-0.2234,-0.2127,-0.2105,-0.2134,-0.1793,-0.1408,-0.1077,-0.0808,0.0,0.0,0.0,0.0,0.0,0.0,0.0,0.0,0.0,0.2318,0.2989,0.3827,0.5509,0.6865,0.8158,0.8335,0.8821,0.8887,0.8976,0.9138,0.928,0.9299,0.9304,0.9304,0.9304,0.9304,0.9304,0.9304,0.9304,0.9304,0.9304,0.9304,0.9304,0.9304,0.9304,0.9304,0.9304,0.9304,0.9304,0.9304,0.9304,0.9304,-2.1489,-2.0783,-1.975,-1.9371,-1.9455,-1.8931,-1.8586,-1.8448,-1.8659,-1.8879,-1.9053,-1.9294,-1.9395,-1.9395,-1.9395,-1.9395,-1.9395,-1.9395,-1.9395,-1.9395,-1.9395,-1.9395,-1.9011,-1.8204,-1.7221,-1.6244,-1.5038,-1.3789,-1.2921,-1.2769,-1.2586,-1.2414,-1.2427,-1.2376,-1.2178,-1.2036,-1.1893,-1.1682,-1.1311,-1.091,-1.0759,-1.0274,-0.994,-0.9819,-0.9788,-0.9788,-0.9788,-0.9788,-0.97,-0.9579,-0.9427,-0.8635,-0.7719,-0.6952,-0.5818,-0.4592,-0.3916,-0.3362,-0.3023,-0.3177,-0.3177,-0.2939,-0.2624,-0.2431,-0.2247,-0.2127,-0.2118,-0.2101,-0.2151,-0.1841,-0.1242,-0.1077,0.0,0.0,0.0,0.0,0.0,0.0,0.0,0.0,0.0,0.0,0.3223,0.4363,0.5233,0.6246,0.7588,0.8619,0.8715,0.8829,0.8911,0.9011,0.9165,0.928,0.9299,0.9304,0.9304,0.9304,0.9304,0.9304,0.9304,0.9304,0.9304,0.9304,0.9304,0.9304,0.9304,0.9304,0.9304,0.9304,0.9304,0.9304,0.9304,0.9304,0.9304,-2.2055,-2.1234,-1.9887,-1.9298,-1.9253,-1.9026,-1.8757,-1.862,-1.8795,-1.9093,-1.9417,-1.9395,-1.9395,-1.9395,-1.9395,-1.9395,-1.9395,-1.9395,-1.9395,-1.9395,-1.9395,-1.9395,-1.8858,-1.7801,-1.6401,-1.5337,-1.3884,-1.2599,-1.2051,-1.1841,-1.1909,-1.197,-1.1975,-1.2066,-1.2036,-1.1923,-1.1772,-1.1526,-1.116,-1.0732,-1.0581,-1.0126,-0.9822,-0.9788,-0.9788,-0.9788,-0.9788,-0.9788,-0.9788,-0.97,-0.9518,-0.9119,-0.8358,-0.7439,-0.6274,-0.5141,-0.416,-0.3391,-0.2901,-0.2776,-0.272,-0.2584,-0.2427,-0.2253,-0.211,-0.2085,-0.2117,-0.2109,-0.2134,-0.1885,-0.1212,-0.1077,-0.0774,0.0,0.0,0.0,0.0,0.0,0.0,0.0,0.0,0.252,0.4197,0.5404,0.6552,0.7273,0.7918,0.869,0.8753,0.8878,0.8992,0.9087,0.9184,0.9272,0.9304,0.9304,0.9304,0.9304,0.9304,0.9304,0.9304,0.9304,0.9304,0.9304,0.9304,0.9304,0.9304,0.9304,0.9304,0.9304,0.9304,0.9304,0.9304,0.9304,0.9304,-2.2458,-2.219,-2.0156,-1.9298,-1.9279,-1.9,-1.8895,-1.8843,-1.8877,-1.9093,-1.9383,-1.9395,-1.9395,-1.9395,-1.9395,-1.9395,-1.9395,-1.9395,-1.9395,-1.9395,-1.9395,-1.9395,-1.8625,-1.7408,-1.6279,-1.5159,-1.3709,-1.2427,-1.1984,-1.1837,-1.1837,-1.1806,-1.1863,-1.1893,-1.1806,-1.1806,-1.1647,-1.1333,-1.097,-1.0668,-1.0365,-1.0001,-0.9819,-0.9788,-0.9788,-0.9788,-0.9788,-0.9788,-0.9788,-0.9761,-0.9761,-0.9268,-0.8413,-0.78,-0.642,-0.4521,-0.4,-0.3174,-0.2223,-0.2376,-0.2425,-0.2417,-0.2253,-0.2113,-0.2103,-0.2141,-0.2172,-0.2123,-0.214,-0.185,-0.1414,-0.1043,-0.064,0.0,0.0,0.0,0.0,0.0,0.0,0.0,0.0,0.2789,0.4734,0.6414,0.7739,0.8448,0.8647,0.8772,0.8834,0.8932,0.9054,0.9179,0.9256,0.9272,0.9304,0.9304,0.9304,0.9304,0.9304,0.9304,0.9304,0.9304,0.9304,0.9304,0.9304,0.9304,0.9304,0.9304,0.9304,0.9304,0.9304,0.9304,0.9304,0.9304,0.9304,-2.208,-2.1311,-1.9879,-1.9298,-1.9272,-1.9201,-1.9078,-1.8924,-1.8904,-1.9086,-1.9365,-1.9395,-1.9395,-1.9395,-1.9395,-1.9395,-1.9395,-1.9395,-1.9395,-1.9395,-1.9395,-1.9395,-1.88,-1.7789,-1.6779,-1.6155,-1.447,-1.296,-1.3105,-1.2281,-1.1837,-1.1806,-1.1806,-1.1806,-1.1806,-1.1772,-1.1647,-1.1303,-1.097,-1.0637,-1.0304,-0.997,-0.9788,-0.9788,-0.9788,-0.9788,-0.9788,-0.9788,-0.9788,-0.9788,-0.9788,-0.9515,-0.8684,-0.8102,-0.6296,-0.4765,-0.4092,-0.2529,-0.2075,-0.2145,-0.2163,-0.2148,-0.213,-0.206,-0.209,-0.2108,-0.2125,-0.217,-0.2179,-0.1818,-0.1313,-0.1144,0.0,0.0,0.0,0.0,0.0,0.0,0.0,0.0,0.0,0.4466,0.6684,0.7229,0.829,0.8758,0.8834,0.8918,0.8984,0.9003,0.9111,0.9223,0.9288,0.9294,0.9304,0.9304,0.9304,0.9304,0.9304,0.9304,0.9304,0.9304,0.9304,0.9304,0.9304,0.9304,0.9304,0.9304,0.9304,0.9304,0.9304,0.9304,0.9304,0.9304,0.9304,-2.2089,-2.1303,-1.9879,-1.9298,-1.9298,-1.9298,-1.9198,-1.9067,-1.9063,-1.917,-1.9359,-1.9395,-1.9395,-1.9395,-1.9395,-1.9395,-1.9395,-1.9395,-1.9395,-1.9395,-1.9395,-1.9395,-1.9004,-1.8227,-1.7425,-1.6803,-1.5203,-1.364,-1.352,-1.2401,-1.1897,-1.1806,-1.1806,-1.1806,-1.1806,-1.1772,-1.1557,-1.1186,-1.0819,-1.0543,-1.0183,-0.991,-0.9788,-0.9788,-0.9788,-0.9788,-0.9788,-0.9788,-0.9788,-0.9788,-0.9788,-0.9788,-0.9113,-0.8011,-0.6418,-0.5378,-0.3634,-0.2289,-0.2026,-0.2004,-0.2056,-0.2054,-0.2017,-0.2036,-0.2104,-0.2122,-0.217,-0.2181,-0.2188,-0.1751,-0.1279,-0.1144,0.0,0.0,0.0,0.0,0.0,0.0,0.0,0.0,0.2568,0.5515,0.8108,0.8344,0.8762,0.8878,0.8924,0.9006,0.9082,0.9122,0.9157,0.9253,0.9299,0.9302,0.9304,0.9304,0.9304,0.9304,0.9304,0.9304,0.9304,0.9304,0.9304,0.9304,0.9304,0.9304,0.9304,0.9304,0.9304,0.9304,0.9304,0.9304,0.9304,0.9304,0.9304,-2.2467,-2.2139,-2.0197,-1.9334,-1.9327,-1.936,-1.9336,-1.9284,-1.9305,-1.9359,-1.9417,-1.9395,-1.9395,-1.9395,-1.9395,-1.9395,-1.9395,-1.9395,-1.9395,-1.9395,-1.9395,-1.9395,-1.9068,-1.8321,-1.8023,-1.6897,-1.5475,-1.4172,-1.3695,-1.2427,-1.1837,-1.1806,-1.1806,-1.1806,-1.1806,-1.1682,-1.1402,-1.1005,-1.0819,-1.0456,-1.0004,-0.9819,-0.9788,-0.9788,-0.9788,-0.9788,-0.9788,-0.9788,-0.9788,-0.9788,-0.9788,-0.9788,-0.9359,-0.8501,-0.7212,-0.5439,-0.3082,-0.2394,-0.201,-0.2018,-0.205,-0.2052,-0.2103,-0.211,-0.2118,-0.2136,-0.218,-0.2186,-0.2188,-0.1683,-0.1279,-0.1043,0.0,0.0,0.0,0.0,0.0,0.0,0.0,0.0,0.0,0.549,0.8067,0.8892,0.8927,0.9035,0.9106,0.9087,0.9155,0.9195,0.9258,0.9269,0.9302,0.9302,0.9304,0.9304,0.9304,0.9304,0.9304,0.9304,0.9304,0.9304,0.9304,0.9304,0.9304,0.9304,0.9304,0.9304,0.9304,0.9304,0.9304,0.9304,0.9304,0.9304,0.9338,-2.2064,-2.1233,-2.0136,-1.9676,-1.9659,-1.9657,-1.9506,-1.9326,-1.9542,-1.9587,-1.9424,-1.9395,-1.9395,-1.9395,-1.9395,-1.9395,-1.9395,-1.9395,-1.9395,-1.9395,-1.9395,-1.9395,-1.9214,-1.8887,-1.8794,-1.7877,-1.6455,-1.4708,-1.4446,-1.2994,-1.1806,-1.1806,-1.1806,-1.1806,-1.1742,-1.1553,-1.1216,-1.0914,-1.0789,-1.0368,-0.9974,-0.9788,-0.9788,-0.9788,-0.9788,-0.9788,-0.9788,-0.9788,-0.9788,-0.9788,-0.9788,-0.9788,-0.9697,-0.7703,-0.5684,-0.3389,-0.2318,-0.202,-0.2016,-0.2039,-0.2069,-0.2106,-0.2127,-0.2173,-0.2179,-0.2181,-0.2188,-0.2188,-0.2155,-0.1784,-0.1346,-0.1043,-0.0673,0.0,0.0,0.0,0.0,0.0,0.0,0.0,0.0,0.5586,0.8121,0.9008,0.906,0.9185,0.925,0.9242,0.9247,0.928,0.9296,0.9302,0.9304,0.9304,0.9304,0.9304,0.9304,0.9304,0.9304,0.9304,0.9304,0.9304,0.9304,0.9304,0.9304,0.9304,0.9304,0.9304,0.9304,0.9304,0.9304,0.9304,0.9304,0.9304,0.9413,-2.2543,-2.1809,-2.0484,-1.9945,-1.9949,-1.9974,-1.9827,-1.9563,-1.9584,-1.9506,-1.9403,-1.9395,-1.9395,-1.9395,-1.9395,-1.9395,-1.9395,-1.9395,-1.9395,-1.9395,-1.9395,-1.9395,-1.9366,-1.8917,-1.8467,-1.773,-1.6455,-1.453,-1.4326,-1.3144,-1.1806,-1.1806,-1.1806,-1.1806,-1.1742,-1.1617,-1.1281,-1.091,-1.0607,-1.0277,-1.0004,-0.9788,-0.9788,-0.9788,-0.9788,-0.9788,-0.9788,-0.9788,-0.9788,-0.9788,-0.9788,-0.9788,-0.9359,-0.7368,-0.4766,-0.2776,-0.2101,-0.2033,-0.2032,-0.2052,-0.2117,-0.215,-0.2177,-0.2183,-0.2187,-0.2187,-0.2188,-0.2188,-0.2121,-0.1953,-0.1481,-0.101,-0.0572,0.0,0.0,0.0,0.0,0.0,0.0,0.0,0.3892,0.6039,0.7614,0.8545,0.9133,0.9242,0.9283,0.928,0.9277,0.9291,0.9299,0.9302,0.9304,0.9304,0.9304,0.9304,0.9304,0.9304,0.9304,0.9304,0.9304,0.9304,0.9304,0.9304,0.9304,0.9304,0.9304,0.9304,0.9304,0.9341,0.9377,0.9341,0.9341,0.9304,0.9485,-2.3667,-2.335,-2.1182,-2.0214,-2.0224,-2.0256,-2.0062,-1.9766,-1.9454,-1.9362,-1.9397,-1.9395,-1.9395,-1.9395,-1.9395,-1.9395,-1.9395,-1.9395,-1.9395,-1.9395,-1.9395,-1.9395,-1.9033,-1.8227,-1.7958,-1.6774,-1.5351,-1.3904,-1.3315,-1.2427,-1.1806,-1.1806,-1.1806,-1.1806,-1.1776,-1.1647,-1.1311,-1.0849,-1.0516,-1.0183,-0.991,-0.9788,-0.9788,-0.9788,-0.9788,-0.9788,-0.9788,-0.9788,-0.9788,-0.9788,-0.9788,-0.9788,-0.8376,-0.7276,-0.4676,-0.2966,-0.2107,-0.2044,-0.2078,-0.21,-0.2134,-0.2165,-0.2188,-0.2188,-0.2188,-0.2188,-0.2188,-0.202,-0.1953,-0.1616,-0.1144,-0.0909,-0.0539,0.0,0.0,0.0,0.0,0.0,0.0,0.299,0.4631,0.6703,0.8243,0.9187,0.9176,0.9283,0.9304,0.9304,0.9304,0.9304,0.9304,0.9304,0.9304,0.9304,0.9304,0.9304,0.9304,0.9304,0.9304,0.9304,0.9304,0.9304,0.9304,0.9304,0.9304,0.9304,0.9304,0.9304,0.9341,0.9485,0.9485,0.9449,0.9413,0.9521,0.9699,-2.4438,-2.3428,-2.1408,-2.0462,-2.0309,-2.0302,-1.9993,-1.9518,-1.9403,-1.9379,-1.9417,-1.9395,-1.9395,-1.9395,-1.9395,-1.9395,-1.9395,-1.9395,-1.9395,-1.9395,-1.9395,-1.9395,-1.9098,-1.7994,-1.7484,-1.6685,-1.5203,-1.3135,-1.2518,-1.2014,-1.1806,-1.1806,-1.1806,-1.1806,-1.1772,-1.1617,-1.1246,-1.0819,-1.0456,-1.0122,-0.9849,-0.9788,-0.9788,-0.9788,-0.9788,-0.9788,-0.9788,-0.9788,-0.9788,-0.9788,-0.9788,-0.8775,-0.6877,-0.6232,-0.4582,-0.2595,-0.2026,-0.2026,-0.2088,-0.2116,-0.2148,-0.2171,-0.2188,-0.2188,-0.2188,-0.2188,-0.2087,-0.1885,-0.1616,-0.1245,-0.0909,-0.0741,0.0,0.0,0.0,0.0,0.0,0.0,0.0,0.4006,0.5495,0.7015,0.8575,0.9294,0.9288,0.9291,0.9299,0.9304,0.9304,0.9304,0.9304,0.9304,0.9304,0.9304,0.9304,0.9304,0.9304,0.9304,0.9304,0.9304,0.9304,0.9304,0.9304,0.9304,0.9304,0.9304,0.9304,0.9304,0.9377,0.9557,0.9701,0.9701,0.999,1.0134,1.0203,-2.5174,-2.3866,-2.181,-2.0743,-2.0508,-2.0328,-2.0018,-1.962,-1.9453,-1.9395,-1.9395,-1.9395,-1.9395,-1.9395,-1.9395,-1.9395,-1.9395,-1.9395,-1.9395,-1.9395,-1.9395,-1.9395,-1.8771,-1.7636,-1.6809,-1.6007,-1.4053,-1.2397,-1.1893,-1.1806,-1.1806,-1.1806,-1.1806,-1.1806,-1.1742,-1.1462,-1.1152,-1.0815,-1.0459,-1.0126,-0.9849,-0.9788,-0.9788,-0.9788,-0.9788,-0.9788,-0.9788,-0.9788,-0.9788,-0.9511,-0.9235,-0.8008,-0.6385,-0.5345,-0.4002,-0.2663,-0.2002,-0.2,-0.2062,-0.2126,-0.2123,-0.2178,-0.2188,-0.2188,-0.2121,-0.2087,-0.1885,-0.1683,-0.165,-0.1346,-0.0808,-0.0539,-0.037,0.0,0.0,0.0,0.0,0.0,0.2292,0.4297,0.5579,0.6596,0.8097,0.9299,0.9296,0.9296,0.9302,0.9304,0.9304,0.9304,0.9304,0.9304,0.9304,0.9304,0.9304,0.9304,0.9304,0.9304,0.9304,0.9304,0.9304,0.9304,0.9304,0.9304,0.9304,0.9304,0.9304,0.9338,0.9518,0.9735,0.9879,0.9951,1.0311,1.0675,1.0711,-2.5936,-2.445,-2.2163,-2.0996,-2.063,-2.0407,-2.0075,-1.9729,-1.9511,-1.9395,-1.9395,-1.9395,-1.9395,-1.9395,-1.9395,-1.9395,-1.9395,-1.9395,-1.9395,-1.9395,-1.9395,-1.9395,-1.8502,-1.705,-1.5895,-1.4565,-1.2874,-1.2221,-1.1837,-1.1806,-1.1806,-1.1806,-1.1806,-1.1806,-1.1712,-1.1462,-1.1122,-1.0819,-1.049,-1.0152,-0.994,-0.9788,-0.9788,-0.9788,-0.9788,-0.9788,-0.9788,-0.9788,-0.9788,-0.9511,-0.8927,-0.7609,-0.6324,-0.5131,-0.3664,-0.2539,-0.2044,-0.2039,-0.2098,-0.2133,-0.2161,-0.2181,-0.2186,-0.2155,-0.2121,-0.1986,-0.1751,-0.1515,-0.1515,-0.1212,-0.0673,0.0,0.0,0.0,0.0,0.0,0.0,0.0,0.2317,0.4461,0.5559,0.6503,0.7847,0.9085,0.9304,0.9304,0.9304,0.9304,0.9304,0.9304,0.9304,0.9304,0.9304,0.9304,0.9304,0.9304,0.9304,0.9304,0.9304,0.9304,0.9304,0.9304,0.9304,0.9304,0.9304,0.9304,0.9374,0.941,0.9627,0.9951,1.0206,1.0422,1.0746,1.1038,1.1077,-2.6672,-2.4505,-2.2171,-2.0917,-2.0407,-2.0335,-1.9989,-1.9504,-1.9453,-1.9395,-1.9395,-1.9395,-1.9395,-1.9395,-1.9395,-1.9395,-1.9395,-1.9395,-1.9395,-1.9395,-1.9395,-1.9395,-1.8655,-1.6815,-1.4565,-1.3114,-1.2195,-1.1953,-1.1806,-1.1806,-1.1806,-1.1806,-1.1806,-1.1776,-1.1742,-1.1432,-1.1061,-1.0728,-1.0425,-1.0092,-0.991,-0.9788,-0.9788,-0.9788,-0.9788,-0.9788,-0.9788,-0.9788,-0.9788,-0.9697,-0.9299,-0.7886,-0.6508,-0.5255,-0.3939,-0.2543,-0.2048,-0.2076,-0.2104,-0.2141,-0.217,-0.2184,-0.2188,-0.2188,-0.2155,-0.2087,-0.1751,-0.1212,-0.1077,-0.0707,0.0,0.0,0.0,0.0,0.0,0.0,0.0,0.0,0.2501,0.4262,0.5708,0.7087,0.8646,0.9304,0.9304,0.9304,0.9304,0.9304,0.9304,0.9304,0.9304,0.9304,0.9304,0.9304,0.9304,0.9304,0.9304,0.9304,0.9304,0.9304,0.9304,0.9304,0.9304,0.9304,0.9304,0.9304,0.9374,0.9554,0.9954,1.0278,1.0645,1.0933,1.1221,1.1329,1.1332]},{"header":{"parameterUnit":"m.s-1","parameterCategory":1,"la1":31.0,"la2":29.5877,"lo1":-88.7671,"lo2":-86.6584,"dy":0.0162,"dx":0.0185,"nx":115,"ny":88,"refTime":"2024-05-30T12:00:00:Z","depth":0,"parameterNumber":3,"parameterNumberName":"V-component_of_WINDS"},"data":[0.0,0.0,0.0,0.0,0.0,0.0,0.0,0.0,0.0,0.0,0.0,0.0,0.0,0.0,0.0,0.0,0.0,0.0,0.0,0.0,0.0,0.0,0.0,0.0,0.0,0.0,0.0,0.0,0.0,0.0,0.0,0.0,0.0,0.0,0.0,0.0,0.0,0.0,0.0,0.0,0.0,0.0,0.0,0.0,0.0,0.0,0.0,0.0,0.0,0.0,0.0,0.0,0.0,0.0,0.0,0.0,0.0,0.0,0.0,0.0,0.0,0.0,0.0,0.0,0.0,0.0,0.0,0.0,0.0,0.0,0.0,0.0,0.0,0.0,0.0,0.0,0.0,0.0,0.0,0.0,0.0,0.0,0.0,0.0,0.0,0.0,0.0,0.0,0.0,0.0,0.0,0.0,0.0,0.0,0.0,0.0,0.0,0.0,0.0,0.0,0.0,0.0,0.0,0.0,0.0,0.0,0.0,0.0,0.0,0.0,0.0,0.0,0.0,0.0,0.0,0.0,0.0,0.0,0.0,0.0,0.0,0.0,0.0,0.0,0.0,0.0,0.0,0.0,0.0,0.0,0.0,0.0,0.0,0.0,0.0,0.0,0.0,0.0,0.0,0.0,0.0,0.0,0.0,0.0,0.0,0.0,0.0,0.0,0.0,0.0,0.0,0.0,0.0,0.0,0.0,0.0,0.0,0.0,0.0,0.0,0.0,0.0,0.0,0.0,0.0,0.0,0.0,0.0,0.0,0.0,0.0,0.0,0.0,0.0,0.0,0.0,0.0,0.0,0.0,0.0,0.0,0.0,0.0,0.0,0.0,0.0,0.0,0.0,0.0,0.0,0.0,0.0,0.0,0.0,0.0,0.0,0.0,0.0,0.0,0.0,0.0,0.0,0.0,0.0,0.0,0.0,0.0,0.0,0.0,0.0,0.0,0.0,0.0,0.0,0.0,0.0,0.0,0.0,0.0,0.0,0.0,0.0,0.0,0.0,0.0,0.0,0.0,0.0,0.0,0.0,0.0,0.0,0.0,0.0,0.0,0.0,0.0,0.0,0.0,0.0,0.0,0.0,0.0,0.0,0.0,0.0,0.0,0.0,0.0,0.0,0.0,0.0,0.0,0.0,0.0,0.0,0.0,0.0,0.0,0.0,0.0,0.0,0.0,0.0,0.0,0.0,0.0,0.0,0.0,0.0,0.0,0.0,0.0,0.0,0.0,0.0,0.0,0.0,0.0,0.0,0.0,0.0,0.0,0.0,0.0,0.0,0.0,0.0,0.0,0.0,0.0,0.0,0.0,0.0,0.0,0.0,0.0,0.0,0.0,0.0,0.0,0.0,0.0,0.0,0.0,0.0,0.0,0.0,0.0,0.0,0.0,0.0,0.0,0.0,0.0,0.0,0.0,0.0,0.0,0.0,0.0,0.0,0.0,0.0,0.0,0.0,0.0,0.0,0.0,0.0,0.0,0.0,0.0,0.0,0.0,0.0,0.0,0.0,0.0,0.0,0.0,0.0,0.0,0.0,0.0,0.0,0.0,0.0,0.0,0.0,0.0,0.0,0.0,0.0,0.0,0.0,0.0,0.0,0.0,0.0,0.0,0.0,0.0,0.0,0.0,0.0,0.0,0.0,0.0,0.0,0.0,0.0,0.0,0.0,0.0,0.0,0.0,0.0,0.0,0.0,0.0,0.0,0.0,0.0,0.0,0.0,0.0,0.0,0.0,0.0,0.0,0.0,0.0,0.0,0.0,0.0,0.0,0.0,0.0,0.0,0.0,0.0,0.0,0.0,0.0,0.0,0.0,0.0,0.0,0.0,0.0,0.0,0.0,0.0,0.0,0.0,0.0,0.0,0.0,0.0,0.0,0.0,0.0,0.0,0.0,0.0,0.0,0.0,0.0,0.0,0.0,0.0,0.0,0.0,0.0,0.0,0.0,0.0,0.0,0.0,0.0,0.0,0.0,0.0,0.0,0.0,0.0,0.0,0.0,0.0,0.0,0.0,0.0,0.0,0.0,0.0,0.0,0.0,0.0,0.0,0.0,0.0,0.0,0.0,0.0,0.0,0.0,0.0,0.0,0.0,0.0,0.0,0.0,0.0,0.0,0.0,0.0,0.0,0.0,0.0,0.0,0.0,0.0,0.0,0.0,0.0,0.0,0.0,0.0,0.0,0.0,0.0,0.0,0.0,0.0,0.0,0.0,0.0,0.0,0.0,0.0,0.0,0.0,0.0,0.0,0.0,0.0,0.0,0.0,0.0,0.0,0.0,0.0,0.0,0.0,0.0,0.0,0.0,0.0,0.0,0.0,0.0,0.0,0.0,0.0,0.0,0.0,0.0,0.0,0.0,0.0,0.0,0.0,0.0,0.0,0.0,0.0,0.0,0.0,0.0,0.0,0.0,0.0,0.0,0.0,0.0,0.0,0.0,0.0,0.0,0.0,0.0,0.0,0.0,0.0,0.0,0.0,0.0,0.0,0.0,0.0,0.0,0.0,0.0,0.0,0.0,0.0,0.0,0.0,0.0,0.0,0.0,0.0,0.0,0.0,0.0,0.0,0.0,0.0,0.0,0.0,0.0,0.0,0.0,0.0,0.0,0.0,0.0,0.0,0.0,0.0,0.0,0.0,0.0,0.0,0.0,0.0,0.0,0.0,0.0,0.0,0.0,0.0,0.0,0.0,0.0,0.0,0.0,0.0,0.0,0.0,0.0,0.0,0.0,0.0,0.0,0.0,0.0,0.0,0.0,0.0,0.0,0.0,0.0,0.0,0.0,0.0,0.0,0.0,0.0,0.0,0.0,0.0,0.0,0.0,0.0,0.0,0.0,0.0,0.0,0.0,0.0,0.0,0.0,0.0,0.0,0.0,0.0,0.0,0.0,0.0,0.0,0.0,0.0,0.0,0.0,0.0,0.0,0.0,0.0,0.0,0.0,0.0,0.0,0.0,0.0,0.0,0.0,0.0,0.0,0.0,0.0,0.0,0.0,0.0,0.0,0.0,0.0,0.0,0.0,0.0,0.0,0.0,0.0,0.0,0.0,0.0,0.0,0.0,0.0,0.0,0.0,0.0,0.0,0.0,0.0,0.0,0.0,0.0,0.0,0.0,0.0,0.0,0.0,0.0,0.0,0.0,0.0,0.0,0.0,0.0,0.0,0.0,0.0,0.0,0.0,0.0,0.0,0.0,0.0,0.0,0.0,0.0,0.0,0.0,0.0,0.0,0.0,0.0,0.0,0.0,0.0,0.0,0.0,0.0,0.0,0.0,0.0,0.0,0.0,0.0,0.0,0.0,0.0,0.0,0.0,0.0,0.0,0.0,0.0,0.0,0.0,0.0,0.0,0.0,0.0,0.0,0.0,0.0,0.0,0.0,0.0,0.0,0.0,0.0,0.0,0.0,0.0,0.0,0.0,0.0,0.0,0.0,0.0,0.0,0.0,0.0,0.0,0.0,0.0,0.0,0.0,0.0,0.0,0.0,0.0,0.0,0.0,0.0,0.0,0.0,0.0,0.0,0.0,0.0,0.0,0.0,0.0,0.0,0.0,0.0,0.0,0.0,0.0,0.0,0.0,0.0,0.0,0.0,0.0,0.0,0.0,0.0,0.0,0.0,0.0,0.0,0.0,0.0,0.0,0.0,0.0,0.0,0.0,0.0,0.0,0.0,0.0,0.0,0.0,0.0,0.0,0.0,0.0,0.0,0.0,0.0,0.0,0.0,0.0,0.0,0.0,0.0,0.0,0.0,0.0,0.0,0.0,0.0,0.0,0.0,0.0,0.0,0.0,0.0,0.0,0.0,0.0,0.0,0.0,0.0,0.0,0.0,0.0,0.0,0.0,0.0,0.0,0.0,0.0,0.0,0.0,0.0,0.0,0.0,0.0,0.0,0.0,0.0,0.0,0.0,0.0,0.0,0.0,0.0,0.0,0.0,0.0,0.0,0.0,0.0,0.0,0.0,0.0,0.0,0.0,0.0,0.0,0.0,0.0,0.0,0.0,0.0,0.0,0.0,0.0,0.0,0.0,0.0,0.0,0.0,0.0,0.0,0.0,0.0,0.0,0.0,0.0,0.0,0.0,0.0,0.0,0.0,0.0,0.0,0.0,0.0,0.0,0.0,0.0,0.0,0.0,0.0,0.0,0.0,0.0,0.0,0.0,0.0,0.0,0.0,0.0,0.0,0.0,0.0,0.0,0.0,0.0,0.0,0.0,0.0,0.0,0.0,0.0,0.0,0.0,0.0,0.0,0.0,0.0,0.0,0.0,0.0,0.0,0.0,0.0,2.5599,0.0,0.0,0.0,0.0,0.0,0.0,0.0,0.0,0.0,0.0,0.0,0.0,0.0,0.0,0.0,0.0,0.0,0.0,0.0,0.0,0.0,0.0,0.0,0.0,0.0,0.0,0.0,0.0,0.0,0.0,0.0,0.0,0.0,0.0,0.0,0.0,0.0,0.0,0.0,0.0,0.0,0.0,0.0,0.0,0.0,0.0,0.0,0.0,0.0,0.0,0.0,0.0,0.0,0.0,0.0,0.0,0.0,0.0,0.0,0.0,0.0,0.0,0.0,0.0,0.0,0.0,0.0,0.0,0.0,0.0,0.0,0.0,0.0,0.0,0.0,0.0,0.0,0.0,0.0,0.0,0.0,0.0,0.0,0.0,0.0,0.0,0.0,0.0,0.0,0.0,0.0,0.0,0.0,0.0,0.0,0.0,0.0,0.0,0.0,0.0,0.0,0.0,0.0,0.0,0.0,0.0,0.0,0.0,0.0,0.0,2.5663,2.5602,2.5612,2.5601,2.5605,0.0,0.0,0.0,0.0,0.0,0.0,0.0,0.0,0.0,0.0,0.0,0.0,0.0,0.0,0.0,0.0,0.0,0.0,0.0,0.0,0.0,0.0,0.0,0.0,0.0,0.0,0.0,0.0,0.0,0.0,0.0,0.0,0.0,0.0,0.0,0.0,0.0,0.0,0.0,0.0,0.0,0.0,0.0,0.0,0.0,0.0,0.0,0.0,0.0,0.0,0.0,0.0,0.0,0.0,0.0,0.0,0.0,0.0,0.0,0.0,0.0,0.0,0.0,0.0,0.0,0.0,0.0,0.0,0.0,0.0,0.0,0.0,0.0,0.0,0.0,0.0,0.0,0.0,0.0,0.0,0.0,0.0,0.0,0.0,0.0,0.0,0.0,0.0,0.0,0.0,0.0,0.0,0.0,0.0,0.0,0.0,0.0,0.0,0.0,0.0,0.0,0.0,0.0,0.0,0.0,0.0,0.0,0.0,0.0,0.0,0.0,0.0,2.5897,2.5882,2.5897,0.0,0.0,0.0,0.0,0.0,0.0,0.0,0.0,0.0,0.0,0.0,0.0,0.0,0.0,0.0,0.0,0.0,0.0,0.0,0.0,0.0,0.0,0.0,0.0,0.0,0.0,0.0,0.0,0.0,0.0,0.0,0.0,0.0,0.0,0.0,0.0,0.0,0.0,0.0,0.0,0.0,0.0,0.0,0.0,0.0,0.0,0.0,0.0,0.0,0.0,0.0,0.0,0.0,0.0,0.0,0.0,0.0,0.0,0.0,0.0,0.0,0.0,0.0,0.0,0.0,0.0,0.0,0.0,0.0,0.0,0.0,0.0,0.0,0.0,0.0,0.0,0.0,0.0,0.0,0.0,0.0,0.0,0.0,0.0,0.0,0.0,0.0,0.0,0.0,0.0,0.0,0.0,0.0,0.0,0.0,0.0,0.0,0.0,0.0,0.0,0.0,0.0,0.0,0.0,0.0,0.0,0.0,0.0,0.0,0.0,2.6054,2.6757,2.6774,0.0,2.678,0.0,0.0,0.0,0.0,0.0,0.0,0.0,0.0,0.0,0.0,0.0,0.0,0.0,0.0,0.0,0.0,0.0,0.0,0.0,0.0,0.0,0.0,0.0,0.0,0.0,0.0,0.0,0.0,0.0,0.0,0.0,0.0,0.0,0.0,0.0,0.0,0.0,0.0,0.0,0.0,0.0,0.0,0.0,0.0,0.0,0.0,0.0,0.0,0.0,0.0,0.0,0.0,0.0,0.0,0.0,0.0,0.0,0.0,0.0,0.0,0.0,0.0,0.0,0.0,0.0,0.0,0.0,0.0,0.0,0.0,0.0,0.0,0.0,0.0,0.0,0.0,0.0,0.0,0.0,0.0,0.0,0.0,0.0,0.0,0.0,0.0,0.0,0.0,0.0,0.0,0.0,0.0,0.0,0.0,0.0,0.0,0.0,0.0,0.0,0.0,0.0,0.0,0.0,0.0,0.0,0.0,0.0,0.0,0.0,0.0,2.6093,2.6875,2.688,2.6893,0.0,0.0,0.0,0.0,0.0,0.0,0.0,0.0,0.0,0.0,0.0,0.0,0.0,0.0,0.0,0.0,0.0,0.0,0.0,0.0,0.0,0.0,0.0,0.0,0.0,0.0,0.0,0.0,0.0,0.0,0.0,0.0,0.0,0.0,0.0,0.0,0.0,0.0,0.0,0.0,0.0,0.0,0.0,0.0,0.0,0.0,0.0,0.0,0.0,0.0,0.0,0.0,0.0,0.0,0.0,0.0,0.0,0.0,0.0,0.0,0.0,0.0,0.0,0.0,0.0,0.0,0.0,0.0,0.0,0.0,0.0,0.0,0.0,0.0,0.0,0.0,0.0,0.0,0.0,0.0,0.0,0.0,0.0,0.0,0.0,0.0,0.0,0.0,0.0,0.0,0.0,0.0,0.0,0.0,0.0,0.0,0.0,0.0,0.0,0.0,0.0,0.0,0.0,0.0,0.0,0.0,0.0,0.0,0.0,0.0,2.5935,0.0,2.7189,2.7256,2.7001,2.6554,0.0,0.0,0.0,0.0,0.0,0.0,0.0,0.0,0.0,0.0,0.0,0.0,0.0,0.0,0.0,0.0,0.0,0.0,0.0,0.0,0.0,0.0,0.0,0.0,0.0,0.0,0.0,0.0,0.0,0.0,0.0,0.0,0.0,0.0,0.0,0.0,0.0,0.0,0.0,0.0,0.0,0.0,0.0,0.0,0.0,0.0,0.0,0.0,0.0,0.0,0.0,0.0,0.0,0.0,0.0,0.0,0.0,0.0,0.0,0.0,0.0,0.0,0.0,0.0,0.0,0.0,0.0,0.0,0.0,0.0,0.0,0.0,0.0,0.0,0.0,0.0,0.0,0.0,0.0,0.0,0.0,0.0,0.0,0.0,0.0,0.0,0.0,0.0,0.0,0.0,0.0,0.0,0.0,0.0,0.0,0.0,0.0,0.0,0.0,0.0,0.0,0.0,0.0,0.0,0.0,0.0,0.0,0.0,0.0,2.6548,2.6503,2.8089,2.8091,2.7288,0.0,0.0,0.0,0.0,0.0,0.0,0.0,0.0,0.0,0.0,0.0,0.0,0.0,0.0,0.0,0.0,0.0,0.0,0.0,0.0,0.0,0.0,0.0,0.0,0.0,0.0,0.0,0.0,0.0,0.0,0.0,0.0,0.0,0.0,0.0,0.0,0.0,0.0,0.0,0.0,0.0,0.0,0.0,0.0,0.0,0.0,0.0,0.0,0.0,0.0,0.0,0.0,0.0,0.0,0.0,0.0,0.0,0.0,0.0,0.0,0.0,0.0,0.0,0.0,0.0,0.0,0.0,0.0,0.0,0.0,0.0,0.0,0.0,0.0,0.0,0.0,0.0,0.0,0.0,0.0,0.0,0.0,0.0,0.0,0.0,0.0,0.0,0.0,0.0,0.0,0.0,0.0,0.0,0.0,0.0,0.0,0.0,0.0,0.0,0.0,0.0,0.0,0.0,0.0,0.0,0.0,0.0,0.0,0.0,2.6511,2.656,2.7324,2.8923,2.7923,2.7056,0.0,0.0,0.0,0.0,0.0,0.0,0.0,0.0,0.0,0.0,0.0,0.0,0.0,0.0,0.0,0.0,0.0,0.0,0.0,0.0,0.0,0.0,0.0,0.0,0.0,0.0,0.0,0.0,0.0,0.0,0.0,0.0,0.0,0.0,0.0,0.0,0.0,0.0,0.0,0.0,0.0,0.0,0.0,0.0,0.0,0.0,0.0,0.0,0.0,0.0,0.0,0.0,0.0,0.0,0.0,0.0,0.0,0.0,0.0,0.0,0.0,0.0,0.0,0.0,0.0,0.0,0.0,0.0,0.0,0.0,0.0,0.0,0.0,0.0,0.0,0.0,0.0,0.0,0.0,0.0,0.0,0.0,0.0,0.0,0.0,0.0,0.0,0.0,0.0,0.0,0.0,0.0,0.0,0.0,0.0,0.0,0.0,0.0,0.0,0.0,0.0,0.0,0.0,0.0,0.0,0.0,0.0,0.0,0.0,2.6065,0.0,2.8241,0.0,2.7949,2.6929,0.0,0.0,0.0,0.0,0.0,0.0,0.0,0.0,0.0,0.0,0.0,0.0,0.0,0.0,0.0,0.0,0.0,0.0,0.0,0.0,0.0,0.0,0.0,0.0,0.0,0.0,0.0,0.0,0.0,0.0,0.0,0.0,0.0,0.0,0.0,0.0,0.0,0.0,0.0,0.0,0.0,0.0,0.0,0.0,0.0,0.0,0.0,0.0,0.0,0.0,0.0,0.0,0.0,0.0,0.0,0.0,0.0,0.0,0.0,0.0,0.0,0.0,0.0,0.0,0.0,0.0,0.0,0.0,0.0,0.0,0.0,0.0,0.0,0.0,0.0,0.0,0.0,0.0,0.0,0.0,0.0,0.0,0.0,0.0,0.0,0.0,0.0,0.0,0.0,0.0,0.0,0.0,0.0,0.0,0.0,0.0,0.0,0.0,0.0,0.0,0.0,0.0,0.0,0.0,0.0,0.0,0.0,0.0,2.5289,2.6925,2.8593,2.9082,2.8281,2.8196,2.6995,0.0,0.0,0.0,0.0,0.0,0.0,0.0,0.0,0.0,0.0,0.0,0.0,0.0,0.0,0.0,0.0,0.0,0.0,0.0,0.0,0.0,0.0,0.0,0.0,0.0,0.0,0.0,0.0,0.0,0.0,0.0,0.0,0.0,0.0,0.0,0.0,0.0,0.0,0.0,0.0,0.0,0.0,0.0,0.0,0.0,0.0,0.0,0.0,0.0,0.0,0.0,0.0,0.0,0.0,0.0,0.0,0.0,0.0,0.0,0.0,0.0,0.0,0.0,0.0,0.0,0.0,0.0,0.0,0.0,0.0,0.0,0.0,0.0,0.0,0.0,0.0,0.0,0.0,0.0,0.0,0.0,0.0,0.0,0.0,0.0,0.0,0.0,0.0,0.0,0.0,0.0,0.0,0.0,0.0,0.0,0.0,0.0,0.0,0.0,0.0,0.0,0.0,0.0,0.0,0.0,0.0,0.0,0.0,0.0,2.6187,2.834,2.9687,2.9995,2.8278,2.7214,0.0,0.0,0.0,0.0,0.0,0.0,0.0,0.0,0.0,0.0,0.0,0.0,0.0,0.0,0.0,0.0,0.0,0.0,0.0,0.0,0.0,0.0,0.0,0.0,0.0,0.0,0.0,0.0,0.0,0.0,0.0,0.0,0.0,0.0,0.0,0.0,0.0,0.0,0.0,0.0,0.0,0.0,0.0,0.0,0.0,0.0,0.0,0.0,0.0,0.0,0.0,0.0,0.0,0.0,0.0,0.0,0.0,0.0,0.0,0.0,0.0,0.0,0.0,0.0,0.0,0.0,0.0,0.0,0.0,0.0,0.0,0.0,0.0,0.0,0.0,0.0,0.0,0.0,0.0,0.0,0.0,0.0,0.0,0.0,0.0,0.0,0.0,0.0,0.0,0.0,0.0,0.0,0.0,0.0,0.0,0.0,0.0,0.0,0.0,0.0,0.0,0.0,0.0,0.0,0.0,0.0,0.0,0.0,0.0,2.8257,2.9931,3.0892,3.0859,2.9231,2.8303,2.8151,0.0,0.0,0.0,0.0,0.0,0.0,0.0,0.0,0.0,0.0,0.0,0.0,0.0,0.0,0.0,0.0,0.0,0.0,0.0,0.0,0.0,0.0,0.0,0.0,0.0,0.0,0.0,0.0,0.0,0.0,0.0,0.0,0.0,0.0,0.0,0.0,0.0,0.0,0.0,0.0,0.0,0.0,0.0,0.0,0.0,0.0,0.0,0.0,0.0,0.0,0.0,0.0,0.0,0.0,0.0,0.0,0.0,0.0,0.0,0.0,0.0,0.0,0.0,0.0,0.0,0.0,0.0,0.0,0.0,0.0,0.0,0.0,0.0,0.0,0.0,0.0,0.0,0.0,0.0,0.0,0.0,0.0,0.0,0.0,0.0,0.0,0.0,0.0,0.0,0.0,0.0,0.0,0.0,0.0,0.0,0.0,0.0,0.0,0.0,0.0,0.0,0.0,0.0,0.0,0.0,0.0,0.0,0.0,3.2245,3.3124,3.2803,3.1202,3.0947,3.0088,0.0,0.0,0.0,0.0,0.0,0.0,0.0,0.0,0.0,0.0,0.0,0.0,0.0,0.0,0.0,0.0,0.0,0.0,0.0,0.0,0.0,0.0,0.0,0.0,0.0,0.0,0.0,0.0,0.0,0.0,0.0,0.0,0.0,0.0,0.0,0.0,0.0,0.0,0.0,0.0,0.0,0.0,0.0,0.0,0.0,0.0,0.0,0.0,0.0,0.0,0.0,0.0,0.0,0.0,0.0,0.0,0.0,0.0,0.0,0.0,0.0,0.0,0.0,0.0,0.0,0.0,0.0,0.0,0.0,0.0,0.0,0.0,0.0,0.0,0.0,0.0,0.0,0.0,0.0,0.0,0.0,0.0,0.0,0.0,0.0,0.0,0.0,0.0,0.0,0.0,0.0,0.0,0.0,0.0,0.0,0.0,0.0,0.0,0.0,0.0,0.0,0.0,0.0,0.0,0.0,0.0,0.0,0.0,0.0,3.3992,3.593,3.6223,3.4589,3.27,3.148,0.0,0.0,0.0,0.0,0.0,0.0,0.0,0.0,0.0,0.0,0.0,0.0,0.0,0.0,0.0,0.0,0.0,0.0,0.0,0.0,0.0,0.0,0.0,0.0,0.0,0.0,0.0,0.0,0.0,0.0,0.0,0.0,0.0,0.0,0.0,0.0,0.0,0.0,0.0,0.0,0.0,0.0,0.0,0.0,0.0,0.0,0.0,0.0,0.0,0.0,0.0,0.0,0.0,0.0,0.0,0.0,0.0,0.0,0.0,0.0,0.0,0.0,0.0,0.0,0.0,0.0,0.0,0.0,0.0,0.0,0.0,0.0,0.0,0.0,0.0,0.0,0.0,0.0,0.0,0.0,0.0,0.0,0.0,0.0,0.0,0.0,0.0,0.0,0.0,0.0,0.0,0.0,0.0,0.0,0.0,0.0,0.0,0.0,0.0,0.0,0.0,0.0,0.0,0.0,0.0,0.0,0.0,0.0,3.4938,3.6206,3.8277,3.8954,3.8022,3.5506,3.3646,0.0,0.0,0.0,0.0,0.0,0.0,0.0,0.0,0.0,0.0,0.0,0.0,0.0,0.0,0.0,0.0,0.0,0.0,0.0,0.0,0.0,0.0,0.0,0.0,0.0,0.0,0.0,0.0,0.0,0.0,0.0,0.0,0.0,0.0,0.0,0.0,0.0,0.0,0.0,0.0,0.0,0.0,0.0,0.0,0.0,0.0,0.0,0.0,0.0,0.0,0.0,0.0,0.0,0.0,0.0,0.0,0.0,0.0,0.0,0.0,0.0,0.0,0.0,0.0,0.0,0.0,0.0,0.0,0.0,0.0,0.0,0.0,0.0,0.0,0.0,0.0,0.0,0.0,0.0,0.0,0.0,0.0,0.0,0.0,0.0,0.0,0.0,0.0,0.0,0.0,0.0,0.0,0.0,0.0,0.0,0.0,0.0,0.0,0.0,0.0,0.0,0.0,0.0,0.0,0.0,0.0,0.0,0.0,3.6867,3.8501,4.0172,4.1024,4.0966,3.8479,3.5935,0.0,0.0,0.0,0.0,0.0,0.0,0.0,0.0,0.0,0.0,0.0,0.0,0.0,0.0,0.0,0.0,0.0,0.0,0.0,0.0,0.0,0.0,0.0,0.0,0.0,0.0,0.0,0.0,0.0,0.0,0.0,0.0,0.0,0.0,0.0,0.0,0.0,0.0,0.0,0.0,0.0,0.0,0.0,0.0,0.0,0.0,0.0,0.0,0.0,0.0,0.0,0.0,0.0,0.0,0.0,0.0,0.0,0.0,0.0,0.0,0.0,0.0,0.0,0.0,0.0,0.0,0.0,0.0,0.0,0.0,0.0,0.0,0.0,0.0,0.0,0.0,0.0,0.0,0.0,0.0,0.0,0.0,0.0,0.0,0.0,0.0,0.0,0.0,0.0,0.0,0.0,0.0,0.0,0.0,0.0,0.0,0.0,0.0,0.0,0.0,0.0,0.0,0.0,0.0,0.0,0.0,0.0,0.0,3.8365,3.9429,4.1065,4.192,4.19,3.879,3.6187,0.0,0.0,0.0,0.0,0.0,0.0,0.0,0.0,0.0,0.0,0.0,0.0,0.0,0.0,0.0,0.0,0.0,0.0,0.0,0.0,0.0,0.0,0.0,0.0,0.0,0.0,0.0,0.0,0.0,0.0,0.0,0.0,0.0,0.0,0.0,0.0,0.0,0.0,0.0,0.0,0.0,0.0,0.0,0.0,0.0,0.0,0.0,0.0,3.0906,0.0,0.0,0.0,0.0,0.0,0.0,0.0,0.0,0.0,0.0,0.0,0.0,0.0,0.0,0.0,0.0,0.0,0.0,0.0,0.0,0.0,0.0,0.0,0.0,0.0,0.0,0.0,0.0,0.0,0.0,0.0,0.0,0.0,0.0,0.0,0.0,0.0,0.0,0.0,0.0,0.0,0.0,0.0,0.0,0.0,0.0,0.0,0.0,0.0,0.0,0.0,0.0,0.0,0.0,0.0,0.0,0.0,0.0,0.0,3.9172,4.083,4.1745,4.2386,4.2677,3.9895,3.7312,0.0,0.0,0.0,0.0,0.0,0.0,0.0,0.0,0.0,0.0,0.0,0.0,0.0,0.0,0.0,0.0,0.0,0.0,0.0,0.0,0.0,0.0,0.0,0.0,0.0,0.0,0.0,0.0,0.0,0.0,0.0,0.0,0.0,0.0,0.0,0.0,0.0,0.0,0.0,0.0,0.0,0.0,0.0,0.0,0.0,0.0,0.0,0.0,0.0,0.0,0.0,0.0,0.0,0.0,0.0,0.0,0.0,0.0,0.0,0.0,0.0,0.0,0.0,0.0,0.0,0.0,0.0,0.0,0.0,0.0,0.0,0.0,0.0,0.0,0.0,0.0,0.0,0.0,0.0,0.0,0.0,0.0,0.0,0.0,0.0,0.0,0.0,0.0,0.0,0.0,0.0,0.0,0.0,0.0,0.0,0.0,0.0,0.0,0.0,0.0,0.0,0.0,0.0,0.0,0.0,0.0,0.0,3.6895,3.9762,4.2267,4.2405,4.2753,4.343,4.1158,3.8591,3.5913,0.0,0.0,0.0,0.0,0.0,0.0,0.0,0.0,0.0,0.0,0.0,0.0,0.0,0.0,0.0,0.0,0.0,0.0,0.0,0.0,0.0,0.0,0.0,0.0,0.0,0.0,0.0,0.0,0.0,0.0,0.0,0.0,0.0,0.0,0.0,0.0,0.0,0.0,2.9777,3.1048,0.0,0.0,0.0,0.0,0.0,0.0,0.0,0.0,3.2354,0.0,0.0,0.0,0.0,0.0,0.0,0.0,0.0,0.0,0.0,0.0,0.0,0.0,0.0,0.0,0.0,0.0,0.0,0.0,0.0,0.0,0.0,0.0,0.0,0.0,0.0,0.0,0.0,0.0,0.0,0.0,0.0,0.0,0.0,0.0,0.0,0.0,0.0,0.0,0.0,0.0,0.0,0.0,0.0,0.0,0.0,0.0,0.0,0.0,0.0,0.0,0.0,0.0,0.0,0.0,0.0,3.6407,3.8391,4.0636,4.3197,4.3275,4.3352,4.3449,4.1682,3.9157,3.5974,0.0,0.0,0.0,0.0,0.0,0.0,0.0,0.0,0.0,0.0,0.0,0.0,0.0,0.0,0.0,0.0,0.0,0.0,0.0,0.0,0.0,0.0,0.0,0.0,0.0,0.0,0.0,0.0,0.0,0.0,0.0,0.0,0.0,0.0,0.0,0.0,0.0,0.0,0.0,3.2701,3.3105,0.0,0.0,0.0,0.0,0.0,0.0,0.0,0.0,3.3187,0.0,0.0,0.0,0.0,0.0,0.0,0.0,0.0,0.0,0.0,0.0,0.0,0.0,0.0,0.0,0.0,0.0,0.0,0.0,0.0,0.0,0.0,0.0,0.0,0.0,0.0,0.0,0.0,0.0,0.0,0.0,0.0,0.0,0.0,0.0,0.0,0.0,0.0,0.0,0.0,0.0,0.0,0.0,0.0,0.0,0.0,0.0,0.0,0.0,0.0,0.0,0.0,0.0,0.0,0.0,3.6316,3.9396,4.1781,4.3428,4.3486,4.3486,4.3428,4.0966,3.8402,0.0,0.0,0.0,0.0,0.0,0.0,0.0,0.0,0.0,0.0,0.0,0.0,0.0,0.0,0.0,0.0,0.0,0.0,0.0,0.0,0.0,0.0,0.0,0.0,0.0,0.0,0.0,0.0,0.0,0.0,0.0,0.0,0.0,0.0,0.0,0.0,0.0,0.0,0.0,0.0,3.3964,3.4253,3.5971,0.0,0.0,0.0,0.0,0.0,0.0,3.3912,3.3323,0.0,0.0,0.0,0.0,0.0,0.0,0.0,0.0,0.0,0.0,0.0,0.0,0.0,0.0,0.0,0.0,0.0,0.0,0.0,0.0,0.0,0.0,0.0,0.0,0.0,0.0,0.0,0.0,0.0,0.0,0.0,0.0,0.0,0.0,0.0,0.0,0.0,0.0,0.0,0.0,0.0,0.0,0.0,0.0,0.0,0.0,0.0,0.0,0.0,0.0,0.0,0.0,0.0,0.0,0.0,3.5744,3.982,4.2441,4.3447,4.3486,4.3486,4.343,4.0346,3.7769,0.0,0.0,0.0,0.0,0.0,0.0,0.0,0.0,0.0,0.0,0.0,0.0,0.0,0.0,0.0,0.0,0.0,0.0,0.0,0.0,0.0,0.0,0.0,0.0,0.0,0.0,0.0,0.0,0.0,0.0,0.0,0.0,0.0,0.0,0.0,0.0,0.0,0.0,0.0,0.0,0.0,3.5896,3.7722,3.6128,0.0,0.0,0.0,0.0,3.5785,3.5106,0.0,0.0,0.0,0.0,0.0,0.0,0.0,0.0,0.0,0.0,0.0,0.0,0.0,0.0,0.0,0.0,0.0,0.0,0.0,0.0,0.0,0.0,0.0,0.0,0.0,0.0,0.0,0.0,0.0,0.0,0.0,0.0,0.0,0.0,0.0,0.0,0.0,0.0,0.0,0.0,0.0,0.0,0.0,0.0,0.0,0.0,0.0,0.0,0.0,0.0,0.0,0.0,0.0,0.0,0.0,0.0,3.5769,3.9265,4.1837,4.3408,4.3486,4.3486,4.3466,4.0944,3.8392,0.0,0.0,0.0,0.0,0.0,0.0,0.0,0.0,0.0,0.0,0.0,0.0,0.0,0.0,0.0,0.0,0.0,0.0,0.0,0.0,0.0,0.0,0.0,0.0,0.0,0.0,0.0,0.0,0.0,0.0,0.0,0.0,0.0,0.0,0.0,0.0,0.0,0.0,0.0,0.0,0.0,3.8534,3.8065,3.7727,3.7221,0.0,0.0,3.8296,3.7727,3.8748,0.0,0.0,0.0,0.0,0.0,0.0,0.0,0.0,0.0,0.0,0.0,0.0,0.0,0.0,0.0,0.0,0.0,0.0,0.0,0.0,0.0,0.0,0.0,0.0,0.0,0.0,0.0,0.0,0.0,0.0,0.0,0.0,0.0,0.0,0.0,0.0,0.0,0.0,0.0,0.0,0.0,0.0,0.0,0.0,0.0,0.0,0.0,0.0,0.0,0.0,0.0,0.0,0.0,0.0,0.0,3.3347,3.5832,4.0131,4.274,4.3466,4.3486,4.3486,4.3486,4.0072,3.75,0.0,0.0,0.0,0.0,0.0,0.0,0.0,0.0,0.0,0.0,0.0,0.0,0.0,0.0,0.0,0.0,0.0,0.0,0.0,0.0,0.0,0.0,0.0,0.0,0.0,0.0,0.0,0.0,0.0,0.0,0.0,0.0,0.0,0.0,0.0,0.0,0.0,0.0,0.0,0.0,0.0,0.0,4.0004,3.9354,0.0,0.0,0.0,3.9827,3.9441,0.0,0.0,0.0,0.0,0.0,0.0,0.0,0.0,0.0,0.0,0.0,0.0,0.0,0.0,0.0,0.0,0.0,0.0,0.0,0.0,0.0,0.0,0.0,0.0,0.0,0.0,0.0,0.0,0.0,0.0,0.0,0.0,0.0,0.0,0.0,0.0,0.0,0.0,0.0,0.0,0.0,0.0,0.0,0.0,0.0,0.0,0.0,0.0,0.0,0.0,0.0,0.0,0.0,0.0,0.0,0.0,0.0,3.6168,4.0978,4.3605,4.3819,4.3605,4.3486,4.3428,3.9759,0.0,0.0,0.0,0.0,0.0,0.0,0.0,0.0,0.0,0.0,0.0,0.0,0.0,0.0,0.0,0.0,0.0,0.0,0.0,0.0,0.0,0.0,0.0,0.0,0.0,0.0,0.0,2.2226,0.0,0.0,0.0,0.0,0.0,0.0,0.0,0.0,0.0,0.0,0.0,0.0,0.0,0.0,3.9969,4.1869,4.1604,4.157,0.0,0.0,4.1967,4.1587,4.1947,4.1106,0.0,0.0,0.0,0.0,0.0,0.0,0.0,0.0,0.0,0.0,0.0,0.0,0.0,0.0,0.0,0.0,0.0,0.0,0.0,0.0,0.0,0.0,0.0,0.0,0.0,0.0,0.0,0.0,0.0,0.0,0.0,0.0,0.0,0.0,0.0,0.0,0.0,0.0,0.0,0.0,0.0,0.0,0.0,0.0,0.0,0.0,0.0,0.0,0.0,0.0,0.0,0.0,0.0,0.0,0.0,3.7059,4.1294,4.3896,4.4656,4.3916,4.3486,4.3449,4.0903,3.8375,0.0,0.0,0.0,0.0,0.0,0.0,0.0,0.0,0.0,0.0,0.0,0.0,0.0,0.0,0.0,0.0,0.0,0.0,0.0,0.0,0.0,0.0,0.0,0.0,0.0,0.0,0.0,0.0,0.0,0.0,0.0,0.0,0.0,0.0,0.0,0.0,0.0,0.0,0.0,0.0,0.0,4.2797,4.2989,4.4947,4.6124,0.0,0.0,4.598,4.4549,4.5574,4.4676,3.9096,0.0,0.0,0.0,0.0,0.0,0.0,0.0,0.0,0.0,0.0,0.0,0.0,0.0,0.0,0.0,0.0,0.0,0.0,0.0,0.0,0.0,0.0,0.0,0.0,0.0,0.0,0.0,0.0,0.0,0.0,0.0,0.0,0.0,0.0,0.0,0.0,0.0,0.0,0.0,0.0,0.0,0.0,0.0,0.0,0.0,0.0,0.0,0.0,0.0,0.0,0.0,0.0,0.0,3.4536,3.7098,4.1315,4.3935,4.4715,4.3954,4.3486,4.3486,4.1022,3.8511,0.0,0.0,0.0,0.0,0.0,0.0,0.0,0.0,0.0,0.0,0.0,0.0,0.0,0.0,0.0,0.0,0.0,0.0,0.0,0.0,0.0,0.0,0.0,0.0,0.0,0.0,0.0,0.0,2.8745,2.9546,3.0074,0.0,0.0,0.0,0.0,0.0,0.0,0.0,0.0,0.0,0.0,4.3805,4.5228,4.6268,0.0,0.0,4.7399,4.7376,4.678,4.6375,4.5024,4.1718,3.9853,0.0,0.0,0.0,0.0,0.0,0.0,0.0,0.0,0.0,0.0,0.0,0.0,0.0,0.0,0.0,0.0,0.0,0.0,0.0,0.0,0.0,0.0,0.0,0.0,0.0,0.0,0.0,0.0,0.0,0.0,0.0,0.0,0.0,0.0,0.0,0.0,0.0,0.0,0.0,0.0,0.0,0.0,0.0,0.0,0.0,0.0,0.0,0.0,0.0,0.0,0.0,0.0,3.4672,3.7469,4.1449,4.4035,4.5122,4.4326,4.376,4.3469,4.151,3.9254,0.0,0.0,0.0,0.0,0.0,0.0,0.0,0.0,0.0,0.0,0.0,0.0,0.0,0.0,0.0,0.0,0.0,0.0,0.0,0.0,0.0,0.0,0.0,0.0,0.0,0.0,0.0,0.0,3.0494,3.1137,3.1997,0.0,0.0,0.0,0.0,0.0,0.0,0.0,0.0,0.0,0.0,4.5306,4.7368,4.7884,4.8249,4.8809,4.8812,4.8593,4.8116,4.731,4.5991,4.3758,0.0,0.0,0.0,0.0,0.0,0.0,0.0,0.0,0.0,0.0,0.0,0.0,0.0,0.0,0.0,0.0,0.0,0.0,0.0,0.0,0.0,0.0,0.0,0.0,0.0,0.0,0.0,0.0,0.0,0.0,2.4194,0.0,0.0,0.0,0.0,0.0,0.0,0.0,0.0,0.0,0.0,0.0,0.0,0.0,0.0,0.0,0.0,0.0,0.0,0.0,0.0,0.0,0.0,3.4985,3.8348,4.176,4.4307,4.5883,4.5183,4.4345,4.3527,4.2617,4.0935,3.8345,0.0,0.0,0.0,0.0,0.0,0.0,0.0,0.0,0.0,0.0,0.0,0.0,0.0,0.0,0.0,0.0,0.0,0.0,0.0,0.0,0.0,0.0,0.0,0.0,0.0,0.0,2.8563,2.9846,3.1169,0.0,0.0,0.0,0.0,0.0,0.0,0.0,0.0,0.0,0.0,4.4992,4.7675,4.921,5.0107,5.0512,5.0443,5.0439,4.9901,4.8407,4.8761,4.8167,0.0,0.0,0.0,0.0,0.0,0.0,0.0,0.0,0.0,0.0,0.0,0.0,0.0,0.0,0.0,0.0,0.0,0.0,0.0,0.0,0.0,0.0,0.0,0.0,0.0,0.0,0.0,2.9222,2.8509,0.0,0.0,0.0,0.0,0.0,0.0,0.0,0.0,0.0,0.0,0.0,3.749,3.835,0.0,0.0,0.0,0.0,0.0,0.0,0.0,0.0,0.0,0.0,0.0,0.0,3.5509,3.8406,4.1779,4.4304,4.5921,4.5222,4.4404,4.3527,4.2658,4.0731,3.7631,0.0,0.0,0.0,0.0,0.0,0.0,0.0,0.0,0.0,0.0,0.0,0.0,0.0,0.0,0.0,0.0,0.0,0.0,0.0,0.0,0.0,0.0,0.0,0.0,0.0,3.0504,0.0,0.0,0.0,0.0,0.0,0.0,0.0,0.0,0.0,0.0,0.0,4.1925,4.485,4.6978,4.8777,5.0171,5.0707,5.1102,0.0,0.0,0.0,0.0,0.0,0.0,0.0,0.0,0.0,0.0,0.0,0.0,0.0,0.0,4.6863,4.1313,4.0038,3.9705,3.9299,0.0,0.0,0.0,0.0,0.0,0.0,0.0,0.0,0.0,0.0,0.0,0.0,0.0,0.0,3.3131,0.0,3.237,0.0,0.0,0.0,0.0,0.0,0.0,0.0,0.0,3.8978,4.075,4.1377,4.2188,4.2192,0.0,3.9408,3.6762,0.0,0.0,0.0,0.0,0.0,0.0,0.0,0.0,3.6226,3.8829,4.2187,4.4617,4.5902,4.5494,4.4812,4.3957,4.2844,4.0759,3.7642,3.542,3.3335,0.0,0.0,0.0,0.0,0.0,0.0,0.0,0.0,0.0,0.0,0.0,0.0,0.0,0.0,0.0,0.0,0.0,0.0,0.0,0.0,0.0,0.0,0.0,3.1609,0.0,0.0,0.0,0.0,0.0,0.0,0.0,0.0,0.0,3.9653,4.2203,4.4962,4.7574,4.9184,5.031,5.0829,0.0,0.0,0.0,0.0,0.0,0.0,0.0,4.9673,5.0016,4.8784,4.7827,4.8167,4.9937,5.1133,5.0492,0.0,0.0,4.5619,4.4324,4.3982,4.3579,4.4519,4.511,4.432,4.477,4.5243,0.0,0.0,0.0,0.0,0.0,0.0,0.0,0.0,3.719,3.6762,0.0,3.5943,0.0,0.0,0.0,0.0,0.0,3.6489,0.0,0.0,4.4794,4.6117,4.4856,4.5537,4.5557,4.4918,4.3961,4.2643,4.0767,3.6086,0.0,0.0,0.0,0.0,0.0,0.0,3.7174,3.9718,4.3063,4.5183,4.5963,4.5982,4.5572,4.4717,4.3148,4.1094,3.8652,3.8458,3.6582,3.2516,3.1423,0.0,0.0,0.0,0.0,0.0,0.0,0.0,0.0,0.0,0.0,0.0,0.0,0.0,0.0,0.0,0.0,0.0,0.0,0.0,0.0,3.112,0.0,0.0,0.0,0.0,0.0,0.0,0.0,0.0,0.0,0.0,4.2859,4.5417,4.8049,4.9782,0.0,0.0,0.0,0.0,5.2078,5.1099,5.1645,5.1927,5.1126,5.2973,5.4246,5.3491,0.0,0.0,5.1424,5.2303,5.282,5.1029,5.2111,5.3015,5.2678,5.0556,4.9274,4.981,4.9404,4.9309,4.9993,5.0461,5.0876,4.2507,0.0,0.0,0.0,0.0,3.9409,4.0832,4.3339,4.2618,4.2194,4.1901,4.0559,0.0,0.0,0.0,0.0,0.0,0.0,4.1027,4.3292,4.5763,4.7308,4.8113,4.8341,4.8326,4.811,4.6653,4.5397,4.4366,4.2929,3.8815,3.232,0.0,0.0,0.0,0.0,3.9545,4.1451,4.3668,4.5183,4.5982,4.5982,4.5317,4.3896,4.282,4.1568,4.022,3.9651,3.8518,3.6672,3.4675,0.0,0.0,0.0,0.0,0.0,0.0,0.0,0.0,0.0,0.0,0.0,0.0,0.0,0.0,0.0,0.0,0.0,0.0,0.0,3.1244,3.2372,3.3386,0.0,0.0,0.0,0.0,0.0,0.0,0.0,0.0,0.0,4.9272,4.9375,4.9619,0.0,0.0,5.152,5.1139,5.244,5.3307,5.2874,5.3654,0.0,5.3786,5.3356,5.3219,5.3685,5.432,5.4467,5.3556,5.4279,5.4841,5.4255,5.4591,5.4899,5.471,5.355,5.2399,5.2074,5.2566,5.3045,5.2855,5.3331,5.3642,4.8378,4.4875,4.2994,4.304,4.4291,4.3844,4.5225,4.7789,4.717,4.6728,4.6342,4.5227,4.3165,4.0376,3.9173,0.0,0.0,0.0,4.3778,4.6239,4.73,4.8534,4.9845,4.9908,4.992,4.9901,4.8581,4.7707,4.726,4.6556,4.3418,3.7955,0.0,0.0,3.5974,3.9062,4.1354,4.2716,4.4404,4.5514,4.5982,4.5982,4.5358,4.4054,4.318,4.2306,4.1454,4.0606,3.9785,3.8929,3.7158,3.4594,0.0,0.0,0.0,0.0,0.0,0.0,0.0,0.0,0.0,0.0,0.0,2.5917,0.0,0.0,0.0,0.0,3.0918,3.2812,3.4492,3.5741,0.0,0.0,0.0,0.0,0.0,0.0,0.0,4.5377,4.7774,5.0209,5.276,5.282,5.286,5.3618,5.3781,5.3697,5.3287,0.0,5.4762,5.4263,5.4737,5.51,5.4947,5.4666,5.4641,5.5224,5.5589,5.563,5.5198,5.5541,5.5818,5.5803,5.5768,5.5742,5.559,5.5242,5.4766,5.3964,5.479,5.545,5.5038,5.5588,5.5959,5.3022,5.2224,4.7875,4.7014,4.8443,4.8486,4.938,5.0798,5.0788,5.0322,4.9606,4.9538,4.7693,4.4506,4.2774,0.0,4.4566,4.5317,4.6967,4.9314,4.9352,4.9863,5.0654,5.0616,5.0658,5.0738,4.9943,4.9562,4.9493,4.7962,4.6437,4.4973,4.3521,4.1845,4.0203,4.1667,4.2949,4.3819,4.5317,4.6096,4.6096,4.6038,4.5591,4.4715,4.3916,4.3044,4.2134,4.1257,4.0496,3.9804,3.8889,3.6983,3.3861,0.0,0.0,0.0,0.0,0.0,0.0,0.0,0.0,0.0,0.0,0.0,0.0,0.0,0.0,0.0,3.4863,0.0,3.8572,4.0273,0.0,0.0,0.0,4.3092,4.4107,4.639,4.8238,4.9102,0.0,0.0,5.4275,5.568,5.6985,5.7779,5.7665,5.7241,5.6505,5.6318,5.6149,5.5165,5.5213,5.5272,5.5252,5.6197,5.7052,5.7204,5.7453,5.7075,5.6545,5.6396,5.6296,5.6239,5.6148,5.6102,5.5813,5.6399,5.6606,5.5883,5.6392,5.6905,5.6918,5.7563,5.8036,5.4183,5.42,5.3077,5.231,5.1846,5.1832,5.2149,5.2627,5.248,5.2317,5.2066,5.1051,4.9319,4.7053,4.6026,4.6284,4.7573,4.8371,4.9562,5.1003,5.1645,5.2026,5.2221,5.1628,5.1358,5.1321,5.0498,5.0166,5.0245,4.9841,4.9201,4.8352,4.7959,4.6028,4.2804,4.4251,4.5511,4.6402,4.679,4.7004,4.6987,4.6349,4.53,4.384,4.3605,4.277,4.1257,4.0419,4.0178,4.0548,3.9201,3.7735,3.6289,3.258,0.0,0.0,0.0,0.0,0.0,0.0,0.0,0.0,0.0,3.0451,2.6338,0.0,3.4093,0.0,3.8207,4.0786,4.053,4.2056,0.0,0.0,4.5193,4.639,4.9133,5.0599,5.1717,5.2586,5.4576,5.6353,5.7575,5.8076,5.8626,5.936,5.7314,5.5663,5.5539,5.5946,5.5983,5.5402,5.6113,5.6683,5.6078,5.6214,5.6773,5.7341,5.7408,5.754,5.7942,5.8013,5.8007,5.7961,5.7956,5.7929,5.781,5.8042,5.8076,5.7926,5.8297,5.8667,5.8706,5.9306,5.9664,5.4464,5.4573,5.4624,5.419,5.3524,5.3703,5.3861,5.394,5.3702,5.3367,5.2929,5.1818,5.0703,4.9649,4.9154,4.9446,5.025,5.0725,5.1362,5.2149,5.2594,5.2792,5.2772,5.1983,5.1595,5.1576,5.0722,5.0335,5.0424,5.0424,5.0265,4.9932,4.9932,4.8686,4.6312,4.671,4.7023,4.7126,4.7172,4.7212,4.7193,4.679,4.5763,4.4151,4.3702,4.2673,4.0966,4.0128,3.9723,3.9764,3.8895,3.8012,3.7099,3.4195,3.2115,0.0,0.0,0.0,0.0,0.0,0.0,0.0,0.0,0.0,0.0,0.0,3.7464,3.8621,4.2354,4.466,4.4544,4.6437,4.8084,4.8995,4.9746,5.1119,5.3388,5.4351,5.5217,5.6074,5.7031,5.7935,5.8822,5.8932,5.906,5.949,5.7583,5.6287,5.6689,5.6821,5.6628,5.6246,5.6544,5.6871,5.6664,5.6695,5.699,5.7741,5.7942,5.808,5.852,5.8589,5.8589,5.8589,5.8589,5.8589,5.8608,5.8937,5.9169,5.9262,5.9687,5.9917,5.965,5.992,6.0075,5.4233,5.4142,5.4212,5.4156,5.4101,5.4474,5.4677,5.4716,5.4441,5.3841,5.3031,5.2161,5.178,5.1711,5.1626,5.1829,5.2245,5.2347,5.2594,5.297,5.3091,5.3135,5.3097,5.2302,5.192,5.1882,5.1041,5.0627,5.0608,5.0608,5.0688,5.0792,5.0696,5.0345,4.9757,4.8905,4.8056,4.725,4.7251,4.7244,4.7237,4.7158,4.6294,4.4647,4.3751,4.2473,4.0815,3.9939,3.923,3.8605,3.8568,3.8214,3.7463,3.5842,3.4581,0.0,3.2141,0.0,0.0,0.0,0.0,0.0,0.0,0.0,0.0,3.9722,4.1908,4.4173,4.6728,4.8544,4.9228,5.1551,5.3037,5.3062,5.4531,5.5832,5.6587,5.7471,5.8289,5.8921,5.9096,5.9135,5.8983,5.8948,5.8896,5.8689,5.7919,5.7461,5.8102,5.7624,5.7134,5.7234,5.6695,5.6703,5.7319,5.7583,5.7936,5.8613,5.8903,5.8918,5.8995,5.8995,5.8956,5.8976,5.9053,5.9014,5.8918,5.9575,6.002,6.0074,6.0562,6.0785,6.0248,6.0123,6.021,5.3672,5.3805,5.3796,5.386,5.3932,5.3758,5.3952,5.4389,5.4313,5.4039,5.3526,5.2716,5.2196,5.1888,5.127,5.1295,5.1936,5.2626,5.3289,5.3874,5.4581,5.4919,5.4868,5.4021,5.3626,5.3569,5.2747,5.2333,5.2314,5.2314,5.2326,5.2343,5.1725,5.1322,5.1159,0.0,0.0,0.0,4.8329,4.7978,4.7955,4.6669,4.5173,4.3473,4.2626,0.0,3.9835,3.8927,3.8787,3.94,3.9445,0.0,0.0,0.0,0.0,0.0,0.0,0.0,0.0,0.0,0.0,0.0,4.0736,4.0444,4.0503,4.4485,4.7315,4.7842,5.0205,5.1786,5.1961,5.3679,5.4783,5.4799,5.6268,5.7381,5.7599,5.8865,5.9643,5.9044,5.9622,5.9742,5.8998,5.8918,5.8563,5.7804,5.7532,5.7164,5.6651,5.652,5.6338,5.6354,5.6838,5.7407,5.8241,5.8971,5.9474,5.9706,6.0248,6.0576,6.0576,6.0576,6.0596,6.0557,6.0615,6.0576,6.0596,6.077,6.0809,6.0867,6.0983,6.1055,6.0925,6.0867,6.0804,5.3358,0.0,5.3397,5.3331,0.0,5.3133,5.3314,5.3653,5.3671,5.3574,5.3415,5.3019,5.2751,5.2564,5.2168,5.2361,5.3067,5.3497,5.4072,5.476,5.5205,5.5396,5.5377,5.4505,5.4104,5.4065,5.3206,5.2792,5.2792,5.2792,5.2792,5.2792,5.2384,5.2193,5.2174,5.1372,5.0598,4.9901,4.9144,4.8743,4.87,4.7601,4.6156,4.4469,4.368,0.0,0.0,0.0,0.0,0.0,0.0,0.0,0.0,0.0,0.0,3.9051,3.8705,3.9031,4.0319,4.1613,4.308,4.4778,4.6476,4.6715,4.5031,4.8487,5.1083,5.1941,5.325,5.4167,5.4615,5.5415,5.6086,5.6471,5.726,5.7969,5.8429,5.9147,5.9487,5.9068,5.8999,5.8812,5.8377,5.7831,5.7408,5.694,5.7129,5.7185,5.6751,5.6646,5.6764,5.7271,5.8039,5.8874,5.9706,6.0576,6.1331,6.1684,6.1776,6.1737,6.1751,6.1384,6.1094,6.1094,6.1094,6.1094,6.1094,6.1094,6.1094,6.1094,6.1094,6.1094,6.1094,6.1094,6.1012,5.3115,5.2904,5.2984,5.2835,5.2586,5.2694,5.2828,5.2959,0.0,0.0,0.0,5.3196,5.3238,5.3293,5.3293,5.369,5.4364,5.438,5.4754,5.539,5.5396,5.5396,5.5358,5.4677,5.4333,5.4295,5.3588,5.3263,5.3244,5.3244,5.3269,5.3244,5.3116,5.2944,5.2772,5.2136,5.1461,5.0728,4.9764,4.9257,4.9252,4.8589,4.7454,4.5903,4.5191,4.3689,4.1326,4.1277,4.0706,3.9403,4.0131,4.0612,4.0637,4.1425,4.2159,4.2729,4.3626,4.4475,4.5297,4.6818,4.7929,4.8361,5.1133,5.1946,4.9845,5.1957,5.3949,5.5394,5.5532,5.5825,5.6528,5.6742,5.7073,5.7739,5.7935,5.8336,5.8983,5.9054,5.9006,5.8752,5.8189,5.7648,5.7477,5.6811,5.6304,5.6492,5.7009,5.7587,5.7849,5.7942,5.8217,5.9188,5.9943,6.0615,6.1447,6.2298,6.3071,6.3386,6.3149,6.2796,6.239,6.181,6.1331,6.1094,6.1094,6.1094,6.1094,6.1094,6.1094,6.1094,6.1094,6.1094,6.1094,6.1094,6.1012,5.2588,5.2579,5.2572,5.2561,5.2515,5.2526,5.2645,5.2857,5.3071,5.3185,5.3196,5.3196,5.3367,5.3633,5.3633,5.4024,5.4716,5.475,5.4962,5.539,5.5396,5.5396,5.5396,5.5269,5.5205,5.5205,5.5072,5.5014,5.5033,5.5021,5.5033,5.4919,5.4295,5.355,5.2843,5.2671,5.2581,5.239,5.0254,4.9124,4.91,4.8305,4.7423,4.6511,4.5735,4.453,4.2859,4.2899,4.2925,4.2815,4.362,4.4115,4.4183,4.4913,4.5151,4.4641,4.531,4.6153,4.701,4.7988,4.9499,5.1682,5.3029,5.3545,5.3292,5.4885,5.6061,5.6336,5.6326,5.6469,5.6624,5.721,5.766,5.7894,5.8484,5.8984,5.9099,5.9043,5.8745,5.8042,5.7887,5.7453,5.6827,5.6492,5.6616,5.7146,5.7711,5.8256,5.9976,5.9957,6.0248,6.1447,6.1945,6.2414,6.3115,6.4043,6.4314,6.3773,6.4237,6.4,6.282,6.2332,6.193,6.1234,6.1133,6.1094,6.1094,6.1094,6.1094,6.1094,6.1094,6.1094,6.1094,6.1089,6.0982,5.2498,5.2498,5.2498,5.2498,5.251,5.2618,5.2712,5.2835,5.31,5.3196,5.3196,5.3196,5.3293,5.343,5.3422,5.3701,5.4199,5.4199,5.4517,5.5052,5.5085,5.5194,5.5383,5.5396,5.5358,5.5294,5.5364,5.5358,5.53,5.5358,5.5396,5.5358,5.4995,5.4811,5.4798,5.3951,5.3492,5.3454,5.1913,5.09,5.0455,4.969,4.8873,4.8043,4.73,4.6397,4.5256,4.5306,4.5202,4.4868,4.568,4.617,4.6222,4.6987,4.7279,4.6982,4.811,4.8988,4.9396,5.068,5.1926,5.3127,5.4031,5.4556,5.4549,5.5744,5.6488,5.6507,5.6559,5.6781,5.719,5.7582,5.8149,5.9145,5.9181,5.911,5.9047,5.8647,5.8047,5.7259,5.7097,5.6947,5.6556,5.6751,5.7259,5.8104,5.9115,6.0835,6.2849,6.2883,6.2709,6.3091,6.3478,6.3922,6.4372,6.5107,6.5397,6.5088,6.5011,6.4701,6.3806,6.3187,6.2312,6.1848,6.1442,6.1133,6.1094,6.1094,6.1094,6.1094,6.1094,6.1094,6.1094,6.1017,6.0842,5.2498,5.2498,5.2498,5.2498,5.2521,5.2712,5.2794,5.2835,5.3071,5.3196,5.3196,5.3196,5.323,5.3324,5.3305,5.3531,5.3805,5.3842,5.4129,5.4635,5.4685,5.4859,5.5158,5.5226,5.5195,5.5116,5.5267,5.5287,5.5196,5.5293,5.5345,5.5358,5.539,5.5721,5.6307,5.5059,5.4409,5.4352,5.3722,5.29,5.1907,5.1306,5.0711,5.0103,4.9582,4.8921,4.819,4.8191,4.7967,4.7453,4.8031,4.8477,4.8693,4.9297,4.9689,4.9805,5.0891,5.1606,5.169,5.2861,5.3721,5.3944,5.4627,5.5132,5.5385,5.6047,5.6499,5.6503,5.6557,5.6859,5.7367,5.7699,5.8343,5.9612,5.9222,5.8792,5.8716,5.8051,5.7281,5.662,5.6497,5.6509,5.6587,5.7072,5.7975,5.9328,6.1277,6.3236,6.4643,6.5127,6.4952,6.4624,6.4836,6.5204,6.532,6.5746,6.6089,6.6205,6.5707,6.5243,6.4773,6.3768,6.2839,6.2486,6.1868,6.1403,6.1171,6.1094,6.1094,6.1094,6.1094,6.1094,6.1089,6.1021,6.0806,5.2498,5.2498,5.2498,5.2498,5.2515,5.2712,5.2794,5.2828,5.31,5.3196,5.3196,5.3196,5.3359,5.3633,5.3614,5.3823,5.4167,5.4246,5.4253,5.4322,5.4338,5.4374,5.4473,5.4716,5.4825,5.481,5.5075,5.5182,5.5107,5.5114,5.5174,5.5235,5.5332,5.5454,5.5517,5.5358,5.5263,5.5282,5.5212,5.4352,5.2811,5.2626,5.2609,5.2647,5.2617,5.2292,5.1414,5.1601,5.1595,5.156,5.1578,5.2024,5.2655,5.2867,5.2925,5.2867,5.3065,5.3196,5.322,5.3336,5.3855,5.4587,5.4862,5.5304,5.6064,5.6355,5.6487,5.6506,5.6571,5.6662,5.6742,5.7387,5.7933,5.8304,5.8148,5.7933,5.7876,5.7194,5.6659,5.654,5.6503,5.65,5.6578,5.7331,5.8603,6.0676,6.2524,6.4024,6.4933,6.5586,6.5953,6.5876,6.605,6.6031,6.6031,6.6108,6.6205,6.6205,6.6147,6.576,6.5223,6.4856,6.4353,6.311,6.2448,6.2061,6.1442,6.1094,6.1137,6.1094,6.1094,6.1094,6.1094,6.1075,6.0958,5.2498,5.2498,5.2498,5.2498,5.2515,5.2712,5.2794,5.2817,5.3082,5.3196,5.3196,5.3196,5.3272,5.341,5.341,5.3511,5.365,5.366,5.3748,5.3934,5.3953,5.407,5.4332,5.4627,5.4735,5.4637,5.5012,5.5121,5.5021,5.5071,5.5383,5.5851,5.5522,5.5555,5.6033,5.5626,5.5396,5.5396,5.5396,5.504,5.439,5.3886,5.3417,5.3044,5.3062,5.3032,5.2806,5.28,5.2809,5.2793,5.283,5.2998,5.3331,5.3326,5.3346,5.3369,5.3828,5.433,5.4837,5.491,5.5115,5.5532,5.5654,5.5932,5.6308,5.6453,5.6482,5.6503,5.655,5.6761,5.723,5.7601,5.8011,5.8363,5.8109,5.7797,5.7777,5.7073,5.6593,5.6564,5.6517,5.6719,5.7462,5.9206,6.101,6.2565,6.4082,6.5204,6.5682,6.5992,6.6147,6.6205,6.6205,6.6205,6.6205,6.6205,6.6205,6.6205,6.6205,6.5973,6.5779,6.5223,6.4682,6.3961,6.3497,6.2859,6.2042,6.1848,6.1776,6.1403,6.1094,6.1094,6.1094,6.1094,6.1041,5.2498,5.2498,5.2498,5.2498,5.2521,5.2672,5.2772,5.2817,5.3049,5.3164,5.3196,5.3196,5.3196,5.3196,5.3196,5.3196,5.3196,5.3196,5.3326,5.3553,5.3573,5.3738,5.4026,5.4336,5.4446,5.4426,5.4773,5.4959,5.4894,5.5007,5.5417,5.5904,5.5474,5.5521,5.6096,5.5606,5.5364,5.5396,5.5396,5.5396,5.5307,5.4829,5.4253,5.3731,5.3711,5.3812,5.3926,5.397,5.3971,5.3962,5.3947,5.3947,5.3947,5.3947,5.3967,5.4005,5.4545,5.5171,5.5842,5.5913,5.5981,5.6042,5.6171,5.6265,5.6345,5.6424,5.6476,5.6501,5.6552,5.6878,5.7328,5.7465,5.7777,5.8284,5.7797,5.7465,5.7426,5.6898,5.6605,5.6588,5.6565,5.6951,5.8219,6.0393,6.2392,6.3518,6.4875,6.6031,6.6147,6.6185,6.6205,6.6205,6.6205,6.6205,6.6205,6.6205,6.6205,6.6205,6.6205,6.6205,6.6205,6.5624,6.5107,6.4619,6.4295,6.3598,6.2511,6.2274,6.208,6.1403,6.1094,6.1094,6.1094,6.1094,6.1094,5.2498,5.2498,5.2498,5.2498,5.251,5.2563,5.2687,5.2806,5.2955,5.3082,5.3185,5.3196,5.3196,5.3196,5.3196,5.3196,5.3196,5.3196,5.3206,5.3251,5.323,5.3248,5.3261,5.3584,5.3823,5.399,5.4393,5.4659,5.4806,5.4919,5.5026,5.5071,5.5092,5.518,5.5317,5.5254,5.528,5.5364,5.5396,5.5396,5.5396,5.5345,5.5269,5.5153,5.5321,5.5295,5.5415,5.5528,5.556,5.5541,5.5488,5.5527,5.5546,5.5527,5.5493,5.5507,5.5584,5.5688,5.5772,5.5817,5.5861,5.5926,5.6058,5.6148,5.6233,5.6361,5.6428,5.648,5.657,5.6663,5.6722,5.68,5.68,5.6878,5.6781,5.6722,5.6702,5.6702,5.6624,5.6624,5.6747,5.7512,5.886,6.0343,6.2209,6.3573,6.4596,6.5397,6.605,6.6205,6.6205,6.6205,6.6205,6.6205,6.6205,6.6205,6.6205,6.6205,6.6205,6.6205,6.6205,6.6069,6.5644,6.532,6.5088,6.4334,6.3013,6.2216,6.1887,6.1442,6.1152,6.1094,6.1094,6.1094,6.1094,5.2498,5.2498,5.2498,5.2498,5.2491,5.2563,5.2676,5.2824,5.2944,5.3082,5.3185,5.3196,5.3196,5.3196,5.3196,5.3196,5.3196,5.3196,5.3196,5.3196,5.3196,5.3196,5.322,5.3543,5.3682,5.3776,5.4239,5.4595,5.4783,5.4833,5.4916,5.4992,5.5028,5.5066,5.5135,5.5182,5.5222,5.5268,5.5358,5.5396,5.5396,5.5396,5.539,5.5396,5.547,5.5533,5.5596,5.5657,5.5689,5.5689,5.5689,5.5689,5.5689,5.5689,5.5689,5.5714,5.5745,5.5771,5.5797,5.5871,5.5966,5.602,5.611,5.6225,5.6311,5.6419,5.6476,5.6503,5.6571,5.6604,5.6605,5.6605,5.6605,5.6605,5.6605,5.6605,5.6605,5.6605,5.6605,5.6762,5.7471,5.886,6.0364,6.2044,6.3417,6.4441,6.5288,6.5819,6.6069,6.6205,6.6205,6.6205,6.6205,6.6205,6.6205,6.6205,6.6205,6.6205,6.6205,6.6205,6.6205,6.6205,6.5857,6.5799,6.5663,6.4972,6.3594,6.2162,6.179,6.1384,6.1113,6.1287,6.1094,6.1389,6.1311,5.2498,5.2498,5.2498,5.2498,5.2491,5.2536,5.266,5.2794,5.2912,5.3039,5.3175,5.3196,5.3196,5.3196,5.3196,5.3196,5.3196,5.3196,5.3196,5.3196,5.3196,5.3196,5.322,5.3432,5.3554,5.3699,5.4197,5.4549,5.4673,5.476,5.4852,5.4912,5.4949,5.4981,5.5066,5.5135,5.5182,5.5216,5.5351,5.5396,5.5396,5.5396,5.5396,5.5396,5.5451,5.5522,5.5568,5.5646,5.5689,5.5689,5.5689,5.5689,5.5689,5.5689,5.5719,5.5735,5.5771,5.5807,5.5861,5.5937,5.6023,5.6129,5.6213,5.6298,5.6383,5.6457,5.648,5.6504,5.657,5.6605,5.6605,5.6605,5.6605,5.6605,5.6605,5.6605,5.6605,5.6605,5.6722,5.725,5.8798,6.0322,6.1561,6.3252,6.4384,6.5116,6.5778,6.6157,6.6205,6.6205,6.6205,6.6205,6.6205,6.6205,6.6205,6.6205,6.6205,6.6205,6.6205,6.6205,6.6205,6.6205,6.6205,6.6205,6.5837,6.5199,6.4077,6.253,6.1756,6.1331,6.1481,6.1771,6.179,6.1911,6.1892,5.2498,5.2498,5.2498,5.2498,5.248,5.2515,5.2629,5.2772,5.2835,5.2984,5.3185,5.3196,5.3196,5.3196,5.3196,5.3196,5.3196,5.3196,5.3196,5.3196,5.3196,5.3196,5.3196,5.322,5.338,5.3613,5.4145,5.439,5.4432,5.4665,5.4791,5.4814,5.4879,5.4946,5.5,5.5059,5.5135,5.5215,5.5319,5.539,5.5396,5.5396,5.5396,5.5396,5.5477,5.551,5.5516,5.5624,5.5689,5.5689,5.5689,5.5689,5.5689,5.5714,5.5735,5.5796,5.5797,5.5866,5.5981,5.6001,5.6069,5.6176,5.6251,5.6323,5.6406,5.6459,5.6484,5.6503,5.657,5.6605,5.6605,5.6605,5.6605,5.6605,5.6605,5.6605,5.6605,5.6644,5.6956,5.8011,5.9966,6.1517,6.2204,6.3704,6.5089,6.5438,6.5839,6.6205,6.6205,6.6205,6.6205,6.6205,6.6205,6.6205,6.6205,6.6205,6.6205,6.6205,6.6205,6.6205,6.6205,6.6205,6.6205,6.6166,6.5876,6.5243,6.4546,6.3129,6.2394,6.2027,6.224,6.2414,6.2511,6.2646,6.2743,5.2498,5.2498,5.2498,5.2498,5.2491,5.2554,5.2642,5.2813,5.2901,5.3039,5.3175,5.3196,5.3196,5.3196,5.3196,5.3196,5.3196,5.3196,5.3196,5.3196,5.3196,5.3196,5.3196,5.3196,5.3347,5.3632,5.4,5.4259,5.4426,5.4616,5.4763,5.4799,5.4875,5.4909,5.4919,5.4981,5.5078,5.5154,5.5203,5.53,5.539,5.5396,5.5384,5.5396,5.5456,5.5522,5.5568,5.5665,5.5703,5.5689,5.5689,5.5689,5.5714,5.5745,5.5796,5.5816,5.5895,5.5961,5.5981,5.6053,5.6114,5.6193,5.6269,5.6324,5.6394,5.6472,5.6493,5.6504,5.655,5.6605,5.6605,5.6605,5.6605,5.6605,5.6605,5.6624,5.6742,5.7112,5.807,5.9418,6.083,6.2041,6.3221,6.4692,6.5458,6.5917,6.6138,6.619,6.6205,6.6205,6.6205,6.6205,6.6205,6.6205,6.6205,6.6205,6.6205,6.6205,6.6205,6.6205,6.6205,6.6205,6.6205,6.6108,6.5804,6.532,6.4624,6.3947,6.3212,6.296,6.3154,6.327,6.3308,6.3463,6.3671,5.2498,5.2498,5.2498,5.2498,5.251,5.2554,5.2627,5.2732,5.2861,5.2988,5.3103,5.3175,5.3196,5.3196,5.3196,5.3196,5.3196,5.3196,5.3196,5.3196,5.3196,5.3196,5.3206,5.3272,5.3378,5.3601,5.3926,5.4163,5.4295,5.4508,5.4681,5.4752,5.4837,5.4871,5.4901,5.4963,5.5042,5.5101,5.5176,5.528,5.5371,5.5384,5.5396,5.5408,5.5486,5.5556,5.5596,5.5657,5.5689,5.5689,5.5689,5.5714,5.574,5.5776,5.5826,5.589,5.5943,5.6002,5.6029,5.6117,5.6176,5.6232,5.6303,5.6372,5.6415,5.6465,5.6482,5.6508,5.655,5.6605,5.6605,5.6605,5.6605,5.6605,5.6605,5.6742,5.7054,5.7777,5.9007,6.0532,6.1945,6.318,6.4328,6.5247,6.5859,6.6302,6.6296,6.6205,6.6205,6.6205,6.6205,6.6205,6.6205,6.6205,6.6205,6.6205,6.6205,6.6205,6.6205,6.6205,6.6205,6.6205,6.6185,6.6166,6.5958,6.5571,6.4909,6.4604,6.4063,6.4121,6.4029,6.414,6.4256,6.4638,6.4812,5.2498,5.2498,5.2498,5.2498,5.248,5.2533,5.2547,5.2631,5.2772,5.2912,5.302,5.3153,5.3196,5.3196,5.3196,5.3196,5.3196,5.3196,5.3196,5.3196,5.3196,5.3196,5.3217,5.3367,5.3461,5.3551,5.3917,5.41,5.4145,5.4405,5.4581,5.4708,5.4767,5.4837,5.4894,5.4956,5.5028,5.5094,5.5143,5.5267,5.5377,5.539,5.5402,5.5414,5.5522,5.559,5.5618,5.5662,5.5689,5.5689,5.5714,5.574,5.5782,5.5797,5.589,5.5981,5.5999,5.6057,5.6109,5.6161,5.6216,5.6291,5.6353,5.6399,5.6412,5.6447,5.6483,5.6504,5.657,5.6605,5.6605,5.6605,5.6644,5.6683,5.68,5.7093,5.7797,5.8656,5.9892,6.1537,6.3202,6.4528,6.5136,6.5882,6.6282,6.6337,6.6273,6.621,6.6205,6.6205,6.6205,6.6205,6.6205,6.6205,6.6205,6.6205,6.6205,6.6205,6.6205,6.6205,6.6205,6.6205,6.6205,6.6166,6.6089,6.5702,6.5431,6.5165,6.4875,6.4662,6.472,6.4952,6.5204,6.5508,6.5547,5.2498,5.2498,5.2498,5.2498,5.251,5.2554,5.2574,5.2624,5.285,5.2955,5.302,5.3153,5.3196,5.3196,5.3196,5.3196,5.3196,5.3196,5.3196,5.3196,5.3196,5.3196,5.3238,5.3416,5.3509,5.3551,5.3944,5.41,5.4127,5.4371,5.4565,5.4689,5.4752,5.481,5.4875,5.4923,5.4985,5.508,5.5095,5.5208,5.5364,5.5396,5.5421,5.5474,5.5516,5.5579,5.5651,5.5678,5.5689,5.5689,5.5751,5.5771,5.5802,5.5876,5.5947,5.6004,5.6046,5.6101,5.6176,5.6198,5.6239,5.6303,5.6367,5.6399,5.639,5.6471,5.6498,5.6509,5.655,5.6605,5.6605,5.6624,5.6839,5.7367,5.7504,5.7894,5.8676,5.9562,6.0688,6.2284,6.3515,6.4385,6.5225,6.5886,6.6379,6.6294,6.6235,6.6205,6.6205,6.6205,6.6205,6.6205,6.6205,6.6205,6.6205,6.6205,6.6205,6.6205,6.6205,6.6205,6.6205,6.6205,6.6205,6.6185,6.6166,6.5895,6.5934,6.5857,6.5547,6.5185,6.5455,6.5682,6.5799,6.6011,6.5992,5.2498,5.2498,5.2498,5.2498,5.251,5.2542,5.2559,5.2604,5.2806,5.2923,5.2955,5.3114,5.3185,5.3196,5.3196,5.3196,5.3196,5.3196,5.3196,5.3196,5.3196,5.3196,5.3322,5.3674,5.3842,5.3605,5.4242,5.4335,5.4183,5.4303,5.4518,5.4684,5.4728,5.4806,5.4894,5.4901,5.4963,5.5073,5.5082,5.5188,5.539,5.5422,5.5458,5.5504,5.5545,5.5624,5.5703,5.5689,5.5689,5.57,5.5742,5.5802,5.5841,5.5953,5.6013,5.6053,5.6069,5.6141,5.6194,5.6208,5.6239,5.6308,5.6381,5.641,5.6429,5.6476,5.6483,5.6486,5.6571,5.6603,5.6663,5.6878,5.7309,5.7738,5.8441,5.9065,5.963,6.007,6.1321,6.2772,6.3811,6.4541,6.5453,6.6084,6.6249,6.624,6.62,6.6205,6.6205,6.6205,6.6205,6.6205,6.6205,6.6205,6.6205,6.6205,6.6205,6.6205,6.6205,6.6205,6.6205,6.6205,6.6205,6.6205,6.6205,6.6205,6.6205,6.6205,6.6031,6.5895,6.6166,6.6205,6.6205,6.6205,6.6205,5.2498,5.2498,5.2498,5.2498,5.2498,5.2498,5.251,5.2526,5.2724,5.2806,5.2879,5.31,5.3185,5.3196,5.3196,5.3196,5.3196,5.3196,5.3196,5.3196,5.3196,5.3196,5.3301,5.4146,5.4219,5.3994,5.4798,5.4839,5.4566,5.445,5.4528,5.4689,5.4716,5.4775,5.4879,5.4909,5.4978,5.508,5.5102,5.5202,5.5371,5.5447,5.5489,5.551,5.5613,5.5668,5.5703,5.5689,5.5695,5.5719,5.5791,5.586,5.5905,5.5976,5.602,5.6073,5.6121,5.6164,5.6188,5.6209,5.6275,5.637,5.6391,5.6415,5.6461,5.6482,5.6483,5.6483,5.657,5.6603,5.6702,5.727,5.7797,5.8188,5.9398,6.0258,6.0514,6.0541,6.1419,6.353,6.3942,6.4808,6.5715,6.6322,6.6342,6.623,6.6205,6.6205,6.6205,6.6205,6.6205,6.6205,6.6205,6.6205,6.6205,6.6205,6.6205,6.6205,6.6205,6.6205,6.6205,6.6205,6.6205,6.6205,6.6205,6.6205,6.6205,6.6205,6.6205,6.6205,6.6205,6.6205,6.6205,6.6205,6.6205,5.2498,5.2498,5.2498,5.2498,5.2498,5.2498,5.2498,5.2521,5.2712,5.2794,5.2868,5.3089,5.3185,5.3196,5.3196,5.3196,5.3196,5.3196,5.3196,5.3196,5.3196,5.3196,5.3414,5.4275,5.457,5.4672,5.5694,5.5819,5.5286,5.5196,5.5097,5.4808,5.4856,5.4767,5.4943,5.4998,5.5021,5.5094,5.5136,5.5242,5.5358,5.5422,5.5458,5.551,5.5624,5.5684,5.5689,5.5689,5.573,5.5771,5.5836,5.59,5.5952,5.6002,5.604,5.6113,5.6153,5.6191,5.6199,5.6253,5.6321,5.6381,5.641,5.6434,5.6483,5.6482,5.6482,5.6509,5.655,5.6623,5.6761,5.7348,5.811,5.8872,5.9795,6.0718,6.1208,6.139,6.1933,6.2812,6.3673,6.4346,6.5226,6.599,6.6143,6.6176,6.6205,6.6205,6.6205,6.6205,6.6089,6.6031,6.6185,6.6147,6.5973,6.6031,6.6205,6.6205,6.6205,6.6205,6.6205,6.6205,6.6205,6.6205,6.6205,6.6205,6.6205,6.6205,6.6205,6.6205,6.6205,6.6205,6.6205,6.6205,6.6205,5.2498,5.2498,5.2498,5.2498,5.2498,5.2498,5.2498,5.2526,5.2712,5.2794,5.2868,5.31,5.3185,5.3196,5.3196,5.3196,5.3196,5.3196,5.3196,5.3196,5.3196,5.3196,5.3542,5.4475,5.5145,5.503,5.6324,5.6546,5.6145,5.6085,5.6119,5.5805,5.5476,5.5449,5.5386,5.5172,5.5061,5.5101,5.5157,5.5261,5.5371,5.5428,5.5501,5.5568,5.5651,5.5689,5.5689,5.5689,5.5751,5.5807,5.5885,5.5943,5.598,5.6042,5.6082,5.6145,5.6187,5.6223,5.6249,5.6275,5.6336,5.6389,5.6395,5.6441,5.647,5.6482,5.648,5.6509,5.6588,5.6722,5.7151,5.7933,5.8754,5.9639,6.0484,6.1193,6.1591,6.1712,6.1973,6.2692,6.3537,6.426,6.5013,6.5586,6.6051,6.6138,6.6185,6.6205,6.6205,6.6147,6.5842,6.5804,6.605,6.6069,6.5779,6.5857,6.6166,6.6205,6.6205,6.6205,6.6205,6.6205,6.6205,6.6205,6.6205,6.6205,6.6205,6.6205,6.6205,6.6205,6.6205,6.6205,6.6205,6.6205,6.6205,5.241,5.2498,5.2498,5.2498,5.248,5.2521,5.2424,5.2331,5.2553,5.2565,5.2678,5.2909,5.2976,5.3177,5.3196,5.3196,5.3196,5.3196,5.3196,5.3196,5.3196,5.3196,5.3608,5.4751,5.5541,5.5157,5.6909,5.7357,5.7005,5.6984,5.6991,5.6928,5.6325,5.6003,5.5966,5.5455,5.5085,5.5135,5.5222,5.5294,5.5384,5.5452,5.5527,5.5629,5.5673,5.5689,5.5689,5.5714,5.577,5.5904,5.5914,5.5948,5.5993,5.6063,5.6137,5.6195,5.6193,5.6235,5.6278,5.6315,5.6347,5.6394,5.6422,5.6443,5.6489,5.648,5.6499,5.6592,5.6725,5.7112,5.7758,5.8737,5.9541,6.0309,6.1152,6.163,6.1715,6.1717,6.1991,6.244,6.3111,6.3837,6.4555,6.5188,6.5685,6.6099,6.6143,6.6166,6.6147,6.6011,6.5668,6.5571,6.5779,6.6069,6.5876,6.5857,6.6147,6.6205,6.6205,6.6205,6.6205,6.6205,6.6205,6.6205,6.6205,6.6205,6.6205,6.6205,6.6205,6.6205,6.6205,6.6205,6.6205,6.6205,6.6205,5.2036,5.2498,5.2498,5.2498,5.2503,5.2559,5.2175,5.17,5.1843,5.1968,5.1971,5.2153,5.2637,5.3012,5.3196,5.3196,5.3196,5.3196,5.3196,5.3196,5.3196,5.3196,5.355,5.5002,5.5715,5.6313,5.7619,5.8218,5.7809,5.7845,5.7637,5.7104,5.643,5.6167,5.6056,5.5588,5.5136,5.5182,5.528,5.5364,5.539,5.5434,5.5504,5.5618,5.5687,5.5703,5.5689,5.5714,5.5775,5.5885,5.5914,5.5933,5.5981,5.6065,5.6137,5.6199,5.6227,5.6239,5.6284,5.6345,5.6375,5.6422,5.6443,5.6479,5.6496,5.6501,5.6542,5.6769,5.7176,5.766,5.7817,5.9209,6.0054,6.0607,6.1142,6.1695,6.1717,6.1718,6.1718,6.2034,6.264,6.324,6.3896,6.4578,6.518,6.5595,6.5804,6.5877,6.5915,6.5721,6.5412,6.5392,6.5508,6.5799,6.5992,6.6069,6.6205,6.6205,6.6205,6.6205,6.6205,6.6205,6.6205,6.6205,6.6205,6.6205,6.6205,6.6205,6.6205,6.6205,6.6205,6.6205,6.6205,6.6205,6.6205,5.1756,5.2078,5.2345,5.2261,5.1973,5.1957,5.1558,5.098,5.1085,5.1169,5.1339,5.1752,5.2189,5.2619,5.3067,5.3196,5.3196,5.3196,5.3196,5.3196,5.3196,5.3196,5.3419,5.5049,5.5723,5.6471,5.7862,5.8826,5.8426,5.8312,5.8076,5.7622,5.6729,5.6209,5.6108,5.5543,5.5233,5.5209,5.5326,5.5396,5.539,5.5421,5.5522,5.5618,5.5668,5.5684,5.5689,5.5689,5.5745,5.5831,5.5885,5.5933,5.6018,5.609,5.6161,5.621,5.6235,5.6268,5.6288,5.6364,5.6398,5.639,5.6453,5.6492,5.6484,5.6526,5.6685,5.7152,5.7434,5.8207,5.9104,5.9954,6.0507,6.1041,6.1479,6.1658,6.1699,6.1699,6.168,6.1719,6.2441,6.2969,6.3109,6.3804,6.4559,6.5041,6.5352,6.55,6.5552,6.5199,6.4812,6.4952,6.5088,6.574,6.6011,6.6147,6.6205,6.6205,6.6205,6.6205,6.6205,6.6205,6.6205,6.6205,6.6205,6.6205,6.6205,6.6205,6.6205,6.6205,6.6205,6.6205,6.6205,6.6205,6.6205,5.1408,5.1805,5.1955,5.1776,5.1408,5.1227,5.0794,5.0307,5.0527,5.0698,5.0763,5.1579,5.2115,5.2399,5.2858,5.3196,5.3196,5.3196,5.3196,5.3196,5.3196,5.3196,5.3681,5.483,5.5908,5.6205,5.7943,5.8975,5.8838,5.8564,5.843,5.793,5.6926,5.6258,5.6138,5.5545,5.5289,5.5261,5.5351,5.5377,5.5422,5.547,5.5562,5.5692,5.5689,5.5689,5.5689,5.5689,5.5751,5.5821,5.5871,5.5952,5.6016,5.6118,5.6203,5.6216,5.6278,5.6299,5.6336,5.636,5.641,5.6422,5.6476,5.6494,5.6496,5.6574,5.6833,5.7576,5.8089,5.8677,5.9871,6.0543,6.0981,6.1398,6.1637,6.1699,6.1699,6.1699,6.1699,6.1953,6.2461,6.2598,6.2617,6.3011,6.3767,6.4077,6.4402,6.4663,6.4662,6.429,6.4058,6.4275,6.4682,6.5547,6.5973,6.6166,6.6205,6.6205,6.6205,6.6205,6.6205,6.6205,6.6205,6.6205,6.6205,6.6205,6.6205,6.6205,6.6205,6.6205,6.6205,6.6205,6.6205,6.6205,6.6205,5.0784,5.226,5.0936,5.0728,5.1135,5.0707,5.0057,4.9508,5.0306,5.0763,5.0717,5.1636,5.238,5.2902,5.3086,5.3196,5.3196,5.3196,5.3196,5.3196,5.3196,5.3196,5.3455,5.4998,5.5628,5.6041,5.7822,5.8811,5.8736,5.843,5.8335,5.8008,5.6936,5.6282,5.6093,5.5523,5.5286,5.5339,5.5377,5.5434,5.5495,5.5492,5.5579,5.5657,5.5689,5.5689,5.5689,5.5689,5.5751,5.5865,5.5885,5.5971,5.6069,5.6149,5.6216,5.6272,5.6303,5.6347,5.6368,5.6388,5.6441,5.6455,5.6485,5.6496,5.654,5.6763,5.7137,5.7716,5.846,5.9363,6.0404,6.1078,6.1496,6.1637,6.1698,6.1699,6.1699,6.1699,6.1699,6.1719,6.2109,6.2012,6.1947,6.2434,6.291,6.3158,6.3421,6.369,6.3889,6.3632,6.3594,6.3889,6.4798,6.5721,6.5973,6.6166,6.6205,6.6205,6.6205,6.6205,6.6205,6.6205,6.6205,6.6205,6.6205,6.6205,6.6205,6.6205,6.6205,6.6205,6.6205,6.6205,6.6205,6.6205,6.6205,4.9164,5.0592,5.0249,5.0072,5.001,4.9796,4.9299,4.8952,4.9678,5.0115,5.039,5.1491,5.2435,5.3067,5.3196,5.3196,5.3196,5.3196,5.3196,5.3196,5.3196,5.3196,5.3484,5.4446,5.5175,5.5806,5.6778,5.7613,5.7813,5.7844,5.7674,5.7461,5.6345,5.5548,5.5748,5.5385,5.5319,5.5352,5.5403,5.5446,5.5486,5.5539,5.5596,5.5703,5.5689,5.5689,5.5689,5.5689,5.5705,5.5806,5.5855,5.5933,5.6025,5.613,5.6227,5.6341,5.6361,5.6369,5.6405,5.6424,5.6457,5.6507,5.6498,5.6496,5.6678,5.7403,5.8003,5.8498,5.9339,6.0164,6.0877,6.1451,6.1614,6.1716,6.1699,6.1699,6.1699,6.1699,6.1699,6.1699,6.1699,6.168,6.1656,6.1919,6.2375,6.2682,6.2809,6.2906,6.3254,6.342,6.3497,6.3715,6.4856,6.6089,6.6127,6.6205,6.6205,6.6205,6.6205,6.6205,6.6205,6.6205,6.6205,6.6205,6.6205,6.6205,6.6205,6.6205,6.6205,6.6205,6.6205,6.6205,6.6205,6.6205,6.6205,4.7717,4.868,4.9239,4.9311,4.9044,4.8951,4.8634,4.8332,4.9478,4.9931,5.0316,5.1565,5.2674,5.3067,5.3196,5.3196,5.3196,5.3196,5.3196,5.3196,5.3196,5.3196,5.3527,5.4204,5.4889,5.5109,5.6406,5.7042,5.7155,5.7035,5.6903,5.6822,5.5769,5.5223,5.5147,5.5202,5.528,5.5377,5.5383,5.5432,5.5498,5.5562,5.5643,5.5687,5.5689,5.5689,5.5689,5.5689,5.5689,5.5756,5.5821,5.5909,5.6058,5.616,5.6269,5.6386,5.6425,5.6437,5.6435,5.6466,5.6489,5.6558,5.6771,5.6951,5.7067,5.8276,5.9103,5.9006,5.9807,6.0693,6.1445,6.1687,6.1693,6.1717,6.1699,6.1699,6.1699,6.1699,6.1699,6.1699,6.1699,6.166,6.1629,6.1595,6.1854,6.2196,6.2273,6.2233,6.2594,6.3062,6.3521,6.3792,6.503,6.6127,6.6205,6.6205,6.6205,6.6205,6.6205,6.6205,6.6205,6.6205,6.6205,6.6205,6.6205,6.6205,6.6205,6.6205,6.6205,6.6205,6.6205,6.6205,6.6205,6.6205,6.6205,4.6981,4.7103,4.7688,4.8304,4.8843,4.8301,4.8075,4.8216,4.9905,5.0682,5.1041,5.2297,5.3049,5.3177,5.3196,5.3196,5.3196,5.3196,5.3196,5.3196,5.3196,5.3196,5.3532,5.4147,5.4863,5.5184,5.6023,5.6702,5.6962,5.6452,5.6307,5.611,5.5463,5.5223,5.5163,5.5216,5.5287,5.539,5.5415,5.5438,5.5504,5.5568,5.5629,5.5673,5.5689,5.5689,5.5689,5.5689,5.5724,5.578,5.5792,5.5904,5.6066,5.6179,5.6275,5.6395,5.6468,5.648,5.6476,5.6469,5.648,5.6714,5.7088,5.7518,5.7547,5.8473,5.9063,5.9357,6.0177,6.0852,6.1449,6.1709,6.1713,6.1699,6.1699,6.1699,6.1699,6.1699,6.1699,6.1699,6.168,6.164,6.1558,6.1529,6.1463,6.1806,6.1748,6.1709,6.2257,6.2762,6.3482,6.4121,6.5281,6.6031,6.6166,6.6205,6.6205,6.6205,6.6205,6.6205,6.6205,6.6205,6.6205,6.6205,6.6205,6.6205,6.6205,6.6205,6.6205,6.6205,6.6205,6.6205,6.6205,6.6205,6.6205,4.6613,4.6954,4.7461,4.787,4.8152,4.7982,4.7949,4.8296,4.9907,5.1346,5.226,5.292,5.3196,5.3196,5.3196,5.3196,5.3196,5.3196,5.3196,5.3196,5.3196,5.3196,5.35,5.3821,5.4308,5.473,5.5397,5.5822,5.5969,5.5864,5.5765,5.5564,5.534,5.5252,5.5216,5.5287,5.5358,5.5403,5.544,5.548,5.551,5.5602,5.5662,5.5684,5.5689,5.5689,5.5689,5.5689,5.5724,5.5745,5.5771,5.5899,5.6033,5.6114,5.6243,5.6376,5.6446,5.6482,5.6501,5.6493,5.6493,5.6662,5.7244,5.7839,5.8003,5.9063,5.9728,6.0178,6.0645,6.1339,6.155,6.1709,6.1699,6.1699,6.1699,6.1699,6.1699,6.1699,6.1699,6.1699,6.164,6.1582,6.1497,6.1427,6.1359,6.1362,6.125,6.1331,6.2008,6.282,6.3657,6.4372,6.5475,6.6031,6.6166,6.6205,6.6205,6.6205,6.6205,6.6205,6.6205,6.6205,6.6205,6.6205,6.6205,6.6205,6.6205,6.6205,6.6205,6.6205,6.6205,6.6205,6.6205,6.6205,6.6205,4.6305,4.673,4.7425,4.7689,4.7728,4.784,4.7925,4.8271,4.9856,5.158,5.3167,5.3196,5.3196,5.3196,5.3196,5.3196,5.3196,5.3196,5.3196,5.3196,5.3196,5.3196,5.3347,5.3688,5.4173,5.4382,5.4792,5.5261,5.5504,5.5409,5.5434,5.5421,5.53,5.528,5.5287,5.5351,5.5384,5.5415,5.547,5.5535,5.5564,5.5649,5.5703,5.5689,5.5689,5.5689,5.5689,5.5689,5.5689,5.5724,5.5756,5.5803,5.5922,5.6032,5.6154,5.6289,5.639,5.6461,5.6527,5.6514,5.6634,5.7031,5.7761,5.8159,5.8595,5.971,6.0627,6.0393,6.1115,6.1709,6.1707,6.1709,6.1714,6.1699,6.1699,6.1699,6.1699,6.1699,6.1699,6.1699,6.164,6.1569,6.1458,6.1384,6.137,6.1446,6.1701,6.1834,6.2278,6.3168,6.4237,6.4914,6.561,6.5973,6.6205,6.6205,6.6205,6.6205,6.6205,6.6205,6.6205,6.6205,6.6205,6.6205,6.6205,6.6205,6.6205,6.6205,6.6205,6.6205,6.6205,6.6205,6.6205,6.6205,6.6205,4.611,4.6262,4.7269,4.7689,4.7717,4.785,4.7892,4.8143,4.9825,5.158,5.3075,5.3196,5.3196,5.3196,5.3196,5.3196,5.3196,5.3196,5.3196,5.3196,5.3196,5.3196,5.3429,5.3776,5.4088,5.4432,5.4856,5.52,5.5338,5.539,5.539,5.5396,5.5364,5.5358,5.5396,5.5396,5.539,5.5395,5.5468,5.5527,5.5585,5.5651,5.5684,5.5689,5.5689,5.5689,5.5689,5.5689,5.5689,5.5714,5.5714,5.5758,5.5874,5.5943,5.6079,5.6264,5.6323,5.6434,5.6577,5.6552,5.696,5.7508,5.8159,5.8673,5.9299,6.0372,6.1231,6.0783,6.1271,6.1652,6.1702,6.171,6.1715,6.1699,6.1699,6.1699,6.1699,6.1699,6.1699,6.168,6.1621,6.1558,6.1439,6.1345,6.1369,6.1571,6.2017,6.2414,6.2859,6.3555,6.4682,6.5315,6.5857,6.5973,6.6205,6.6205,6.6205,6.6205,6.6205,6.6205,6.6205,6.6205,6.6205,6.6205,6.6205,6.6205,6.6205,6.6205,6.6205,6.6205,6.6205,6.6205,6.6205,6.6205,6.6205,4.6293,4.6695,4.7407,4.7689,4.7699,4.7749,4.7819,4.8195,4.9815,5.1561,5.2936,5.3196,5.3196,5.3196,5.3196,5.3196,5.3196,5.3196,5.3196,5.3196,5.3196,5.3196,5.3367,5.3651,5.3934,5.4104,5.4599,5.5038,5.4983,5.5253,5.539,5.5396,5.5396,5.5396,5.5396,5.5384,5.539,5.5402,5.5468,5.5533,5.5596,5.5657,5.5689,5.5689,5.5689,5.5689,5.5689,5.5689,5.5689,5.5689,5.5689,5.5737,5.5813,5.588,5.6073,5.6224,5.6316,5.6506,5.6759,5.6971,5.744,5.789,5.8262,5.8987,5.9846,6.0354,6.0842,6.1192,6.1446,6.1711,6.1705,6.1708,6.1699,6.1699,6.1699,6.1699,6.1699,6.1699,6.1699,6.164,6.1582,6.1929,6.1965,6.1943,6.1928,6.2317,6.2859,6.3458,6.3922,6.4314,6.5088,6.5624,6.6089,6.6127,6.6205,6.6205,6.6205,6.6205,6.6205,6.6205,6.6205,6.6205,6.6205,6.6205,6.6205,6.6205,6.6205,6.6205,6.6205,6.6205,6.6205,6.6205,6.6205,6.6205,6.6205,4.631,4.6677,4.7407,4.7689,4.7689,4.7689,4.8044,4.8873,5.0068,5.153,5.2918,5.3196,5.3196,5.3196,5.3196,5.3196,5.3196,5.3196,5.3196,5.3196,5.3196,5.3196,5.3295,5.3504,5.3729,5.3907,5.4359,5.4833,5.4862,5.5226,5.5377,5.5396,5.5396,5.5396,5.5396,5.5384,5.5409,5.5445,5.5498,5.5531,5.5618,5.5668,5.5689,5.5689,5.5689,5.5689,5.5689,5.5689,5.5689,5.5689,5.5689,5.5689,5.5764,5.5894,5.6059,5.6169,5.6387,5.6692,5.7132,5.7387,5.7971,5.8831,5.8676,5.9242,6.0256,6.0764,6.1172,6.1504,6.168,6.1713,6.1705,6.1708,6.1699,6.1699,6.1699,6.1699,6.1699,6.1699,6.1699,6.164,6.1919,6.2256,6.2641,6.2591,6.2593,6.3168,6.3753,6.4334,6.4875,6.5165,6.5417,6.5837,6.6166,6.6185,6.6205,6.6205,6.6205,6.6205,6.6205,6.6205,6.6205,6.6205,6.6205,6.6205,6.6205,6.6205,6.6205,6.6205,6.6205,6.6205,6.6205,6.6205,6.6205,6.6205,6.6205,4.6128,4.6286,4.7294,4.7779,4.7761,4.7916,4.8852,5.0318,5.0456,5.1522,5.3167,5.3196,5.3196,5.3196,5.3196,5.3196,5.3196,5.3196,5.3196,5.3196,5.3196,5.3196,5.3293,5.3492,5.3573,5.3898,5.4303,5.4677,5.4799,5.52,5.539,5.5396,5.5396,5.5396,5.5396,5.5403,5.5421,5.5482,5.5498,5.5568,5.5671,5.5684,5.5689,5.5689,5.5689,5.5689,5.5689,5.5689,5.5689,5.5689,5.5689,5.5689,5.5743,5.5841,5.5963,5.6163,5.6459,5.6961,5.7562,5.7797,5.8714,5.9691,6.0217,6.0412,6.0646,6.1154,6.1465,6.1621,6.1699,6.1715,6.1705,6.171,6.1699,6.1699,6.1699,6.1699,6.1699,6.1699,6.1699,6.1875,6.2285,6.2748,6.3415,6.3521,6.3516,6.429,6.4793,6.4914,6.5397,6.5687,6.5876,6.5953,6.6185,6.6185,6.6205,6.6205,6.6205,6.6205,6.6205,6.6205,6.6205,6.6205,6.6205,6.6205,6.6205,6.6205,6.6205,6.6205,6.6205,6.6205,6.6205,6.6205,6.6205,6.6205,6.618,4.6322,4.6795,4.8019,4.8547,4.8659,4.927,4.9918,5.0427,5.0993,5.2041,5.3185,5.3196,5.3196,5.3196,5.3196,5.3196,5.3196,5.3196,5.3196,5.3196,5.3196,5.3196,5.3241,5.3336,5.3349,5.3622,5.4034,5.4536,5.4626,5.505,5.5396,5.5396,5.5396,5.5396,5.539,5.539,5.5439,5.5499,5.5504,5.5604,5.5676,5.5689,5.5689,5.5689,5.5689,5.5689,5.5689,5.5689,5.5689,5.5689,5.5689,5.5689,5.5705,5.5917,5.6139,5.6422,5.6632,5.6956,5.7719,5.8382,5.9241,6.0315,6.092,6.127,6.1426,6.1504,6.1699,6.1699,6.1701,6.1712,6.1704,6.171,6.1715,6.1699,6.1699,6.1699,6.1738,6.1875,6.1914,6.2461,6.2871,6.3446,6.4116,6.4353,6.4464,6.5354,6.5818,6.576,6.5799,6.6031,6.6147,6.6185,6.6205,6.6205,6.6205,6.6205,6.6205,6.6205,6.6205,6.6205,6.6205,6.6205,6.6205,6.6205,6.6205,6.6205,6.6205,6.6205,6.6205,6.6205,6.6205,6.6205,6.6205,6.6205,6.6189,4.7197,4.7648,4.8848,4.9365,4.9532,5.0384,5.082,5.0964,5.1437,5.2259,5.313,5.3196,5.3196,5.3196,5.3196,5.3196,5.3196,5.3196,5.3196,5.3196,5.3196,5.3196,5.3206,5.3326,5.3442,5.367,5.4034,5.4583,5.4657,5.5014,5.5396,5.5396,5.5396,5.5396,5.539,5.5396,5.5446,5.548,5.5539,5.5621,5.5671,5.5689,5.5689,5.5689,5.5689,5.5689,5.5689,5.5689,5.5689,5.5689,5.5689,5.5689,5.5743,5.5962,5.6244,5.6514,5.6621,5.7308,5.8187,5.8753,5.9689,6.0626,6.1368,6.1563,6.166,6.166,6.1699,6.1699,6.1702,6.1707,6.1701,6.171,6.1716,6.1699,6.1699,6.1699,6.1875,6.2051,6.2519,6.3086,6.3631,6.4189,6.4631,6.4909,6.5243,6.576,6.605,6.6031,6.6011,6.6108,6.6166,6.6185,6.6205,6.6205,6.6205,6.6205,6.6205,6.6205,6.6205,6.6205,6.6205,6.6205,6.6205,6.6205,6.6205,6.6205,6.6205,6.6205,6.6205,6.62,6.6194,6.62,6.62,6.6205,6.6179,4.8324,4.8478,4.9676,5.0268,5.0453,5.126,5.1672,5.1744,5.1945,5.2396,5.3112,5.3196,5.3196,5.3196,5.3196,5.3196,5.3196,5.3196,5.3196,5.3196,5.3196,5.3196,5.3285,5.3504,5.3574,5.3916,5.4318,5.4746,5.4933,5.52,5.5396,5.5396,5.5396,5.5396,5.5403,5.539,5.544,5.5492,5.5556,5.5618,5.5668,5.5689,5.5689,5.5689,5.5689,5.5689,5.5689,5.5689,5.5689,5.5689,5.5689,5.5689,5.584,5.5974,5.6271,5.6602,5.6777,5.7639,5.8576,5.922,6.0177,6.1036,6.1699,6.1699,6.1699,6.1699,6.1699,6.1705,6.1707,6.1717,6.1708,6.1712,6.1716,6.1699,6.1699,6.1699,6.1777,6.2285,6.3144,6.3699,6.4208,6.4791,6.5361,6.5629,6.5552,6.605,6.6205,6.6205,6.6205,6.6205,6.6205,6.6205,6.6205,6.6205,6.6205,6.6205,6.6205,6.6205,6.6205,6.6205,6.6205,6.6205,6.6205,6.6205,6.6205,6.6205,6.6205,6.6205,6.62,6.6179,6.6179,6.6184,6.6189,6.6174,6.6128,4.8027,4.8571,5.0281,5.1451,5.2141,5.2375,5.2598,5.2817,5.286,5.2973,5.3167,5.3196,5.3196,5.3196,5.3196,5.3196,5.3196,5.3196,5.3196,5.3196,5.3196,5.3196,5.3282,5.3583,5.371,5.3943,5.4359,5.4976,5.518,5.5332,5.5396,5.5396,5.5396,5.5396,5.5384,5.5396,5.5433,5.5498,5.5568,5.5629,5.5678,5.5689,5.5689,5.5689,5.5689,5.5689,5.5689,5.5689,5.5689,5.5689,5.5689,5.5798,5.6005,5.6061,5.6259,5.6601,5.7132,5.8011,5.8869,5.965,6.0567,6.1211,6.1699,6.1699,6.1699,6.1699,6.1703,6.1709,6.1717,6.1706,6.1712,6.1714,6.1699,6.1699,6.1738,6.1738,6.1777,6.2734,6.3711,6.4348,6.4846,6.5367,6.5968,6.6127,6.6089,6.6108,6.6166,6.6205,6.6205,6.6205,6.6205,6.6205,6.6205,6.6205,6.6205,6.6205,6.6205,6.6205,6.6205,6.6205,6.6205,6.6205,6.6205,6.6205,6.6205,6.6205,6.6205,6.6205,6.6194,6.6169,6.6148,6.6148,6.6105,6.6083,6.6052,4.8944,4.9617,5.1149,5.2159,5.2651,5.2783,5.2923,5.3092,5.3175,5.3196,5.3196,5.3196,5.3196,5.3196,5.3196,5.3196,5.3196,5.3196,5.3196,5.3196,5.3196,5.3196,5.3378,5.3681,5.3925,5.4148,5.4708,5.5207,5.5358,5.5396,5.5396,5.5396,5.5396,5.5396,5.539,5.5409,5.5432,5.5479,5.5587,5.5649,5.5678,5.5689,5.5689,5.5689,5.5689,5.5689,5.5689,5.5689,5.5689,5.5717,5.5744,5.5874,5.6044,5.6152,5.6342,5.6734,5.7328,5.8169,5.9046,5.9943,6.0803,6.1407,6.1699,6.1699,6.1702,6.1703,6.1709,6.1715,6.1716,6.1704,6.1713,6.1716,6.1717,6.1699,6.1875,6.1992,6.2617,6.3574,6.4627,6.5562,6.5838,6.5862,6.6245,6.6166,6.6147,6.6147,6.6185,6.6205,6.6205,6.6205,6.6205,6.6205,6.6205,6.6205,6.6205,6.6205,6.6205,6.6205,6.6205,6.6205,6.6205,6.6205,6.6205,6.6205,6.6205,6.6205,6.6205,6.618,6.6155,6.6123,6.6102,6.6091,6.6036,6.5998,6.5992,5.009,5.0832,5.1976,5.2542,5.2624,5.2732,5.2901,5.3031,5.3153,5.3196,5.3196,5.3196,5.3196,5.3196,5.3196,5.3196,5.3196,5.3196,5.3196,5.3196,5.3196,5.3196,5.3451,5.387,5.4202,5.4594,5.5078,5.5266,5.539,5.5396,5.5396,5.5396,5.5396,5.5396,5.5396,5.5409,5.5438,5.5498,5.5581,5.5624,5.5662,5.5689,5.5689,5.5689,5.5689,5.5689,5.5689,5.5689,5.5689,5.5717,5.5774,5.591,5.605,5.6172,5.6365,5.674,5.7639,5.8382,5.9142,6.0138,6.0919,6.1485,6.1641,6.1701,6.1702,6.1706,6.1713,6.17,6.17,6.1707,6.1715,6.1699,6.1699,6.1797,6.2012,6.2422,6.3379,6.4277,6.533,6.6393,6.6467,6.6401,6.6295,6.6215,6.6205,6.6205,6.6205,6.6205,6.6205,6.6205,6.6205,6.6205,6.6205,6.6205,6.6205,6.6205,6.6205,6.6205,6.6205,6.6205,6.6205,6.6205,6.6205,6.6205,6.6205,6.6205,6.6175,6.617,6.6139,6.6091,6.6072,6.6038,6.5986,6.5958,6.5971,4.9768,5.0805,5.1994,5.2595,5.2732,5.2802,5.2934,5.3135,5.3175,5.3196,5.3196,5.3196,5.3196,5.3196,5.3196,5.3196,5.3196,5.3196,5.3196,5.3196,5.3196,5.3196,5.3418,5.3944,5.4594,5.5021,5.5292,5.5345,5.5396,5.5396,5.5396,5.5396,5.5396,5.5403,5.539,5.5415,5.545,5.5516,5.5573,5.5635,5.5668,5.5689,5.5689,5.5689,5.5689,5.5689,5.5689,5.5689,5.5689,5.5705,5.5753,5.5892,5.6029,5.618,5.6327,5.6818,5.7757,5.8537,5.9318,6.0372,6.1172,6.1582,6.1699,6.1699,6.1701,6.1703,6.1713,6.1707,6.1709,6.1715,6.1699,6.1699,6.1719,6.1914,6.2109,6.2969,6.3887,6.4629,6.5479,6.6132,6.6494,6.638,6.6235,6.6205,6.6205,6.6205,6.6205,6.6205,6.6205,6.6205,6.6205,6.6205,6.6205,6.6205,6.6205,6.6205,6.6205,6.6205,6.6205,6.6205,6.6205,6.6205,6.6205,6.6205,6.6205,6.6205,6.6175,6.6149,6.611,6.606,6.6042,6.5995,6.5947,6.5928,6.5947]}]]